[[{"header":{"parameterUnit":"m.s-1","parameterCategory":1,"la1":30.6,"la2":29.2853,"lo1":-89.7004,"lo2":-87.6739,"dy":0.0162,"dx":0.0183,"nx":112,"ny":82,"refTime":"2026-03-24T12:00:00:Z","depth":0,"parameterNumber":2,"parameterNumberName":"U-component_of_WINDS"},"data":[0.0,0.0,0.0,0.0,0.0,0.0,0.0,0.0,0.0,0.0,0.0,0.0,0.0,0.0,0.0,0.0,0.0,0.0,0.0,0.0,0.0,0.0,0.0,0.0,0.0,0.0,0.0,0.0,0.0,0.0,0.0,0.0,0.0,0.0,0.0,0.0,0.0,0.0,0.0,0.0,0.0,0.0,0.0,0.0,0.0,0.0,0.0,0.0,0.0,0.0,0.0,0.0,0.0,0.0,0.0,0.0,0.0,0.0,0.0,0.0,0.0,0.0,0.0,0.0,0.0,0.0,0.0,0.0,0.0,0.0,0.0,0.0,0.0,0.0,0.0,0.0,0.0,0.0,0.0,0.0,0.0,0.0,0.0,0.0,0.0,0.0,0.0,0.0,0.0,0.0,-1.5788,-1.7311,-1.9177,-2.0985,-2.2663,-2.1139,-1.8769,-1.5596,0.0,0.0,0.0,0.0,0.0,0.0,0.0,0.0,0.0,0.0,0.0,0.0,0.0,0.0,0.0,0.0,0.0,0.0,0.0,0.0,0.0,0.0,0.0,0.0,0.0,0.0,0.0,0.0,0.0,0.0,0.0,0.0,0.0,0.0,0.0,0.0,0.0,0.0,0.0,0.0,0.0,0.0,0.0,0.0,0.0,0.0,0.0,0.0,0.0,0.0,0.0,0.0,0.0,0.0,0.0,0.0,0.0,0.0,0.0,0.0,0.0,0.0,0.0,0.0,0.0,0.0,0.0,0.0,0.0,0.0,0.0,0.0,0.0,0.0,0.0,0.0,0.0,0.0,0.0,0.0,0.0,0.0,0.0,0.0,0.0,0.0,0.0,0.0,0.0,0.0,0.0,0.0,0.0,0.0,0.0,0.0,0.0,0.0,0.0,0.0,0.0,0.0,0.0,0.0,-1.6907,-2.1374,-2.0927,-2.0985,-2.2663,-2.0596,-1.8365,-1.6426,0.0,0.0,0.0,0.0,0.0,0.0,0.0,0.0,0.0,0.0,0.0,0.0,0.0,0.0,0.0,0.0,0.0,0.0,0.0,0.0,0.0,0.0,0.0,0.0,0.0,0.0,0.0,0.0,0.0,0.0,0.0,0.0,0.0,0.0,0.0,0.0,0.0,0.0,0.0,0.0,0.0,0.0,0.0,0.0,0.0,0.0,0.0,0.0,0.0,0.0,0.0,0.0,0.0,0.0,0.0,0.0,0.0,0.0,0.0,0.0,0.0,0.0,0.0,0.0,0.0,0.0,0.0,0.0,0.0,0.0,0.0,0.0,0.0,0.0,0.0,0.0,0.0,0.0,0.0,0.0,0.0,0.0,0.0,0.0,0.0,0.0,0.0,0.0,0.0,0.0,0.0,0.0,0.0,0.0,0.0,0.0,0.0,0.0,0.0,0.0,0.0,0.0,0.0,-1.5426,-1.7484,-2.1658,-2.1023,-2.0788,-2.1985,-2.0635,-1.8596,-1.5965,-1.5423,0.0,0.0,0.0,0.0,0.0,0.0,0.0,0.0,0.0,0.0,0.0,0.0,0.0,0.0,0.0,0.0,0.0,0.0,0.0,0.0,0.0,0.0,0.0,0.0,0.0,0.0,0.0,0.0,0.0,0.0,0.0,0.0,0.0,0.0,0.0,0.0,0.0,0.0,0.0,0.0,0.0,0.0,0.0,0.0,0.0,0.0,0.0,0.0,0.0,0.0,0.0,0.0,0.0,0.0,0.0,0.0,0.0,0.0,0.0,0.0,0.0,0.0,0.0,0.0,0.0,0.0,0.0,0.0,0.0,0.0,0.0,0.0,0.0,0.0,0.0,0.0,0.0,0.0,0.0,0.0,0.0,0.0,0.0,0.0,0.0,0.0,0.0,0.0,0.0,0.0,0.0,0.0,0.0,0.0,0.0,0.0,0.0,0.0,0.0,0.0,0.0,0.0,-1.6715,-1.8215,-2.1177,-2.0769,-2.0635,-2.1427,-2.0389,-1.8404,-1.5385,-1.4827,0.0,0.0,0.0,0.0,0.0,0.0,0.0,0.0,0.0,0.0,0.0,0.0,0.0,0.0,0.0,0.0,0.0,0.0,0.0,0.0,0.0,0.0,0.0,0.0,0.0,0.0,0.0,0.0,0.0,0.0,0.0,0.0,0.0,0.0,0.0,0.0,0.0,0.0,0.0,0.0,0.0,0.0,0.0,0.0,0.0,0.0,0.0,0.0,0.0,0.0,0.0,0.0,0.0,0.0,0.0,0.0,0.0,0.0,0.0,0.0,0.0,0.0,0.0,0.0,0.0,0.0,0.0,0.0,0.0,0.0,0.0,0.0,0.0,0.0,0.0,0.0,0.0,0.0,0.0,0.0,0.0,0.0,0.0,0.0,0.0,0.0,0.0,0.0,0.0,0.0,0.0,0.0,0.0,0.0,0.0,0.0,0.0,0.0,0.0,0.0,0.0,0.0,-1.7362,-1.9515,-2.1312,-2.0769,-2.0635,-2.1427,-1.9273,-1.7119,-1.5308,-1.3736,0.0,0.0,0.0,0.0,0.0,0.0,0.0,0.0,0.0,0.0,0.0,0.0,0.0,0.0,0.0,0.0,0.0,0.0,0.0,0.0,0.0,0.0,0.0,0.0,0.0,0.0,0.0,0.0,0.0,0.0,0.0,0.0,0.0,0.0,0.0,0.0,0.0,0.0,0.0,0.0,0.0,0.0,0.0,0.0,0.0,0.0,0.0,0.0,0.0,0.0,0.0,0.0,0.0,0.0,0.0,0.0,0.0,0.0,0.0,0.0,0.0,0.0,0.0,0.0,0.0,0.0,0.0,0.0,0.0,0.0,0.0,0.0,0.0,0.0,0.0,0.0,0.0,0.0,0.0,0.0,0.0,0.0,0.0,0.0,0.0,0.0,0.0,0.0,0.0,0.0,0.0,0.0,0.0,0.0,0.0,0.0,0.0,0.0,0.0,0.0,0.0,0.0,-1.6942,-1.885,0.0,-2.0481,-2.0423,-2.0731,-1.9373,-1.7564,-1.5346,0.0,0.0,0.0,0.0,0.0,0.0,0.0,0.0,0.0,0.0,0.0,0.0,0.0,0.0,0.0,0.0,0.0,0.0,0.0,0.0,0.0,0.0,0.0,0.0,0.0,0.0,0.0,0.0,0.0,0.0,0.0,0.0,0.0,0.0,0.0,0.0,0.0,0.0,0.0,0.0,0.0,0.0,0.0,0.0,0.0,0.0,0.0,0.0,0.0,0.0,0.0,0.0,0.0,0.0,0.0,0.0,0.0,0.0,0.0,0.0,0.0,0.0,0.0,0.0,0.0,0.0,0.0,0.0,0.0,0.0,0.0,0.0,0.0,0.0,0.0,0.0,0.0,0.0,0.0,0.0,0.0,0.0,0.0,0.0,0.0,0.0,0.0,0.0,0.0,0.0,0.0,0.0,0.0,0.0,0.0,0.0,0.0,0.0,0.0,0.0,0.0,0.0,-1.5058,-1.7157,-1.8888,0.0,-1.9888,-1.9773,-1.9504,-1.8449,-1.693,-1.4901,0.0,0.0,0.0,0.0,0.0,0.0,0.0,0.0,0.0,0.0,0.0,0.0,0.0,0.0,0.0,0.0,0.0,0.0,0.0,0.0,0.0,0.0,0.0,0.0,0.0,0.0,0.0,0.0,0.0,0.0,0.0,0.0,0.0,0.0,0.0,0.0,0.0,0.0,0.0,0.0,0.0,0.0,0.0,0.0,0.0,0.0,0.0,0.0,0.0,0.0,0.0,0.0,0.0,0.0,0.0,0.0,0.0,0.0,0.0,0.0,0.0,0.0,0.0,0.0,0.0,0.0,0.0,0.0,0.0,0.0,0.0,0.0,0.0,0.0,0.0,0.0,0.0,0.0,0.0,0.0,0.0,0.0,0.0,0.0,0.0,0.0,0.0,0.0,0.0,0.0,0.0,0.0,0.0,0.0,0.0,0.0,0.0,0.0,0.0,0.0,0.0,0.0,-1.5192,-1.8154,-1.9946,-1.9088,-1.8992,-1.8645,-1.7776,-1.6176,-1.4843,0.0,0.0,0.0,0.0,0.0,0.0,0.0,0.0,0.0,0.0,0.0,0.0,0.0,0.0,0.0,0.0,0.0,0.0,0.0,0.0,0.0,0.0,0.0,0.0,0.0,0.0,0.0,0.0,0.0,0.0,0.0,0.0,0.0,0.0,0.0,0.0,0.0,0.0,0.0,0.0,0.0,0.0,0.0,0.0,0.0,0.0,0.0,0.0,0.0,0.0,0.0,0.0,0.0,0.0,0.0,0.0,0.0,0.0,0.0,0.0,0.0,0.0,0.0,0.0,0.0,0.0,0.0,0.0,0.0,0.0,0.0,0.0,0.0,0.0,0.0,0.0,0.0,0.0,0.0,0.0,0.0,0.0,0.0,0.0,0.0,0.0,0.0,0.0,0.0,0.0,0.0,0.0,0.0,0.0,0.0,0.0,0.0,0.0,0.0,0.0,0.0,0.0,0.0,-1.4283,-1.6731,-1.8372,-1.8103,-1.8084,-1.7988,-1.7718,-1.6734,-1.5481,-1.3995,0.0,0.0,0.0,0.0,0.0,0.0,0.0,0.0,0.0,0.0,0.0,0.0,0.0,0.0,0.0,0.0,0.0,0.0,0.0,0.0,0.0,0.0,0.0,0.0,0.0,0.0,0.0,0.0,0.0,0.0,0.0,0.0,0.0,0.0,0.0,0.0,0.0,0.0,0.0,0.0,0.0,0.0,0.0,0.0,0.0,0.0,0.0,0.0,0.0,0.0,0.0,0.0,0.0,0.0,0.0,0.0,0.0,0.0,0.0,0.0,0.0,0.0,0.0,0.0,0.0,0.0,0.0,0.0,0.0,0.0,0.0,0.0,0.0,0.0,0.0,0.0,0.0,0.0,0.0,0.0,0.0,0.0,0.0,0.0,0.0,0.0,0.0,0.0,0.0,0.0,0.0,0.0,0.0,0.0,0.0,0.0,0.0,0.0,0.0,0.0,0.0,0.0,-1.3898,-1.6118,-1.7584,-1.7257,-1.7218,-1.7083,-1.6734,-1.6253,-1.5253,-1.3538,0.0,0.0,0.0,0.0,0.0,0.0,0.0,0.0,0.0,0.0,0.0,0.0,0.0,0.0,0.0,0.0,0.0,0.0,0.0,0.0,0.0,0.0,0.0,0.0,0.0,0.0,0.0,0.0,0.0,0.0,0.0,0.0,0.0,0.0,0.0,0.0,0.0,0.0,0.0,0.0,0.0,0.0,0.0,0.0,0.0,0.0,0.0,0.0,0.0,0.0,0.0,0.0,0.0,0.0,0.0,0.0,0.0,0.0,0.0,0.0,0.0,0.0,0.0,0.0,0.0,0.0,0.0,0.0,0.0,0.0,0.0,0.0,0.0,0.0,0.0,0.0,0.0,0.0,0.0,0.0,0.0,0.0,0.0,0.0,0.0,0.0,0.0,0.0,0.0,0.0,0.0,0.0,0.0,0.0,0.0,0.0,0.0,0.0,0.0,0.0,0.0,0.0,-1.3783,-1.5945,-1.7199,-1.6465,-1.6388,-1.6061,-1.5269,-1.5192,-1.4522,-1.2911,0.0,0.0,0.0,0.0,0.0,0.0,0.0,0.0,0.0,0.0,0.0,0.0,0.0,0.0,0.0,0.0,0.0,0.0,0.0,0.0,0.0,0.0,0.0,0.0,0.0,0.0,0.0,0.0,0.0,0.0,0.0,0.0,0.0,0.0,0.0,0.0,0.0,0.0,0.0,0.0,0.0,0.0,0.0,0.0,0.0,0.0,0.0,0.0,0.0,0.0,0.0,0.0,0.0,0.0,0.0,0.0,0.0,0.0,0.0,0.0,-1.6907,0.0,0.0,0.0,0.0,0.0,0.0,0.0,0.0,0.0,0.0,0.0,0.0,0.0,0.0,0.0,0.0,0.0,0.0,0.0,0.0,0.0,0.0,0.0,0.0,0.0,0.0,0.0,0.0,0.0,0.0,0.0,0.0,0.0,0.0,0.0,0.0,0.0,0.0,0.0,0.0,0.0,-1.2967,-1.458,-1.5673,-1.55,-1.5481,-1.5404,-1.5212,-1.5192,-1.475,-1.3709,-1.3043,0.0,0.0,0.0,0.0,0.0,0.0,0.0,0.0,0.0,0.0,0.0,0.0,0.0,0.0,0.0,0.0,0.0,0.0,0.0,0.0,0.0,0.0,0.0,0.0,0.0,0.0,0.0,0.0,0.0,0.0,0.0,0.0,0.0,0.0,0.0,0.0,0.0,0.0,0.0,0.0,0.0,0.0,0.0,0.0,0.0,0.0,0.0,0.0,0.0,0.0,0.0,0.0,0.0,0.0,0.0,0.0,0.0,0.0,0.0,0.0,-1.8773,0.0,0.0,0.0,0.0,0.0,0.0,0.0,0.0,0.0,0.0,0.0,0.0,0.0,0.0,0.0,0.0,0.0,0.0,0.0,0.0,0.0,0.0,0.0,0.0,0.0,0.0,0.0,0.0,0.0,0.0,0.0,0.0,0.0,0.0,0.0,0.0,0.0,0.0,0.0,0.0,-1.3233,-1.4404,-1.5192,-1.5192,-1.5192,-1.5192,-1.5192,-1.5192,-1.4824,-1.3956,-1.3519,0.0,0.0,0.0,0.0,0.0,0.0,0.0,0.0,0.0,0.0,0.0,0.0,0.0,0.0,0.0,0.0,0.0,0.0,0.0,0.0,0.0,0.0,0.0,0.0,0.0,0.0,0.0,0.0,0.0,0.0,0.0,0.0,0.0,0.0,0.0,0.0,0.0,0.0,0.0,0.0,0.0,0.0,0.0,0.0,0.0,0.0,0.0,0.0,0.0,0.0,0.0,0.0,0.0,-2.3238,-2.4029,-2.4608,-2.5425,-2.5792,-2.5637,-2.2867,-2.1775,-2.1845,0.0,0.0,0.0,0.0,0.0,0.0,0.0,0.0,0.0,0.0,0.0,0.0,0.0,0.0,0.0,0.0,0.0,0.0,0.0,0.0,0.0,0.0,0.0,0.0,0.0,-1.9367,-1.9223,0.0,0.0,0.0,0.0,0.0,0.0,0.0,0.0,0.0,0.0,0.0,0.0,-1.4228,-1.4981,-1.5423,-1.5423,-1.5423,-1.5365,-1.5212,-1.5192,-1.4882,-1.4168,-1.3975,-1.3594,0.0,0.0,0.0,0.0,0.0,0.0,0.0,0.0,0.0,0.0,0.0,0.0,0.0,0.0,0.0,0.0,0.0,0.0,0.0,0.0,0.0,0.0,0.0,0.0,0.0,0.0,0.0,0.0,0.0,0.0,0.0,0.0,-1.2786,-1.3643,0.0,0.0,0.0,0.0,0.0,0.0,0.0,0.0,0.0,0.0,0.0,0.0,0.0,0.0,-2.2213,-2.4574,-2.5535,-2.5072,-2.6656,-2.7062,-2.6464,-2.7332,-2.7737,-2.7721,-2.7256,0.0,-2.3714,-2.1962,0.0,0.0,0.0,0.0,0.0,0.0,0.0,0.0,0.0,0.0,0.0,0.0,0.0,0.0,0.0,0.0,0.0,0.0,0.0,0.0,0.0,0.0,-2.1541,-2.225,-2.2498,-2.2274,0.0,-1.8473,-1.6042,-1.5058,0.0,0.0,0.0,0.0,0.0,0.0,0.0,0.0,-1.5945,-1.6253,-1.633,-1.633,-1.633,-1.6022,-1.5269,-1.5192,-1.5154,-1.5038,-1.4324,-1.3841,-1.3747,-1.2849,0.0,0.0,0.0,0.0,0.0,0.0,0.0,0.0,0.0,0.0,0.0,0.0,0.0,0.0,0.0,0.0,0.0,0.0,0.0,0.0,0.0,0.0,0.0,0.0,0.0,0.0,0.0,0.0,0.0,-1.3172,-1.4566,-1.5357,-1.5412,-1.5403,0.0,0.0,0.0,0.0,0.0,0.0,0.0,0.0,0.0,-2.1953,-2.356,-2.4625,-2.509,-2.6714,-2.7602,-2.7758,-2.9426,-3.0046,-2.9698,-3.0569,-3.0976,-3.0976,-3.0976,-3.0066,-2.8379,-2.5659,-2.4029,-2.3157,0.0,0.0,0.0,0.0,0.0,-2.2146,-2.3046,-2.2868,0.0,0.0,0.0,0.0,0.0,0.0,0.0,0.0,0.0,0.0,0.0,0.0,0.0,-2.3063,-2.3135,-2.2987,-2.2584,-2.1251,-1.9464,0.0,-1.6767,-1.6212,-1.4286,0.0,0.0,0.0,0.0,-1.5811,-1.7026,-1.718,-1.7007,-1.6545,-1.6506,-1.6157,-1.5269,-1.5192,-1.5192,-1.5192,-1.4843,-1.4632,-1.4632,-1.3827,-1.2791,0.0,0.0,0.0,0.0,0.0,0.0,0.0,0.0,0.0,0.0,0.0,0.0,0.0,0.0,0.0,0.0,0.0,0.0,0.0,0.0,0.0,0.0,0.0,0.0,0.0,0.0,0.0,0.0,-1.4632,-1.6084,-1.705,-1.7355,-1.7404,0.0,0.0,0.0,0.0,0.0,0.0,-2.1342,-2.3024,-2.4273,-2.4912,-2.6235,-2.7215,-2.7815,-2.8902,-2.9785,-3.0445,-3.1687,-3.227,-3.2309,-3.2968,-3.326,-3.326,-3.326,-3.2909,-3.2113,-2.8844,-2.6973,-2.6096,-2.5046,-2.4239,-2.3761,-2.4645,-2.4964,-2.5091,-2.5977,-2.6142,-2.5793,-2.476,0.0,-2.3594,-2.2242,0.0,0.0,0.0,0.0,-2.2161,-2.2667,0.0,-2.3509,-2.3769,-2.3806,-2.3701,-2.3487,-2.3564,-2.2718,0.0,-1.9184,-1.8549,-1.5809,0.0,0.0,0.0,0.0,-1.718,-1.8238,-1.8161,-1.7795,-1.7199,-1.6949,-1.6465,-1.5615,-1.5347,-1.5224,-1.5224,-1.5224,-1.5224,-1.5224,-1.4585,-1.3846,-1.3024,0.0,0.0,0.0,0.0,0.0,0.0,0.0,0.0,0.0,0.0,0.0,0.0,0.0,0.0,0.0,0.0,0.0,0.0,0.0,0.0,0.0,0.0,0.0,0.0,0.0,0.0,0.0,0.0,0.0,-1.8772,-1.9702,0.0,0.0,0.0,0.0,-2.02,-2.1826,-2.3182,-2.4055,-2.5691,-2.6626,-2.6665,-2.9183,-3.0565,-3.0604,-3.2282,-3.3164,-3.3203,-3.3281,-3.332,-3.334,-3.3379,-3.3398,-3.3398,-3.3398,-3.3379,-3.3125,-3.0452,-2.8842,-2.7894,-2.6194,-2.5515,-2.5566,-2.6459,-2.676,-2.6901,-2.7831,-2.7617,-2.7051,-2.7793,-2.6914,-2.5566,-2.5469,-2.4336,0.0,0.0,-2.3633,-2.3418,-2.5078,-2.4922,-2.4531,-2.5371,-2.5566,-2.5332,-2.4512,-2.4933,-2.4675,0.0,-2.0867,-2.003,-1.9093,0.0,-1.7944,-1.8783,-1.8178,-1.8257,-1.9942,-1.945,-1.8915,-1.8876,-1.8126,-1.7314,-1.6503,-1.5721,-1.5295,-1.5295,-1.5295,-1.5295,-1.5295,-1.5193,-1.4728,-1.386,-1.3005,0.0,0.0,0.0,0.0,0.0,0.0,0.0,0.0,0.0,0.0,0.0,0.0,0.0,0.0,0.0,0.0,0.0,0.0,0.0,0.0,0.0,0.0,0.0,0.0,0.0,0.0,0.0,0.0,-2.1359,-2.1903,0.0,-2.1576,-2.2379,-2.2931,-2.2978,-2.4557,-2.5664,-2.6027,-2.8195,-2.9445,-2.9445,-3.1402,-3.2478,-3.2478,-3.3652,-3.4238,-3.4238,-3.4805,-3.5078,-3.5078,-3.5078,-3.5078,-3.5078,-3.5078,-3.5078,-3.4961,-3.3455,-3.2028,-3.0701,-3.0096,-2.9508,-2.8978,-2.8728,-2.8983,-2.9354,-2.8574,-2.8457,-2.8633,-2.8379,-2.7871,-2.7363,-2.7363,-2.6953,-2.6543,-2.6836,-2.6699,-2.6582,-2.7207,-2.7148,-2.6855,-2.6602,-2.6543,-2.6309,-2.543,-2.5468,-2.5211,-2.3722,-2.3143,-2.2291,-2.0364,-2.0217,-2.0101,-1.9286,-1.9318,-1.965,-2.0285,-2.0094,-1.9693,-1.9119,-1.8813,-1.8087,-1.662,-1.6277,-1.6136,-1.6136,-1.5606,-1.5534,-1.6049,-1.5553,-1.4837,-1.3918,-1.3613,-1.2481,0.0,0.0,0.0,0.0,0.0,0.0,0.0,0.0,0.0,0.0,0.0,0.0,0.0,0.0,0.0,0.0,0.0,0.0,0.0,0.0,0.0,0.0,0.0,0.0,0.0,0.0,-2.1612,-2.3183,-2.397,-2.4238,-2.3842,-2.4906,-2.5509,-2.5256,-2.712,-2.8278,-2.8301,-3.0488,-3.1738,-3.1738,-3.3105,-3.3848,-3.3848,-3.4707,-3.5137,-3.5156,-3.5723,-3.5996,-3.5996,-3.5996,-3.5996,-3.5996,-3.5996,-3.5996,-3.5957,-3.5371,-3.4473,-3.3418,-3.2832,-3.2246,-3.168,-3.1094,-3.125,-3.1543,-3.0117,-2.998,-3.0332,-2.9453,-2.8984,-2.873,-2.873,-2.8535,-2.8301,-2.8301,-2.8301,-2.8301,-2.8301,-2.8301,-2.8144,-2.7578,-2.7207,-2.6836,-2.6269,-2.5918,-2.5527,-2.4941,-2.4567,-2.3701,-2.1752,-2.1629,-2.1496,-2.0618,-2.0432,-2.05,-2.0769,-2.0571,-2.0182,-1.96,-1.9344,-1.8594,-1.7094,-1.7009,-1.6918,-1.6644,-1.635,-1.6282,-1.6567,-1.6008,-1.5286,-1.4383,-1.3782,-1.2808,-1.1389,0.0,0.0,0.0,0.0,0.0,0.0,0.0,0.0,0.0,0.0,0.0,0.0,0.0,0.0,0.0,0.0,0.0,0.0,0.0,0.0,0.0,0.0,0.0,-1.934,-2.0876,-2.2613,-2.4222,-2.5902,-2.6611,-2.5761,-2.7233,-2.7892,-2.7095,-2.9451,-3.0957,-3.0976,-3.2539,-3.3437,-3.3437,-3.4297,-3.4746,-3.4746,-3.5586,-3.5996,-3.5996,-3.5996,-3.5996,-3.5996,-3.5996,-3.5996,-3.5996,-3.5996,-3.5996,-3.5996,-3.5996,-3.5996,-3.582,-3.4141,-3.3476,-3.3476,-3.3457,-3.3418,-3.3281,-3.2519,-3.2246,-3.2109,-3.125,-3.041,-2.9707,-2.9687,-2.9082,-2.8418,-2.8398,-2.8379,-2.8379,-2.8379,-2.8379,-2.8379,-2.8359,-2.7695,-2.707,-2.7012,-2.6348,-2.5723,-2.5703,-2.5019,-2.418,-2.3379,-2.2475,-2.214,-2.2896,-2.1543,0.0,-2.1509,-2.0903,-2.0412,-2.0447,-1.9754,-1.8937,-1.8052,-1.7977,-1.7643,-1.6822,-1.7467,-1.7545,-1.6802,-1.661,-1.6146,-1.5356,-1.366,-1.2353,-1.1485,0.0,0.0,0.0,0.0,0.0,0.0,0.0,0.0,0.0,0.0,0.0,0.0,0.0,0.0,0.0,0.0,0.0,0.0,0.0,0.0,0.0,-1.9355,-2.0683,-2.1932,-2.3574,-2.5271,-2.6927,-2.7589,-2.7806,-2.7511,-2.8527,-2.9374,-2.9764,-3.1074,-3.2109,-3.2676,-3.375,-3.4336,-3.4336,-3.5195,-3.5644,-3.5644,-3.5879,-3.5996,-3.5996,-3.5996,-3.5996,-3.5996,-3.5996,-3.5996,-3.5996,-3.5996,-3.5996,-3.5996,-3.5996,-3.5996,-3.5957,-3.5469,-3.5293,-3.5215,-3.457,-3.3945,-3.3379,-3.3144,-3.3066,-3.3027,-3.2793,-3.2559,-3.2246,-3.166,-3.1328,-3.0996,-3.0351,-3.0195,-3.0195,-3.0195,-3.0195,-3.0039,-2.9394,-2.9062,-2.8535,-2.7266,-2.6816,-2.6465,-2.582,-2.5508,-2.5078,-2.4219,-2.3867,-2.3553,-2.3197,-2.2201,0.0,-2.1784,-2.1065,-2.0744,-2.1288,-2.1195,-2.0713,-1.9795,-1.9759,-1.9438,-1.8631,-1.7616,-1.7477,-1.8464,-1.7251,-1.6441,-1.6174,-1.5072,-1.4077,0.0,0.0,0.0,0.0,0.0,0.0,0.0,0.0,0.0,0.0,0.0,0.0,0.0,0.0,0.0,0.0,0.0,0.0,0.0,0.0,0.0,0.0,-2.1465,-2.3223,-2.4609,-2.5625,-2.6875,-2.8588,-2.9139,-2.9511,-2.9838,-3.037,-3.1035,-3.1875,-3.2754,-3.3457,-3.3926,-3.4766,-3.5234,-3.5234,-3.5742,-3.5996,-3.5996,-3.5996,-3.5996,-3.5996,-3.5996,-3.5996,-3.5996,-3.5996,-3.5996,0.0,-3.5996,-3.5996,-3.5996,-3.5996,-3.5996,0.0,0.0,0.0,0.0,0.0,-3.4922,-3.4434,-3.4062,-3.3945,-3.3887,-3.3516,-3.3398,-3.3301,-3.2832,-3.2461,-3.209,-3.1582,-3.1172,-3.0898,-3.0898,-3.0898,-3.0762,-3.0273,-2.9863,-2.9316,-2.8301,-2.7519,-2.6855,-2.6348,0.0,0.0,-2.5039,-2.4648,-2.4355,-2.4235,-2.3183,-2.2402,0.0,-2.1679,-2.117,-2.1222,-2.1272,-2.0923,-2.0026,-2.0315,0.0,0.0,0.0,-1.8593,-1.9187,-1.7885,0.0,0.0,0.0,0.0,0.0,0.0,0.0,0.0,-1.2565,-1.2601,0.0,0.0,0.0,0.0,0.0,0.0,0.0,0.0,0.0,0.0,0.0,0.0,0.0,0.0,0.0,0.0,-2.3711,-2.6074,-2.7148,-2.7285,-2.7891,-2.9551,-3.0527,-3.1348,-3.2129,-3.2285,-3.2676,-3.3496,-3.4258,-3.4746,-3.4844,0.0,0.0,0.0,0.0,-3.5996,-3.5996,-3.5996,-3.6055,-3.6152,-3.6152,-3.6152,-3.6152,-3.6152,-3.6094,-3.5996,-3.5996,-3.5996,-3.5996,-3.5996,-3.5996,-3.5996,-3.5996,-3.5996,-3.5996,-3.5996,-3.5996,0.0,0.0,0.0,0.0,-3.3945,-3.3691,-3.3672,-3.3574,-3.3047,-3.2441,-3.2246,-3.1641,-3.1016,-3.0937,-3.0898,-3.0898,-3.0898,-3.0312,-2.9726,-2.9629,-2.8379,-2.7246,-2.7031,-2.6387,-2.582,-2.5723,-2.5059,-2.4784,-2.5492,-2.4254,0.0,-2.3245,-2.2457,-2.1641,-2.0957,0.0,0.0,-1.9648,-2.0292,-2.0371,-1.9492,-2.0176,-2.0135,-1.9108,-1.8415,-1.7925,-1.7658,-1.6891,-1.6455,-1.6349,-1.5577,-1.5192,-1.5154,-1.3678,-1.3368,0.0,0.0,0.0,0.0,0.0,0.0,0.0,0.0,0.0,0.0,0.0,0.0,0.0,0.0,0.0,-2.4238,-2.5273,-2.6504,-2.8789,-2.9101,-2.9473,-3.0527,-3.1426,-3.2012,-3.2187,-3.2793,-3.3516,-3.4375,-3.4609,-3.5019,-3.5703,-3.5918,0.0,-3.5996,-3.5996,-3.5996,-3.5996,-3.5996,-3.6348,-3.7051,0.0,0.0,-3.7051,-3.7051,-3.666,-3.5996,-3.5996,-3.5996,-3.5996,-3.5996,-3.5996,-3.5996,-3.5996,-3.5996,-3.5996,-3.5996,-3.5996,-3.5976,-3.5801,-3.5742,-3.5723,-3.5547,-3.5508,-3.5371,-3.4668,-3.4336,0.0,-3.2578,-3.207,-3.1797,-3.1074,-3.0898,-3.0898,-3.0898,-3.0762,-3.0469,-2.9746,-2.9336,-2.8672,-2.7266,-2.6855,-2.6523,-2.582,-2.5566,-2.5508,-2.5663,-2.4804,-2.4141,-2.4159,-2.2832,-2.2089,-2.2563,-2.1994,-2.1505,-2.1329,-2.1466,-2.1221,-2.0391,-2.0508,-1.9862,-1.8223,-1.8666,-1.8267,-1.6772,-1.658,-1.6141,-1.5442,-1.5288,-1.5192,-1.5192,-1.4865,-1.4808,0.0,0.0,0.0,0.0,0.0,0.0,0.0,0.0,0.0,0.0,0.0,-1.918,-2.0937,0.0,-2.3848,-2.5996,-2.707,-2.8105,-2.9414,-2.998,-3.041,-3.0859,-3.168,-3.2363,-3.2754,-3.3555,-3.4414,-3.5293,-3.5351,-3.5547,-3.5976,-3.5996,-3.5996,-3.5996,-3.5996,-3.5996,-3.5996,-3.6426,-3.6875,-3.7305,-3.7734,-3.7715,-3.7305,-3.7754,-3.7246,-3.6016,-3.6465,-3.6406,-3.5996,-3.5996,-3.5996,-3.5996,-3.5996,-3.5996,-3.5996,-3.5996,-3.5996,-3.5996,-3.5996,-3.5996,-3.5996,-3.5996,-3.5996,-3.5918,-3.5488,-3.5059,-3.4531,-3.3691,-3.2851,-3.2109,-3.166,-3.123,-3.0898,-3.0898,-3.0898,-3.0781,-3.0332,-2.9902,-2.9336,-2.8476,-2.7598,-2.6855,-2.6426,-2.5996,-2.5703,-2.5703,-2.5332,-2.4883,-2.4453,-2.3672,-2.2988,-2.2553,-2.2102,-2.1673,-2.1243,-2.1204,-2.1031,-2.0625,-2.0605,-2.0195,-1.9292,-1.9634,-1.9422,-1.853,-1.8045,-1.7586,-1.7148,-1.6679,-1.6445,-1.6445,-1.6445,-1.6234,0.0,0.0,0.0,0.0,0.0,0.0,0.0,-1.7305,-1.7793,-1.9004,-2.0352,-2.1816,-2.3398,-2.4922,-2.6289,-2.7344,-2.8672,-2.9668,-2.9824,-3.0469,-3.0898,-3.0898,-3.168,-3.2519,-3.332,-3.4199,-3.5059,-3.5937,-3.5996,-3.5996,-3.5996,-3.5996,-3.5996,-3.5996,-3.5996,-3.5996,-3.5996,-3.6855,-3.7383,-3.7559,-3.8437,-3.8476,-3.7832,-3.8535,-3.7988,-3.6543,-3.7246,-3.7051,-3.625,-3.625,-3.6152,-3.5996,-3.5996,-3.5996,-3.5996,-3.5996,-3.5996,-3.5996,-3.5996,-3.5996,-3.5996,-3.5996,-3.5996,-3.5996,-3.5996,-3.5508,-3.4922,-3.4746,-3.373,-3.2617,-3.2285,-3.168,-3.1113,-3.0937,-3.0898,-3.0898,-3.0898,-3.0351,-2.9805,-2.9629,-2.8476,-2.7402,-2.7051,-2.6426,-2.5898,-2.5723,-2.5703,-2.5449,-2.4746,-2.4492,-2.3887,-2.2539,-2.209,-2.1543,-2.0664,-2.0605,-2.0605,-2.0605,-2.0605,-2.0527,-2.0352,-2.0307,-2.0179,-1.9993,-1.9245,-1.8849,-1.8822,-1.8063,-1.7699,-1.7699,-1.7699,-1.7353,-1.8418,-1.6641,-1.5898,-1.7344,-1.7207,-1.7871,0.0,-2.1719,-2.082,-2.3203,-2.3848,-2.4277,-2.5234,-2.6211,-2.7383,-2.9043,-2.9473,-2.9863,-3.0644,-3.084,-3.0898,-3.0898,-3.168,-3.2519,-3.332,-3.4199,-3.5059,-3.5937,-3.5996,-3.5996,-3.5996,-3.5996,-3.5996,-3.5996,-3.5996,-3.5996,-3.5996,-3.6855,-3.7695,-3.8476,-3.9336,-3.9707,-3.9609,-3.9707,-3.9238,-3.8301,-3.8418,-3.7969,-3.7148,-3.7148,-3.6699,-3.5996,-3.5996,-3.5996,-3.5996,-3.5996,-3.5996,-3.5996,-3.5996,-3.5996,-3.5996,-3.5996,-3.5996,-3.5996,-3.5996,-3.5937,-3.5684,-3.4922,-3.4551,-3.4082,-3.2598,-3.2129,-3.1855,-3.1074,-3.0898,-3.0898,-3.0898,-3.082,-3.0527,-2.9746,-2.9434,-2.8828,-2.7266,-2.6914,-2.6582,-2.582,-2.5703,-2.5664,-2.5566,-2.4883,-2.4336,-2.4141,-2.2793,-2.1543,-2.0664,-2.0605,-2.0605,-2.0605,-2.0605,-2.0254,-1.9473,-1.9433,-1.9035,-1.822,-1.809,-1.7978,-1.787,-1.7744,-1.7699,-1.7699,-1.7699,-1.7641,-2.2012,-2.0488,-1.9473,-2.0723,-2.0742,-2.1055,-2.3203,-2.2852,-2.25,-2.4082,-2.4394,-2.498,-2.6875,-2.7519,-2.832,0.0,-3.0351,-3.0488,-3.0859,-3.0898,-3.0898,-3.0898,-3.1211,-3.1777,-3.2617,-3.3906,-3.4844,-3.5215,-3.5703,-3.5996,-3.5996,-3.5996,-3.5996,-3.5996,-3.6484,-3.6758,-3.6758,-3.8125,-3.9004,-3.9375,-4.0234,-4.0391,-3.9922,-4.043,-4.0176,-3.9336,-3.8828,-3.8398,-3.8066,-3.8066,-3.7539,-3.6758,-3.6758,-3.6445,-3.5996,-3.5996,-3.5996,-3.5996,-3.5996,-3.5996,-3.5996,-3.5996,-3.5996,-3.5996,-3.5996,-3.5996,-3.5918,-3.5566,-3.5098,-3.4531,-3.3848,-3.293,-3.2109,-3.1738,-3.1269,-3.0898,-3.0898,-3.0898,-3.0781,-3.043,-2.9941,-2.9219,-2.7969,-2.7344,-2.6699,-2.582,-2.5703,-2.5703,-2.5703,-2.5371,-2.4961,-2.4453,-2.2891,-2.1758,-2.1387,-2.0898,-2.0605,-2.0605,-2.0605,-2.0449,-2.0078,-2.0059,-1.986,-1.9418,-1.9372,-1.9301,-1.9201,-1.9206,-1.9215,-1.9215,-1.9215,-1.9215,-2.3477,-2.2637,-2.2051,-2.2676,-2.3027,-2.3262,-2.3477,-2.3496,-2.3711,-2.457,-2.4941,-2.5703,-2.7598,-2.8144,-2.8789,-3.0293,-3.0547,-3.0625,-3.0879,-3.0898,-3.0898,-3.0898,-3.0898,-3.1152,-3.1777,-3.3359,-3.4434,-3.4687,-3.5508,-3.5996,-3.5996,-3.5996,-3.5996,-3.5996,-3.6855,-3.7305,-3.7305,-3.9023,-3.9902,-3.9902,-4.0781,-4.0879,-4.0273,-4.0918,-4.0859,-4.0215,-3.959,-3.918,-3.8965,-3.8965,-3.8301,-3.7305,-3.7305,-3.6777,-3.5996,-3.5996,-3.5996,-3.5996,-3.5996,-3.5996,-3.5996,-3.5996,-3.5996,-3.5996,-3.5996,-3.5996,-3.5996,-3.5996,-3.5547,-3.5,-3.4766,-3.3809,-3.2773,-3.2305,-3.1719,-3.1191,-3.0957,-3.0898,-3.0898,-3.0898,-3.0391,-2.9687,-2.8809,-2.7949,-2.7051,-2.6191,-2.5859,-2.5703,-2.5703,-2.5703,-2.5371,-2.4492,-2.3301,-2.248,-2.2246,-2.1445,-2.0957,-2.0957,-2.0723,-2.0605,-2.0605,-2.0605,-2.0564,-2.0508,-2.0434,-2.0361,-2.031,-2.0299,-2.0308,-2.0308,-2.0308,-2.0308,-2.1152,-2.1309,-2.1914,-2.1934,-2.2578,-2.3398,-2.4199,-2.4355,-2.4609,-2.5488,-2.6328,-2.6953,-2.7012,-2.7734,-2.8594,-2.9492,-2.9648,-2.9922,-3.0781,-3.0898,-3.0898,-3.0898,-3.0898,-3.0918,0.0,-3.2461,-3.3789,-3.4648,-3.5508,-3.5996,-3.5996,-3.5996,-3.5996,-3.5996,-3.6855,-3.7305,-3.7305,-3.9023,-3.9902,-3.9902,-4.0781,-4.1191,-4.1152,-4.1191,-4.1191,-4.1152,-4.1133,-4.0644,-3.9863,-3.9863,-3.8848,-3.7305,-3.7305,-3.6777,-3.5996,-3.5996,-3.5996,-3.5996,-3.5996,-3.5996,-3.5996,-3.5996,-3.5996,-3.5996,-3.5996,-3.5996,-3.5996,-3.5996,-3.5976,-3.5762,-3.4922,-3.4668,-3.4219,-3.2598,-3.2187,-3.1934,-3.1074,-3.0898,-3.0898,-3.0898,-3.0879,-3.0586,-2.9707,-2.8848,-2.7969,-2.709,-2.623,-2.5703,-2.5703,-2.5703,-2.5371,-2.4492,-2.4355,-2.3984,-2.3144,-2.2324,-2.1855,-2.1855,-2.1074,-2.0605,-2.0605,-2.0605,-2.0564,-2.0508,-2.0434,-2.0361,-2.031,-2.0299,-2.0308,-2.0308,-2.0308,-2.0308,-2.3828,-2.3398,-2.3027,-2.4141,-2.4219,-2.4219,-2.5078,-2.5254,-2.5352,-2.5644,-2.5937,-2.6309,-2.6894,-2.7246,-2.791,-2.9355,-2.9609,-2.9902,-3.0781,-3.0898,-3.0898,-3.0898,-3.0898,0.0,0.0,0.0,0.0,-3.3789,-3.4648,-3.5391,-3.5976,-3.5996,-3.5996,-3.5996,-3.7402,-3.8164,-3.8164,-3.9883,-4.0762,-4.0762,-4.1055,-4.1191,-4.1191,-4.1191,-4.1191,-4.1191,-4.1191,-4.1035,-4.0762,-4.0762,-4.0078,-3.9023,-3.9023,-3.8144,-3.6855,-3.6855,-3.6504,-3.5996,-3.5996,-3.5996,-3.5996,-3.5996,-3.5996,-3.5996,-3.5996,-3.5996,-3.5996,-3.5996,-3.5996,-3.5937,-3.5644,-3.5137,-3.4551,-3.3984,-3.3008,-3.2129,-3.1836,-3.1309,-3.0898,-3.0898,-3.0898,-3.0625,-2.9746,-2.9355,-2.8672,-2.7226,-2.6269,-2.5703,-2.5703,-2.5703,-2.5586,-2.5293,-2.4746,-2.4277,-2.3984,-2.3223,-2.2754,-2.2754,-2.1934,-2.1465,-2.1465,-2.0918,-2.0564,-2.0508,-2.0434,-2.0361,-2.031,-2.0299,-2.0308,-2.0308,-2.0308,-2.0308,-2.4922,-2.4453,-2.3965,-2.5352,-2.5273,-2.5019,-2.5566,-2.5469,-2.5234,-2.5234,-2.5234,-2.541,-2.5977,-2.6328,-2.7109,-2.8848,-2.9141,-2.9551,-3.0723,-3.0898,-3.0898,-3.0898,-3.1172,-3.1367,0.0,0.0,0.0,-3.3359,-3.4492,-3.541,-3.5976,-3.5996,-3.6133,-3.6445,-3.7851,-3.875,-3.9062,-4.0488,-4.1191,-4.1191,-4.1191,-4.1191,-4.1191,-4.1191,-4.1191,-4.1191,-4.1191,-4.1191,-4.1191,-4.1191,-4.0684,-3.9902,-3.9902,-3.9023,-3.7734,-3.7402,-3.6953,-3.6426,-3.6113,-3.5996,-3.5996,-3.5996,-3.5996,-3.5996,-3.5996,-3.5996,-3.5996,-3.5996,-3.5996,-3.5996,-3.5996,-3.5586,-3.5098,-3.4766,-3.3633,-3.2559,-3.2266,-3.1523,-3.0898,-3.0898,-3.0898,-3.0723,-3.0156,-2.9551,-2.8652,-2.7226,-2.6269,-2.5703,-2.5703,-2.5703,-2.5703,-2.5703,-2.5195,-2.4863,-2.4863,-2.4102,-2.3633,-2.3633,-2.2812,-2.2344,-2.2363,-2.1797,-2.1484,-2.1477,-2.1081,-2.1027,-2.1308,-2.095,-2.0923,-2.122,-2.0889,-2.0904,-2.4473,-2.4492,-2.4727,-2.5508,-2.5703,-2.5684,-2.5644,-2.498,-2.4394,-2.4336,-2.4336,-2.4336,-2.4336,-2.5059,-2.6191,-2.7949,-2.8262,-2.8906,-3.0644,-3.0937,-3.0976,-3.0976,-3.1738,-3.2266,0.0,0.0,0.0,-3.3476,0.0,-3.5957,-3.5996,-3.5996,-3.6387,-3.7207,-3.8125,-3.9004,-3.9824,-4.0742,-4.1191,-4.1191,-4.1191,-4.1191,-4.1191,-4.1191,-4.1191,-4.1191,-4.1191,-4.1191,-4.1191,-4.1191,-4.0703,-3.9961,-3.9961,-3.9434,-3.8574,-3.7734,-3.7383,-3.7187,-3.6406,-3.6074,-3.5996,-3.5996,-3.5996,-3.5996,-3.5996,-3.5996,-3.5996,-3.5996,-3.5996,-3.5996,-3.5996,-3.5996,-3.5781,-3.4961,-3.4101,-3.3242,-3.2441,-3.1582,-3.0957,-3.0918,-3.0898,-3.0898,-3.0898,-2.9492,-2.8086,-2.7266,-2.6348,-2.5742,-2.5703,-2.5703,-2.5703,-2.5703,-2.5703,-2.5703,-2.5703,-2.4941,-2.4473,-2.4473,-2.3652,-2.3203,-2.3262,-2.3164,-2.3125,-2.3184,-2.2317,-2.2267,-2.3107,-2.2132,-2.2094,-2.2882,-2.1984,-2.2004,-2.5371,-2.584,-2.623,-2.5801,-2.5703,-2.5527,-2.4883,-2.4551,-2.4219,-2.3574,-2.3437,-2.3437,-2.3437,-2.4141,-2.5293,-2.7051,-2.7871,0.0,-3.0644,-3.1465,-3.1875,-3.1875,-3.2598,-3.3086,-3.3086,-3.3867,0.0,0.0,-3.4785,-3.5312,-3.5976,-3.5996,-3.6094,-3.6328,-3.7812,-3.8711,-3.8926,-4.0449,-4.1191,-4.1191,-4.1191,-4.1191,-4.1191,-4.1191,-4.1191,-4.1191,-4.1191,-4.1191,-4.1191,-4.1191,-4.1074,-4.0879,-4.0879,-4.0332,-3.9531,-3.9316,-3.8418,-3.7363,-3.7793,-3.709,-3.5996,-3.5996,-3.5996,-3.5996,-3.5996,-3.5996,-3.5996,-3.5996,-3.5996,-3.5996,-3.5996,-3.5996,-3.5937,-3.5723,-3.5,-3.4121,-3.3281,-3.2441,-3.168,-3.1035,-3.0898,-3.0898,-3.0898,-2.998,-2.9199,-2.8965,-2.7637,-2.6426,-2.5781,-2.5703,-2.5703,-2.5703,-2.5703,-2.5703,-2.5703,-2.5508,-2.5371,-2.5371,-2.4551,-2.4082,-2.4082,-2.3496,-2.3164,-2.3125,-2.2883,-2.2873,-2.3107,-2.2741,-2.2685,-2.2882,-2.2601,-2.2586,-2.6269,-2.6621,-2.6875,-2.6387,-2.5977,-2.5469,-2.4609,-2.4102,-2.3477,-2.2266,-2.2305,-2.2344,-2.1562,-2.2754,-2.4277,-2.5644,-2.6914,-2.834,-3.0078,-3.1074,-3.1777,-3.2148,-3.291,-3.3555,-3.3926,-3.4766,-3.5273,0.0,-3.5273,-3.5488,-3.5976,-3.5996,-3.6348,-3.7129,-3.8086,-3.8965,-3.9726,-4.0703,-4.1191,-4.1191,-4.1191,-4.1191,-4.1191,-4.1191,-4.1191,-4.1191,0.0,-4.1191,-4.1191,-4.1191,-4.1191,-4.1191,-4.1191,-4.0898,-4.043,-4.0039,-3.9277,-3.8398,-3.8125,-3.7383,-3.6562,-3.6562,-3.6309,-3.5996,-3.5996,-3.5996,-3.5996,-3.5996,-3.5996,-3.5996,-3.5996,-3.5996,-3.5996,-3.5996,-3.5332,-3.457,-3.4082,-3.3047,-3.1934,-3.1074,-3.0898,-3.0898,-3.0898,-3.0176,-2.9609,-2.9609,-2.8125,-2.6816,-2.6328,-2.5937,-2.5703,-2.5703,-2.5703,-2.5703,-2.5703,-2.5703,-2.5703,-2.5703,-2.5234,-2.4961,-2.4961,-2.4531,-2.4277,-2.4238,-2.3865,-2.3862,-2.4233,-2.3756,-2.3716,-2.4066,-2.3621,-2.3609,-2.7031,-2.707,-2.7148,-2.7031,-2.6269,-2.5293,-2.4434,-2.3477,-2.2324,-2.0742,-2.0937,-2.0957,-1.9551,-2.1289,-2.3262,-2.4238,-2.5859,-2.7617,-2.9355,-3.0351,-3.1269,-3.2246,-3.3086,-3.3906,-3.4785,-3.5566,-3.5996,-3.5996,-3.5996,-3.5996,-3.5996,-3.5996,-3.6758,-3.8379,-3.8535,-3.9375,-4.1016,-4.1133,-4.1191,-4.1191,-4.1191,-4.1191,-4.1191,-4.1191,-4.1191,-4.1191,0.0,0.0,-4.1191,-4.1191,-4.1191,-4.1191,-4.1191,-4.1191,-4.1113,-4.0351,-4.0,-3.9707,-3.8301,-3.7598,-3.7285,-3.7168,-3.6621,-3.5996,-3.5996,-3.5996,-3.5996,-3.5996,-3.5996,-3.5996,-3.5996,-3.5996,-3.5996,-3.5996,-3.543,-3.4844,-3.4726,-3.3379,-3.1934,-3.1074,-3.0898,-3.0898,-3.0898,-3.0273,-2.9766,-2.9766,-2.8398,-2.7305,-2.7187,-2.6309,-2.5703,-2.5703,-2.5703,-2.5703,-2.5703,-2.5703,-2.5703,-2.5703,-2.5703,-2.5703,-2.5703,-2.5703,-2.5703,-2.5703,-2.4961,-2.4941,-2.5703,-2.4872,-2.4858,-2.558,-2.4758,-2.4735,-2.7207,-2.7539,-2.7891,-2.7187,-2.5801,-2.4414,-2.3594,-2.2187,-2.0742,-1.9727,-1.9062,-1.8809,-1.9219,-2.084,-2.2617,-2.4141,-2.5859,-2.7617,-2.9355,-3.0351,-3.1465,-3.3008,-3.3945,-3.4824,-3.5684,-3.5918,0.0,0.0,0.0,-3.5996,-3.5996,-3.5996,-3.6465,-3.748,-3.8223,-3.9082,-4.0117,-4.084,-4.1191,-4.1191,-4.1191,-4.1191,-4.1191,-4.1191,-4.1191,-4.1191,0.0,0.0,-4.1191,-4.1191,-4.1191,-4.1191,-4.1191,-4.1191,-4.1172,-4.1035,-4.0527,-3.9961,-4.0371,-3.9101,-3.7187,-3.6465,-3.6113,-3.5996,-3.5996,-3.5996,-3.5996,-3.5996,-3.5996,-3.5996,-3.5996,-3.5996,-3.5996,-3.5996,-3.5879,-3.5586,-3.4863,-3.3379,-3.1934,-3.1074,-3.0898,-3.0898,-3.0898,-3.0762,-3.0664,-3.0664,-2.9805,-2.8887,-2.8164,-2.668,-2.5703,-2.5703,-2.5703,-2.5703,-2.5703,-2.5703,-2.5703,-2.5703,-2.5703,-2.5703,-2.5703,-2.5703,-2.5703,-2.5703,-2.5547,-2.5547,-2.5703,-2.5477,-2.5444,-2.558,-2.5318,-2.5277,-2.7109,-2.7305,-2.7519,-2.7109,-2.5684,-2.418,-2.334,-2.1836,-2.0215,-1.8906,-1.8281,-1.7988,-1.7949,-1.9375,-2.1113,-2.2812,-2.4531,-2.6406,-2.8613,-2.9668,-3.1016,-3.3144,-3.3769,-3.4531,-3.5879,-3.5996,-3.5996,-3.5996,0.0,-3.5996,-3.5996,-3.6426,-3.6875,-3.7285,-3.8144,-3.9023,-3.9883,-4.0312,-4.0742,-4.1191,-4.1191,-4.1191,-4.1191,-4.1191,-4.0957,-4.0527,-4.0527,0.0,-4.0527,-4.0527,-4.0781,-4.1191,-4.1127,-4.1149,-4.1191,-4.1126,-4.0875,-4.0508,-4.0019,-3.9316,-3.8359,-3.6582,-3.5996,-3.5996,-3.5996,-3.5996,-3.5996,-3.5996,-3.5996,-3.5996,-3.5996,-3.5996,-3.5996,-3.5996,-3.5996,-3.5762,-3.4883,-3.3711,-3.2578,-3.1738,-3.1211,-3.0898,-3.0898,-3.0898,-3.0898,-3.0898,-3.0156,-2.9453,-2.9023,-2.7441,-2.6191,-2.5742,-2.5703,-2.5703,-2.5703,-2.5703,-2.5703,-2.5703,-2.5703,-2.5703,-2.5703,-2.5703,-2.5703,-2.5703,-2.5703,-2.5703,-2.5703,-2.5661,-2.5658,-2.5658,-2.5552,-2.5495,-2.6992,-2.6992,-2.6953,-2.6777,-2.5547,-2.4121,-2.3086,-2.1543,-1.9883,-1.832,-1.7695,-1.7344,-1.7031,-1.8105,-1.9648,-2.1582,-2.3144,-2.4961,-2.7402,-2.8652,-3.0195,-3.2578,-3.3184,-3.4004,-3.5566,-3.5898,0.0,0.0,0.0,0.0,-3.5996,-3.6641,-3.7012,-3.7012,-3.7871,-3.873,-3.9609,-3.9805,-4.0332,-4.1191,-4.1016,-4.0918,-4.0918,-4.0702,-4.0233,-3.9588,-3.9588,0.0,0.0,-3.9568,-3.9977,-4.0579,-4.0452,-4.0597,-4.0832,-4.0742,-4.0773,-4.0658,-3.929,-3.9017,-3.8939,-3.6888,-3.6248,-3.623,-3.6055,-3.5996,-3.5996,-3.5996,-3.5996,-3.5996,-3.5996,-3.5996,-3.5996,-3.5996,-3.5996,-3.5762,-3.4883,-3.416,-3.3398,-3.2383,-3.1641,-3.1113,-3.0937,-3.0898,-3.0898,-3.0898,-3.0312,-2.9805,-2.9629,-2.8398,-2.7226,-2.6348,-2.5918,-2.5703,-2.5703,-2.5703,-2.5703,-2.5703,-2.5703,-2.5703,-2.5703,-2.5703,-2.5703,-2.5703,-2.5703,-2.5703,-2.5703,-2.5703,-2.5703,-2.5703,-2.5633,-2.5561,-2.6992,-2.6992,-2.6816,-2.6016,-2.5098,-2.3984,-2.2383,-2.0664,-1.9141,-1.8203,-1.6738,-1.6094,-1.7598,-1.8008,-1.8945,-2.1484,-2.2637,-2.3867,-2.5684,-2.7363,-2.9082,-3.0918,-3.2461,-3.3769,-3.4726,-3.5547,-3.5996,0.0,0.0,0.0,-3.5996,-3.6074,-3.6113,-3.6113,-3.6953,-3.7832,-3.8711,-3.9492,-4.0332,-4.1191,-4.0391,-4.0019,-3.998,-3.9069,-3.8606,-3.8546,0.0,0.0,0.0,-3.851,-3.8543,-3.8569,-3.854,-3.9046,-3.975,-3.9737,-3.974,-3.9711,-3.9568,-3.852,-3.7238,-3.6982,-3.7038,-3.7031,-3.623,-3.5996,-3.5996,-3.5996,-3.5996,-3.5996,-3.5996,-3.5996,-3.5996,-3.5996,-3.5996,-3.5762,-3.4883,-3.4648,-3.4101,-3.2519,-3.2148,-3.1836,-3.1035,-3.0898,-3.0898,-3.0898,-3.082,-3.0488,-2.9707,-2.9453,-2.9023,-2.8144,-2.6641,-2.5703,-2.5703,-2.5703,-2.5703,-2.5703,-2.5703,-2.5703,-2.5703,-2.5703,-2.5703,-2.5703,-2.5703,-2.5703,-2.5703,-2.5703,-2.5703,-2.5703,-2.5633,-2.5561,-2.5363,-2.5764,-2.5947,-2.5073,-2.4223,-2.3292,-2.2067,-2.0052,-1.8354,-1.8002,-1.6559,-1.5703,-1.6935,-1.7197,-1.8062,-2.064,-2.1366,-2.2363,-2.4609,-2.5508,-2.6992,-2.9785,-3.1172,-3.2637,0.0,0.0,-3.5996,0.0,0.0,0.0,-3.5996,-3.5996,-3.5996,-3.5996,-3.6348,-3.6934,-3.7812,-3.8164,-3.8729,-3.952,-3.9167,-3.8983,-3.892,-3.8524,-3.8043,-3.7553,0.0,0.0,0.0,-3.7542,-3.7851,-3.8305,-3.8259,-3.8486,-3.8808,-3.8775,-3.8777,-3.8737,-3.8224,-3.7916,-3.7702,-3.7163,-3.7055,-3.6965,-3.6085,-3.5889,-3.5944,-3.5944,-3.5944,-3.5948,-3.5996,-3.5996,-3.5996,-3.5996,-3.5996,-3.5898,-3.5566,-3.5078,-3.4355,-3.3144,-3.2539,-3.1914,-3.1055,-3.0898,-3.0898,-3.0898,-3.0898,-3.0762,-3.043,-2.9922,-2.9473,-2.9121,-2.7519,-2.6484,-2.6484,-2.5996,-2.5703,-2.5703,-2.5703,-2.5703,-2.5703,-2.5703,-2.5703,-2.5703,-2.5703,-2.5703,-2.5703,-2.5703,-2.5703,-2.5703,-2.5662,-2.5603,-2.3926,-2.436,-2.4628,-2.3757,-2.3308,-2.2699,-2.1284,-1.9577,-1.8134,-1.763,-1.6327,-1.5571,-1.6434,-1.6652,-1.7447,-1.9734,-2.0388,-2.1406,-2.3711,-2.4473,-2.5781,-2.8516,0.0,-3.1426,0.0,-3.5195,0.0,0.0,0.0,0.0,0.0,-3.5973,-3.5975,-3.5996,-3.5996,-3.6406,-3.7262,-3.7262,-3.7643,-3.8363,-3.8109,-3.7951,-3.792,-3.7638,-3.7172,-3.6585,0.0,0.0,0.0,-3.6569,-3.6938,-3.7467,-3.7425,-3.7582,-3.7812,-3.7768,-3.7795,-3.7747,-3.7117,-3.7316,-3.7685,-3.6827,-3.6738,-3.681,-3.5914,-3.5723,-3.5841,-3.5841,-3.5841,-3.5853,-3.5949,-3.5973,-3.5974,-3.5996,-3.5996,-3.5996,-3.5996,-3.5527,-3.4824,-3.3945,-3.3125,-3.2285,-3.1426,-3.1074,-3.0898,-3.0898,-3.0898,-3.0898,-3.0898,-3.0351,-2.998,-2.998,-2.8652,-2.7559,-2.7031,-2.6445,-2.5977,-2.5723,-2.5703,-2.5703,-2.5703,-2.5703,-2.5703,-2.5703,-2.5703,-2.5703,-2.5703,-2.5703,-2.5703,-2.5703,-2.5703,-2.5633,-2.3015,-2.3017,-2.282,-2.1938,-2.237,-2.2333,-1.9797,-1.9211,-1.8705,-1.6979,-1.5904,-1.5571,-1.6434,-1.6652,-1.7252,-1.8932,-1.9998,0.0,-2.2969,-2.4648,-2.6016,0.0,0.0,-3.0293,-3.2051,-3.4512,0.0,0.0,0.0,0.0,0.0,-3.5903,-3.5921,-3.5996,-3.5996,-3.6383,-3.7193,-3.7193,-3.7578,-3.8293,-3.7433,-3.7021,-3.6975,-3.6047,-3.5611,0.0,0.0,0.0,0.0,-3.559,-3.5581,-3.5526,-3.5526,-3.6026,-3.6719,-3.6719,-3.6719,-3.6719,-3.6699,-3.6699,-3.6584,-3.5776,-3.6144,-3.6726,-3.5791,-3.56,-3.5707,-3.5707,-3.5707,-3.5726,-3.5871,-3.5903,-3.5913,-3.5976,-3.5996,-3.5996,-3.5996,-3.5996,-3.5723,-3.4863,-3.3984,-3.3125,-3.2324,-3.1465,-3.0898,-3.0898,-3.0898,-3.0898,-3.0898,-3.0898,-3.0898,-3.0898,-3.0098,-2.8867,-2.7148,-2.6992,-2.6621,-2.5742,-2.5703,-2.5703,-2.5703,-2.5703,-2.5703,-2.5703,-2.5703,-2.5703,-2.5703,-2.5703,-2.5703,-2.5703,-2.5703,-2.5633,-2.1153,-2.1587,-2.1693,-2.0215,-2.054,-2.0689,-1.8631,-1.8169,-1.786,-1.6758,-1.5847,-1.5323,-1.5599,-1.5707,-1.6496,-1.8811,-1.9458,0.0,0.0,0.0,0.0,-2.6763,-2.9961,-3.2517,0.0,0.0,0.0,0.0,0.0,0.0,0.0,-3.5764,-3.5775,-3.5797,-3.5797,-3.5924,-3.6175,-3.6175,-3.6271,-3.6459,-3.6182,-3.6018,-3.596,-3.5669,0.0,0.0,0.0,0.0,0.0,-3.5522,-3.5515,-3.55,-3.55,-3.5654,-3.5885,-3.5885,-3.5885,-3.5885,-3.5885,-3.5885,-3.5923,-3.6212,-3.6157,-3.5997,-3.6232,-3.6006,-3.5635,-3.5635,-3.5652,-3.571,-3.5758,-3.5836,-3.5905,-3.5938,-3.5972,-3.5996,-3.5996,-3.5996,-3.5742,-3.4863,-3.4473,-3.3848,-3.2441,-3.1973,-3.1582,-3.0996,-3.0898,-3.0898,-3.0898,-3.0898,-3.0898,-3.0898,-3.0644,-3.0019,-2.8867,-2.7676,-2.6875,-2.6602,-2.6035,-2.5703,-2.5703,-2.5703,-2.5703,-2.5703,-2.5703,-2.5703,-2.5703,-2.5703,-2.5703,-2.5703,-2.5659,-2.5605,-1.9234,-1.9712,-1.9864,-1.8791,-1.8944,-1.9017,-1.7562,-1.7257,-1.7007,-1.6176,-1.5577,-1.5192,-1.5192,-1.5492,-1.6392,-1.8341,-1.8978,-2.0113,0.0,0.0,0.0,-2.7108,0.0,0.0,0.0,0.0,0.0,0.0,0.0,0.0,0.0,-3.5667,-3.5646,-3.5621,-3.5667,-3.5689,-3.5667,-3.5667,-3.5626,-3.5562,-3.5562,-3.5547,-3.55,-3.55,0.0,0.0,0.0,0.0,0.0,-3.55,-3.55,-3.55,-3.55,-3.55,-3.55,-3.55,-3.55,-3.55,-3.55,-3.5692,-3.5981,-3.6173,-3.5904,-3.5596,-3.6096,-3.5926,-3.5562,-3.5562,-3.5595,-3.563,-3.5655,-3.5712,-3.58,-3.5827,-3.5861,-3.5902,-3.5951,-3.5952,-3.5817,-3.5293,-3.4922,-3.4258,-3.2891,-3.2402,-3.1894,-3.1035,-3.0898,-3.0898,-3.0898,-3.0898,-3.0898,-3.0898,-3.0898,-3.0684,-3.0137,-2.8496,-2.7344,-2.7012,-2.6172,-2.5703,-2.5703,-2.5703,-2.5703,-2.5703,-2.5703,-2.5703,-2.5703,-2.5703,-2.5703,-2.5703,-2.5633,-2.5602,0.0,-1.7564,-1.7603,-1.7545,-1.7564,-1.7391,-1.658,-1.6468,0.0,-1.5385,-1.5192,-1.5231,-1.5365,-1.5997,-1.6842,-1.7891,-1.8809,0.0,0.0,-2.3886,0.0,0.0,-2.9684,0.0,0.0,0.0,0.0,0.0,0.0,0.0,0.0,0.0,-3.5568,-3.5507,-3.5611,-3.5659,-3.5595,-3.5595,-3.5562,-3.55,-3.55,-3.55,-3.55,-3.55,0.0,0.0,0.0,0.0,0.0,-3.55,-3.55,-3.55,-3.55,-3.55,-3.55,-3.55,-3.55,-3.55,-3.55,-3.5981,-3.6481,-3.5731,-3.55,-3.55,-3.55,-3.55,-3.55,-3.55,-3.55,-3.5502,-3.5577,-3.56,-3.5621,-3.5675,-3.57,-3.5726,-3.5867,-3.5896,-3.591,-3.5974,-3.5332,-3.4511,-3.3633,-3.2812,-3.1992,-3.1113,-3.0937,-3.0898,-3.0898,-3.0898,-3.0898,-3.0898,-3.0898,-3.0898,-3.0898,-2.9355,-2.8027,-2.7148,-2.6269,-2.5762,-2.5703,-2.5703,-2.5703,-2.5703,-2.5703,-2.5703,-2.5703,-2.5703,-2.5703,-2.5703,-2.5635,-2.5604,-1.5731,0.0,-1.6619,-1.5945,-1.6292,-1.6561,0.0,-1.6022,-1.6253,-1.5385,-1.5192,-1.5596,-1.6888,-1.6775,-1.7415,-2.0244,-2.0887,-2.1731,-2.372,-2.5783,0.0,-2.9636,-3.0793,0.0,0.0,0.0,0.0,0.0,0.0,0.0,0.0,0.0,-3.5528,-3.55,-3.5522,-3.5547,-3.5528,-3.5528,-3.5521,-3.55,-3.55,-3.55,-3.55,-3.55,0.0,0.0,0.0,0.0,-3.55,-3.55,-3.55,-3.55,-3.55,-3.55,-3.55,-3.55,-3.55,-3.55,-3.55,-3.5615,-3.575,-3.5558,-3.55,-3.55,-3.55,-3.55,-3.55,-3.55,-3.55,-3.5488,-3.5515,-3.5562,-3.5596,-3.5631,-3.5667,-3.571,-3.5729,-3.5755,-3.5761,-3.5777,-3.5699,-3.533,-3.447,-3.3648,-3.2832,-3.2012,-3.1328,-3.0898,-3.0898,-3.0898,-3.0898,-3.0898,-3.0898,-3.0898,-3.0898,-2.9902,-2.8926,-2.8047,-2.7187,-2.6406,-2.5723,-2.5703,-2.5703,-2.5703,-2.5703,-2.5703,-2.5703,-2.5703,-2.5703,-2.5703,-2.5683,-2.5682,-1.4593,-1.5538,-1.6388,-1.5907,-1.6157,-1.6388,-1.5907,-1.5849,-1.5772,-1.5308,-1.5192,-1.5596,-1.691,-1.7103,-1.7912,-2.0569,-2.131,0.0,0.0,0.0,-2.856,-3.0198,-3.0827,0.0,0.0,0.0,0.0,0.0,0.0,0.0,0.0,0.0,-3.4911,-3.4911,-3.5288,-3.55,-3.55,-3.55,-3.55,-3.55,-3.55,-3.55,-3.55,-3.55,0.0,0.0,0.0,0.0,-3.55,-3.55,-3.55,-3.55,-3.55,-3.55,-3.55,-3.55,-3.55,-3.55,-3.55,-3.55,-3.55,-3.55,-3.55,-3.55,-3.55,-3.55,-3.55,-3.55,-3.55,-3.55,-3.55,-3.5534,-3.5544,-3.5544,-3.5588,-3.5621,-3.5642,-3.5655,-3.5671,-3.5696,-3.5761,-3.5541,-3.4745,-3.4239,-3.3687,-3.2871,-3.2031,-3.1504,-3.1504,-3.1152,-3.0898,-3.0898,-3.0898,-3.0898,-3.0898,-3.0469,-2.9648,-2.8379,-2.7851,-2.7031,-2.5742,-2.6074,-2.6113,-2.5703,-2.5703,-2.5703,-2.5703,-2.5703,-2.5703,-2.5703,-2.5703,-2.5703,-1.4033,-1.5269,-1.6465,-1.633,-1.6407,-1.6465,-1.633,-1.5734,-1.5192,-1.5192,-1.5308,-1.5692,-1.6699,-1.7545,-1.8657,-2.0408,0.0,0.0,-2.6351,-2.7544,-2.8659,-3.0212,0.0,0.0,0.0,0.0,0.0,0.0,0.0,0.0,0.0,0.0,0.0,-3.3994,-3.4853,-3.5308,-3.5308,-3.5423,-3.55,-3.55,-3.55,-3.55,-3.55,-3.55,-3.55,0.0,0.0,0.0,-3.55,-3.55,-3.55,-3.55,-3.55,-3.55,-3.55,-3.55,-3.55,-3.55,-3.55,-3.55,-3.55,-3.55,-3.55,-3.55,-3.55,-3.55,-3.55,-3.55,-3.55,-3.55,-3.55,-3.55,-3.55,-3.55,-3.55,-3.5521,-3.5566,-3.5574,-3.5591,-3.5663,-3.5671,-3.5493,-3.4852,-3.4653,-3.4341,-3.3666,-3.2771,-3.2167,-3.2167,-3.1426,-3.0898,-3.0898,-3.0898,-3.0898,-3.0898,-3.0898,-3.0215,-2.8594,-2.8496,-2.7773,-2.6152,-2.668,-2.6641,-2.5918,-2.5762,-2.5703,-2.5703,-2.5703,-2.5703,-2.5703,-2.5703,-2.5703,-1.4615,-1.5734,-1.6311,-1.5577,-1.5945,-1.6311,-1.5577,-1.5308,-1.5192,-1.5192,-1.5792,-1.6776,-1.8337,-1.9315,-2.0446,-2.2139,0.0,-2.5423,0.0,0.0,-2.9294,0.0,0.0,0.0,0.0,0.0,0.0,0.0,0.0,0.0,0.0,0.0,0.0,-3.3103,-3.3949,-3.4398,-3.4398,-3.5135,-3.55,-3.55,-3.55,-3.55,-3.55,-3.55,-3.55,0.0,0.0,-3.55,-3.55,-3.55,-3.55,-3.55,-3.55,-3.55,-3.55,-3.55,-3.55,-3.55,-3.55,-3.55,-3.55,-3.55,-3.55,-3.55,-3.55,-3.55,-3.55,-3.55,-3.55,-3.55,-3.55,-3.55,-3.55,-3.55,-3.55,-3.5507,-3.5515,-3.5521,-3.5509,-3.5541,-3.5577,-3.5587,-3.547,-3.4925,-3.4474,-3.435,-3.3011,-3.2022,-3.2022,-3.1362,-3.0898,-3.0898,-3.0898,-3.0898,-3.0898,-3.0898,-3.0469,-2.9453,-2.9394,-2.8945,-2.7949,-2.7324,-2.6934,-2.6797,-2.6074,-2.5703,-2.5703,-2.5703,-2.5703,-2.5703,-2.5703,-2.5703,-1.364,-1.4791,-1.5811,-1.5888,-1.6872,-1.7757,-1.7334,-1.7257,-1.7257,-1.7257,-1.7946,-1.8927,-2.0123,-2.1062,-2.235,-2.4505,0.0,-2.6601,-2.8319,-2.8876,0.0,0.0,0.0,0.0,0.0,0.0,0.0,0.0,0.0,0.0,0.0,0.0,0.0,0.0,-3.3064,-3.3506,-3.3506,-3.3891,-3.4577,-3.55,-3.55,-3.55,-3.55,-3.55,-3.55,-3.55,0.0,-3.55,-3.55,-3.55,-3.55,-3.55,-3.55,-3.55,-3.55,-3.55,-3.55,-3.55,-3.55,-3.55,-3.55,-3.55,-3.55,-3.55,-3.55,-3.55,-3.55,-3.55,-3.55,-3.55,-3.55,-3.55,-3.55,-3.55,-3.55,-3.55,-3.55,-3.55,-3.55,-3.55,-3.5528,-3.555,-3.5595,-3.5325,-3.5111,-3.5148,-3.411,-3.3363,-3.3395,-3.2284,-3.1517,-3.1582,-3.1172,-3.0898,-3.0898,-3.0898,-3.0723,-3.0332,-2.9414,-2.8926,-2.9004,-2.8164,-2.7695,-2.7695,-2.6855,-2.6406,-2.6406,-2.5937,-2.5703,-2.5703,-2.5703,-2.5703,-1.287,-1.3926,-1.5154,-1.6234,-1.7468,-1.8453,-1.8645,-1.8549,-1.853,-1.8915,-1.97,-2.0558,-2.135,-2.237,0.0,-2.6217,-2.6774,-2.7428,-2.8896,0.0,0.0,0.0,0.0,0.0,0.0,0.0,0.0,0.0,0.0,0.0,0.0,0.0,0.0,0.0,-3.2199,-3.2622,-3.2622,-3.2814,-3.368,-3.5192,-3.5192,-3.5308,-3.55,-3.55,-3.55,-3.55,-3.55,-3.55,-3.55,-3.55,-3.55,-3.55,-3.55,-3.55,-3.55,-3.55,-3.55,-3.55,-3.55,-3.55,-3.55,-3.55,-3.55,-3.55,-3.55,-3.55,-3.55,-3.55,-3.55,-3.55,-3.55,-3.55,-3.55,-3.55,-3.55,-3.55,-3.55,-3.55,-3.55,-3.55,-3.55,-3.5528,-3.5579,-3.5577,-3.5595,-3.5657,-3.4968,-3.4402,-3.4233,-3.2905,-3.1937,-3.1853,-3.1248,-3.0878,-3.0898,-3.0898,-3.0898,-3.0898,-2.9648,-2.9219,-2.9883,-2.9062,-2.8594,-2.8594,-2.7754,-2.7305,-2.7305,-2.6426,-2.5996,-2.5996,-2.5801,-2.5703,-1.3382,-1.3898,-1.4401,-1.608,-1.6583,-1.6872,-1.7622,-1.7218,-1.7122,-1.8684,-1.97,-2.0558,-2.135,-2.2874,-2.4586,-2.6313,-2.7274,-2.8107,0.0,0.0,0.0,0.0,0.0,0.0,0.0,0.0,0.0,0.0,0.0,0.0,0.0,0.0,0.0,0.0,0.0,-3.1795,-3.1795,-3.2526,-3.3372,-3.4302,-3.4302,-3.4718,-3.55,-3.55,-3.55,-3.55,-3.55,-3.55,-3.55,-3.55,-3.55,-3.55,-3.55,-3.55,-3.55,-3.55,-3.55,-3.55,-3.55,-3.55,-3.55,-3.55,-3.55,-3.55,-3.55,-3.55,-3.55,-3.55,-3.55,-3.55,-3.55,-3.55,-3.55,-3.55,-3.55,-3.55,-3.55,-3.55,-3.55,-3.55,-3.55,-3.5507,-3.552,-3.5501,-3.5508,-3.5521,-3.4828,-3.4018,-3.3219,-3.2419,-3.1629,-3.089,-3.0757,-3.0769,-3.0898,-3.0898,-3.0898,-3.0898,-3.0781,-3.0742,-3.0801,-2.9961,-2.9512,-2.9512,-2.8652,-2.8203,-2.8203,-2.7324,-2.6914,-2.6894,-2.6074,-2.5703,-1.2986,-1.3519,-1.4324,-1.6061,-1.6872,-1.7468,-1.8318,-1.9508,-2.0604,-2.122,-2.2447,-2.35,-2.3808,-2.4404,-2.5236,-2.6409,-2.7332,0.0,0.0,0.0,0.0,0.0,0.0,0.0,0.0,0.0,0.0,0.0,0.0,0.0,0.0,0.0,0.0,0.0,0.0,-3.0885,-3.0885,-3.1192,-3.1775,-3.2641,-3.3141,-3.3564,-3.391,-3.4449,-3.468,-3.4718,-3.525,-3.55,-3.55,-3.55,-3.55,-3.55,-3.55,-3.55,-3.55,-3.55,-3.55,-3.55,-3.55,-3.55,-3.55,-3.55,-3.55,-3.55,-3.55,-3.55,-3.55,-3.55,-3.55,-3.55,-3.55,-3.55,-3.55,-3.55,-3.55,-3.55,-3.55,-3.55,-3.55,-3.55,-3.55,-3.55,-3.55,-3.55,-3.55,-3.55,-3.5245,-3.4934,-3.4642,-3.3431,-3.2509,-3.2274,-3.132,-3.072,-3.077,-3.0858,-3.0898,-3.0898,-3.0898,-3.0898,-3.0898,-3.0586,-3.041,-3.041,-2.9551,-2.8848,-2.8301,-2.7969,-2.7539,-2.7012,-2.7226,-2.7324,-1.2777,-1.3291,-1.4244,-1.5715,-1.691,-1.8007,-1.9142,-2.0758,-2.2158,-2.2682,-2.3928,-2.5,-2.525,-2.5096,0.0,0.0,0.0,0.0,0.0,0.0,0.0,0.0,0.0,0.0,0.0,0.0,0.0,0.0,0.0,0.0,0.0,0.0,0.0,0.0,0.0,-3.0404,-3.0404,-3.0404,-3.0692,-3.1288,-3.1852,-3.2391,-3.291,-3.3526,-3.3801,-3.384,-3.4718,-3.5084,-3.5122,-3.5385,-3.55,-3.55,-3.55,-3.55,-3.55,-3.55,-3.55,-3.55,-3.55,-3.55,-3.55,-3.55,-3.55,-3.55,-3.55,-3.55,-3.55,-3.55,-3.55,-3.55,-3.55,-3.55,-3.55,-3.55,-3.55,-3.55,-3.55,-3.55,-3.55,-3.55,-3.55,-3.55,-3.55,-3.55,-3.55,-3.55,-3.55,-3.5412,-3.5181,-3.4124,-3.3224,-3.2807,-3.1493,-3.068,-3.0693,-3.0772,-3.0858,-3.0898,-3.0858,-3.0858,-3.0898,-3.0898,-3.0898,-3.0898,-3.0312,-2.9726,-2.9121,-2.8848,-2.8398,-2.7832,-2.8144,-2.8301,-1.2931,-1.3291,-1.411,-1.5,-1.6484,-1.818,-1.9923,-2.0327,-2.0788,-2.2489,-2.3509,-2.4356,-2.5154,-2.4639,0.0,-2.6313,0.0,0.0,0.0,0.0,0.0,0.0,0.0,0.0,0.0,0.0,0.0,0.0,0.0,0.0,0.0,0.0,0.0,0.0,0.0,0.0,-3.0404,-3.0404,-3.0404,-3.0404,-3.0404,-3.1269,-3.2872,-3.2872,-3.2891,-3.2949,-3.3821,-3.4186,-3.4263,-3.5141,-3.5481,-3.55,-3.55,-3.55,-3.55,-3.55,-3.55,-3.55,-3.55,-3.55,-3.55,-3.55,-3.55,-3.55,-3.55,-3.55,-3.55,-3.55,-3.55,-3.55,-3.55,-3.55,-3.55,-3.55,-3.55,-3.55,-3.55,-3.55,-3.55,-3.55,-3.55,-3.55,-3.55,-3.55,-3.55,-3.55,-3.55,-3.5192,-3.4321,-3.4186,-3.3569,-3.1971,-3.1075,-3.0633,-3.069,-3.0695,-3.0767,-3.0898,-3.077,-3.0768,-3.0898,-3.0898,-3.0898,-3.0898,-3.0898,-3.0898,-3.0898,-3.0039,-2.9609,-2.957,-2.8711,-2.832,-1.2743,-1.3733,-1.5019,-1.5907,-1.785,-1.9812,-2.0904,-2.162,-2.2524,-2.4212,-2.475,-2.5019,-2.5269,-2.5096,0.0,0.0,0.0,0.0,0.0,0.0,0.0,0.0,0.0,0.0,0.0,0.0,0.0,0.0,0.0,0.0,0.0,0.0,0.0,0.0,0.0,0.0,-3.0404,-3.0404,-3.0404,-3.0404,-3.0404,-3.0654,-3.1154,-3.1775,-3.2064,-3.2102,-3.2929,-3.3295,-3.3353,-3.4237,-3.4949,-3.55,-3.55,-3.55,-3.55,-3.55,-3.55,-3.55,-3.55,-3.55,-3.55,-3.55,-3.55,-3.55,-3.55,-3.55,-3.55,-3.55,-3.55,-3.55,-3.55,-3.55,-3.55,-3.55,-3.55,-3.55,-3.55,-3.55,-3.55,-3.55,-3.55,-3.55,-3.55,-3.55,-3.55,-3.55,-3.55,-3.5192,-3.4321,-3.366,-3.2891,-3.184,-3.1018,-3.0541,-3.0554,-3.0609,-3.0663,-3.0746,-3.0671,-3.0665,-3.0767,-3.0768,-3.0768,-3.0768,-3.0858,-3.0605,-2.998,-3.0332,-3.0195,-2.9609,-2.9961,-3.0137,-1.3588,-1.4676,-1.6003,-1.7199,-1.8642,-2.0177,-2.1677,-2.2682,-2.3682,-2.5038,-2.5058,-2.4928,-2.525,-2.5038,0.0,0.0,0.0,0.0,0.0,0.0,0.0,0.0,0.0,0.0,0.0,0.0,0.0,0.0,0.0,0.0,0.0,0.0,0.0,0.0,0.0,0.0,-3.0404,-3.0404,-3.0404,-3.0404,-3.0404,-3.0404,-3.0423,-3.0942,-3.1173,-3.1231,-3.2064,-3.2795,-3.3449,-3.3975,-3.4718,-3.55,-3.55,-3.55,-3.55,-3.55,-3.55,-3.55,-3.55,-3.55,-3.55,-3.55,-3.55,-3.55,-3.55,-3.55,-3.55,-3.55,-3.55,-3.55,-3.55,-3.55,-3.55,-3.55,-3.55,-3.55,-3.55,-3.55,-3.55,-3.55,-3.55,-3.55,-3.55,-3.55,-3.55,-3.55,-3.55,-3.5308,-3.4776,-3.3949,-3.3103,-3.2275,-3.1452,-3.0849,-3.0537,-3.0541,-3.0594,-3.0663,-3.0603,-3.0578,-3.0628,-3.0655,-3.0677,-3.0695,-3.0771,-3.0584,-3.0117,-3.0644,-3.0625,-3.0137,-3.0664,-3.0898,-1.4843,-1.5772,-1.6891,-1.8588,-1.9107,-1.9858,-2.2259,-2.3471,-2.4336,-2.5135,-2.4716,-2.4432,-2.5173,-2.4697,0.0,0.0,0.0,0.0,0.0,0.0,0.0,0.0,0.0,0.0,0.0,0.0,0.0,0.0,0.0,0.0,0.0,0.0,0.0,0.0,0.0,0.0,-3.0404,-3.0404,-3.0404,0.0,-3.0404,-3.0404,-3.0404,-3.0404,-3.0404,-3.0442,-3.1231,-3.2487,-3.3975,-3.4052,-3.4603,-3.5385,-3.5462,-3.55,-3.55,-3.55,-3.55,-3.55,-3.55,-3.55,-3.55,-3.55,-3.55,-3.55,-3.55,-3.55,-3.55,-3.55,-3.55,-3.55,-3.55,-3.55,-3.55,-3.55,-3.55,-3.55,-3.55,-3.55,-3.55,-3.55,-3.55,-3.55,-3.55,-3.55,-3.55,-3.55,-3.55,-3.55,-3.55,-3.4737,-3.3898,-3.3103,-3.2237,-3.1405,-3.0665,-3.0543,-3.0513,-3.0587,-3.0525,-3.049,-3.0498,-3.0551,-3.0628,-3.0682,-3.0687,-3.0745,-3.0879,-3.0879,-3.0898,-3.0898,-3.0898,-3.0898,-1.392,-1.5327,-1.6891,-1.8588,-1.9988,-2.1293,-2.2528,-2.3471,-2.4336,-2.5135,-2.5154,-2.5096,-2.5269,0.0,0.0,0.0,0.0,0.0,0.0,0.0,0.0,0.0,0.0,0.0,0.0,0.0,0.0,0.0,0.0,0.0,0.0,0.0,0.0,0.0,0.0,-3.0404,-3.0404,-3.0404,-3.0404,0.0,-3.0404,-3.0404,-3.0404,-3.0404,-3.0404,-3.0404,-3.0596,-3.1269,-3.2295,-3.291,-3.368,-3.4545,-3.5231,-3.55,-3.55,-3.55,-3.55,-3.55,-3.55,-3.55,-3.55,-3.55,-3.55,-3.55,-3.55,-3.55,-3.55,-3.55,-3.55,-3.55,-3.55,-3.55,-3.55,-3.55,-3.55,-3.55,-3.55,-3.55,-3.55,-3.55,-3.55,-3.55,-3.55,-3.55,-3.55,-3.55,-3.55,-3.55,-3.55,-3.4737,-3.4129,-3.3936,-3.2583,-3.1634,-3.1457,-3.0802,-3.0456,-3.0528,-3.0457,-3.0451,-3.0498,-3.0505,-3.0529,-3.0533,-3.06,-3.0661,-3.0745,-3.0745,-3.0793,-3.0898,-3.0898,-3.0898,-1.413,-1.5754,-1.7487,-1.92,-2.0562,-2.162,-2.2062,-2.3163,-2.4221,-2.4639,-2.5019,-2.5308,-2.5308,0.0,0.0,0.0,0.0,0.0,0.0,0.0,0.0,0.0,0.0,0.0,0.0,0.0,0.0,0.0,0.0,0.0,0.0,0.0,0.0,0.0,-2.9775,-2.9987,-3.0404,-3.0404,-3.0404,-3.0404,-3.0404,-3.0404,-3.0404,-3.0404,-3.0404,-3.0404,-3.0404,-3.0885,-3.1756,-3.2564,-3.341,-3.4282,-3.5154,-3.55,-3.55,-3.55,-3.55,-3.55,-3.55,-3.55,-3.55,-3.55,-3.55,-3.55,-3.55,-3.55,-3.55,-3.55,-3.55,-3.55,-3.55,-3.55,-3.55,-3.55,-3.55,-3.55,-3.55,-3.55,-3.55,-3.55,-3.55,-3.55,-3.55,-3.55,-3.55,-3.55,-3.55,-3.55,-3.55,-3.5103,-3.4661,-3.4244,-3.3045,-3.2122,-3.1737,-3.0904,-3.0419,-3.0462,-3.0411,-3.0419,-3.0442,-3.0442,-3.0477,-3.0498,-3.0537,-3.0609,-3.0695,-3.0695,-3.077,-3.0898,-3.0898,-3.0898,-1.4243,-1.6137,-1.8122,-1.9865,-2.0808,-2.1331,-2.1466,-2.2624,-2.3744,-2.4033,-2.4736,-2.5308,0.0,0.0,0.0,0.0,0.0,0.0,0.0,0.0,0.0,0.0,0.0,0.0,0.0,0.0,0.0,0.0,0.0,0.0,0.0,0.0,-2.8049,-2.8876,-2.903,-2.9448,-3.0173,-3.0327,-3.0404,-3.0404,-3.0404,-3.0404,-3.0404,-3.0404,-3.0404,-3.0404,-3.0404,-3.0808,-3.1545,-3.2352,-3.3122,-3.3878,-3.4891,-3.5269,-3.5288,-3.5442,-3.55,-3.55,-3.55,-3.55,-3.55,-3.55,-3.55,-3.55,-3.55,-3.55,-3.55,-3.55,-3.55,-3.55,-3.55,-3.55,-3.55,-3.55,-3.55,-3.55,-3.55,-3.55,-3.55,-3.55,-3.55,-3.55,-3.55,-3.55,-3.55,-3.55,-3.55,-3.55,-3.55,-3.55,-3.5212,-3.4507,-3.3641,-3.2795,-3.1987,-3.1115,-3.0558,-3.0404,-3.0404,-3.0404,-3.0404,-3.0404,-3.0428,-3.0486,-3.0486,-3.0533,-3.0671,-3.068,-3.0743,-3.0878,-3.0898,-3.0898,-1.2609,-1.5229,-1.8122,-1.9865,-2.0385,-2.0635,-2.135,-2.1677,-2.2274,0.0,-2.4736,0.0,0.0,0.0,0.0,0.0,0.0,0.0,0.0,0.0,0.0,0.0,0.0,0.0,0.0,0.0,0.0,0.0,0.0,0.0,0.0,-2.6717,-2.7178,-2.803,-2.8742,-2.9165,-2.928,-3.0019,-3.0404,-3.0404,-3.0404,-3.0404,-3.0404,-3.0404,-3.0404,-3.0404,-3.0404,-3.0462,-3.0635,-3.1506,-3.1929,-3.2199,-3.3757,-3.4379,-3.4468,-3.5212,-3.55,-3.55,-3.55,-3.55,-3.55,-3.55,-3.55,-3.55,-3.55,-3.55,-3.55,-3.55,-3.55,-3.55,-3.55,-3.55,-3.55,-3.55,-3.55,-3.55,-3.55,-3.55,-3.55,-3.55,-3.55,-3.55,-3.55,-3.55,-3.55,-3.55,-3.55,-3.55,-3.55,-3.55,-3.5462,-3.5346,-3.4545,-3.3686,-3.2814,-3.1987,-3.1192,-3.0442,-3.0404,-3.0404,-3.0404,-3.0404,-3.0396,-3.0414,-3.0414,-3.0442,-3.0525,-3.0587,-3.0655,-3.0722,-3.0857,-3.0898,-1.3986,-1.5689,-1.7259,-1.8935,-1.9735,-2.0109,-2.0007,-2.0779,-2.1716,-2.2489,0.0,0.0,0.0,0.0,0.0,0.0,0.0,0.0,0.0,0.0,0.0,0.0,0.0,0.0,0.0,0.0,0.0,0.0,0.0,0.0,-2.5846,-2.5865,-2.6269,-2.714,-2.7505,-2.7928,-2.8415,-2.9256,-2.9929,-3.0404,-3.0404,-3.0404,-3.0404,-3.0404,-3.0404,-3.0404,-3.0404,-3.0404,-3.0462,-3.1346,-3.1698,-3.1872,-3.3551,-3.4205,-3.4321,-3.5173,-3.55,-3.55,-3.55,-3.55,-3.55,-3.55,-3.55,-3.55,-3.55,-3.55,-3.55,-3.55,-3.55,-3.55,-3.55,-3.55,-3.55,-3.55,-3.55,-3.55,-3.55,-3.55,-3.55,-3.55,-3.55,-3.55,-3.55,-3.55,-3.55,-3.55,-3.55,-3.55,-3.55,-3.55,-3.55,-3.55,-3.4718,-3.4052,-3.366,-3.2852,-3.2025,-3.1173,-3.1135,-3.0904,-3.0423,-3.0404,-3.0404,-3.0404,-3.0404,-3.0425,-3.0498,-3.0529,-3.0603,-3.0695,-3.0768,-3.0836,-1.4514,-1.5464,-1.5998,-1.7606,-1.8883,-1.9576,-1.8932,0.0,-2.125,0.0,0.0,0.0,0.0,0.0,0.0,0.0,0.0,0.0,0.0,0.0,0.0,0.0,0.0,0.0,0.0,0.0,0.0,0.0,0.0,0.0,-2.5308,-2.5308,-2.5596,-2.625,-2.6486,-2.6909,-2.7563,-2.8588,-2.9544,-3.0404,-3.0404,-3.0404,-3.0404,-3.0404,-3.0404,-3.0404,-3.0404,-3.0404,-3.0442,-3.1096,-3.1371,-3.1525,-3.2987,-3.3686,-3.3975,-3.4853,-3.5308,-3.55,-3.55,-3.55,-3.55,-3.55,-3.55,-3.55,-3.55,-3.55,-3.55,-3.55,-3.55,-3.55,-3.55,-3.55,-3.55,-3.55,-3.55,-3.55,-3.55,-3.55,-3.55,-3.55,-3.55,-3.55,-3.55,-3.55,-3.55,-3.55,-3.55,-3.55,-3.55,-3.55,-3.55,-3.55,-3.493,-3.443,-3.4225,-3.3603,-3.2872,-3.2064,-3.2006,-3.1621,-3.0769,-3.0731,-3.0635,-3.0404,-3.0404,-3.0422,-3.0472,-3.0485,-3.0544,-3.0659,-3.0671,-3.0739,-1.2372,-1.3437,-1.4408,-1.6014,-1.7742,-1.9001,-1.8839,0.0,-2.0577,0.0,0.0,0.0,0.0,0.0,0.0,0.0,0.0,0.0,0.0,0.0,0.0,0.0,0.0,0.0,0.0,0.0,0.0,0.0,0.0,0.0,-2.5308,-2.5308,-2.5327,-2.5365,-2.6173,-2.6621,-2.6678,-2.8299,-2.9544,-3.0404,-3.0404,-3.0404,-3.0404,-3.0404,-3.0404,-3.0404,-3.0404,-3.0404,-3.0404,-3.0442,-3.0462,-3.0558,-3.1468,-3.2295,-3.3064,-3.3955,-3.4795,-3.55,-3.55,-3.55,-3.55,-3.55,-3.55,-3.55,-3.55,-3.55,-3.55,-3.55,-3.55,-3.55,-3.55,-3.55,-3.55,-3.55,-3.55,-3.55,-3.55,-3.55,-3.55,-3.55,-3.55,-3.55,-3.55,-3.55,-3.55,-3.55,-3.55,-3.55,-3.55,-3.55,-3.55,-3.55,-3.5462,-3.5103,-3.4263,-3.4167,-3.3763,-3.2891,-3.2833,-3.2487,-3.1679,-3.1641,-3.1231,-3.0423,-3.0404,-3.041,-3.0416,-3.0463,-3.0507,-3.0501,-3.0575,-3.0648,-1.2207,-1.3122,-1.4007,-1.4963,-1.6569,-1.7904,-1.7895,-1.8653,-1.9592,0.0,0.0,0.0,0.0,0.0,0.0,0.0,0.0,0.0,0.0,0.0,0.0,0.0,0.0,0.0,0.0,0.0,0.0,0.0,0.0,0.0,-2.5308,-2.5308,-2.5308,-2.5308,-2.5596,-2.6038,-2.6601,-2.7198,-2.8198,-2.9563,-2.9563,-2.9871,-3.0404,-3.0404,-3.0404,-3.0404,-3.0404,-3.0404,-3.0404,-3.0404,-3.0404,-3.0481,-3.1365,-3.1891,-3.2295,-3.3686,-3.4398,-3.4757,-3.5308,-3.55,-3.55,-3.55,-3.55,-3.55,-3.55,-3.55,-3.55,-3.55,-3.55,-3.55,-3.55,-3.55,-3.55,-3.55,-3.55,-3.55,-3.55,-3.55,-3.55,-3.55,-3.55,-3.55,-3.55,-3.55,-3.55,-3.55,-3.55,-3.55,-3.55,-3.55,-3.55,-3.55,-3.55,-3.5365,-3.5064,-3.5026,-3.4661,-3.3795,-3.3218,-3.2545,-3.1737,-3.1154,-3.0712,-3.0404,-3.0404,-3.0404,-3.0404,-3.0422,-3.0457,-3.0503,-3.0521,-3.0571,-1.1569,-1.2484,-1.3495,-1.4097,-1.5184,-1.6409,-1.7492,-1.8085,-1.8741,0.0,0.0,0.0,0.0,0.0,0.0,0.0,0.0,0.0,0.0,0.0,0.0,0.0,0.0,0.0,0.0,0.0,0.0,0.0,0.0,0.0,-2.5308,-2.5308,-2.5269,-2.5203,-2.5264,-2.5646,-2.6381,-2.6535,-2.7272,-2.8597,-2.8931,-2.939,-2.9962,-3.0269,-3.0404,-3.0404,-3.0404,-3.0404,-3.0404,-3.0404,-3.0404,-3.0462,-3.1038,-3.1448,-3.1872,-3.3256,-3.3955,-3.4321,-3.5192,-3.55,-3.55,-3.55,-3.55,-3.55,-3.55,-3.55,-3.55,-3.55,-3.55,-3.55,-3.55,-3.55,-3.55,-3.55,-3.55,-3.55,-3.55,-3.55,-3.55,-3.55,-3.55,-3.55,-3.55,-3.55,-3.55,-3.55,-3.55,-3.55,-3.55,-3.55,-3.55,-3.55,-3.55,-3.55,-3.55,-3.55,-3.525,-3.4661,-3.3814,-3.2968,-3.2141,-3.1288,-3.0692,-3.0404,-3.0404,-3.0404,-3.0404,-3.0404,-3.0417,-3.0472,-3.0472,-3.0503,0.0,0.0,0.0,-1.3333,0.0,0.0,-1.7598,0.0,-1.7951,0.0,0.0,0.0,0.0,0.0,0.0,0.0,0.0,0.0,0.0,0.0,0.0,0.0,0.0,0.0,0.0,0.0,0.0,0.0,0.0,-2.5308,-2.5308,-2.5308,-2.5214,-2.5016,-2.5203,-2.552,-2.5978,-2.6362,-2.6897,-2.7587,-2.8558,-2.9044,-2.9127,-2.9987,-3.0385,-3.0404,-3.0404,-3.0404,-3.0404,-3.0404,-3.0404,-3.0404,-3.0404,-3.0923,-3.1756,-3.2583,-3.343,-3.4302,-3.5192,-3.55,-3.55,-3.55,-3.55,-3.55,-3.55,-3.55,-3.55,-3.55,-3.55,-3.55,-3.55,-3.55,-3.55,-3.55,-3.55,-3.55,-3.55,-3.55,-3.55,-3.55,-3.55,-3.55,-3.55,-3.55,-3.55,-3.55,-3.55,-3.55,-3.55,-3.55,-3.55,-3.55,-3.55,-3.55,-3.55,-3.55,-3.5481,-3.5462,-3.4641,-3.3782,-3.2891,-3.2083,-3.125,-3.0423,-3.0404,-3.0404,-3.0404,-3.0404,-3.0404,-3.0404,-3.0404,-3.0449,-1.1274,0.0,0.0,0.0,0.0,0.0,0.0,0.0,0.0,0.0,0.0,0.0,0.0,0.0,0.0,0.0,0.0,0.0,0.0,0.0,0.0,0.0,0.0,0.0,0.0,0.0,0.0,0.0,-2.5308,-2.5308,-2.5308,-2.5308,-2.5269,-2.5219,-2.5269,-2.5369,-2.5499,-2.5463,-2.5926,-2.6869,-2.7017,-2.7794,-2.9107,-2.9357,-2.9794,-3.0404,-3.0404,-3.0404,-3.0404,-3.0404,-3.0404,-3.0404,-3.0404,-3.0558,-3.0923,-3.2372,-3.3045,-3.3468,-3.4981,-3.55,-3.55,-3.55,-3.55,-3.55,-3.55,-3.55,-3.55,-3.55,-3.55,-3.55,-3.55,-3.55,-3.55,-3.55,-3.55,-3.55,-3.55,-3.55,-3.55,-3.55,-3.55,-3.55,-3.55,-3.55,-3.55,-3.55,-3.55,-3.55,-3.55,-3.55,-3.55,-3.55,-3.55,-3.55,-3.55,-3.55,-3.5231,-3.4603,-3.3737,-3.2891,-3.2064,-3.1212,-3.0654,-3.0404,-3.0404,-3.0404,-3.0404,-3.0404,-3.0404,-3.0404,-3.0404,-3.0449,-1.201,-1.2416,-1.3147,-1.3398,0.0,0.0,0.0,-1.4649,0.0,0.0,0.0,0.0,0.0,0.0,0.0,0.0,0.0,0.0,0.0,0.0,0.0,0.0,0.0,0.0,0.0,0.0,0.0,0.0,-2.475,-2.4947,-2.5288,-2.5308,-2.5264,-2.5173,-2.5259,-2.5187,-2.4975,-2.498,-2.5234,-2.5729,-2.6111,-2.6873,-2.7965,-2.8733,-2.9371,-2.989,-3.0231,-3.0404,-3.0404,-3.0404,-3.0404,-3.0404,-3.0404,-3.0404,-3.0558,-3.191,-3.2602,-3.3103,-3.4487,-3.5192,-3.55,-3.55,-3.55,-3.55,-3.55,-3.55,-3.55,-3.55,-3.55,-3.55,-3.55,-3.55,-3.55,-3.55,-3.55,-3.55,-3.55,-3.55,-3.55,-3.55,-3.55,-3.55,-3.55,-3.55,-3.55,-3.55,-3.55,-3.55,-3.55,-3.55,-3.55,-3.55,-3.55,-3.55,-3.55,-3.5173,-3.4737,-3.4225,-3.3064,-3.2199,-3.1718,-3.0865,-3.0404,-3.0404,-3.0404,-3.0404,-3.0404,-3.0404,-3.0404,-3.0404,-3.0404,-3.0417,-1.2816,-1.3215,-1.4028,-1.4639,-1.3132,0.0,-1.5785,-1.4944,-1.4059,0.0,0.0,0.0,0.0,0.0,0.0,0.0,0.0,0.0,0.0,0.0,0.0,0.0,0.0,0.0,0.0,0.0,-2.2846,-2.358,-2.3812,-2.4284,-2.5115,-2.5158,-2.5097,-2.4991,-2.5152,-2.5024,-2.4559,-2.4811,-2.4824,-2.4591,-2.5629,-2.62,-2.639,-2.8071,-2.8915,-2.9146,-2.9929,-3.0308,-3.0404,-3.0404,-3.0404,-3.0404,-3.0404,-3.0404,-3.0519,-3.1385,-3.216,-3.2891,-3.3878,-3.4718,-3.5365,-3.5462,-3.55,-3.55,-3.55,-3.55,-3.55,-3.55,-3.55,-3.55,-3.55,-3.55,-3.55,-3.55,-3.55,-3.55,-3.55,-3.55,-3.55,-3.55,-3.55,-3.55,-3.55,-3.55,-3.55,-3.55,-3.55,-3.55,-3.55,-3.55,-3.55,-3.55,-3.5404,-3.5365,-3.5365,-3.4564,-3.4013,-3.3936,-3.2526,-3.166,-3.1564,-3.0808,-3.0404,-3.0404,-3.0404,-3.0404,-3.0404,-3.0404,-3.0404,-3.0404,-3.0404,-3.0404,-1.4522,-1.4912,-1.5419,-1.4916,0.0,0.0,-1.3277,-1.2766,-1.2734,0.0,0.0,0.0,0.0,0.0,0.0,0.0,0.0,0.0,0.0,0.0,0.0,0.0,0.0,0.0,0.0,0.0,-2.2252,-2.2571,-2.2775,-2.3318,-2.4274,-2.4175,-2.436,-2.4991,-2.4923,-2.491,-2.4911,-2.47,-2.4773,-2.5143,-2.5107,-2.5596,-2.654,-2.6918,-2.7813,-2.9107,-2.928,-2.9756,-3.0404,-3.0404,-3.0404,-3.0404,-3.0404,-3.0404,-3.0519,-3.1385,-3.1795,-3.216,-3.3667,-3.4321,-3.4564,-3.5269,-3.55,-3.55,-3.55,-3.55,-3.55,-3.55,-3.55,-3.55,-3.55,-3.55,-3.55,-3.55,-3.55,-3.55,-3.55,-3.55,-3.55,-3.55,-3.55,-3.55,-3.55,-3.55,-3.55,-3.55,-3.55,-3.55,-3.55,-3.55,-3.55,-3.55,-3.4872,-3.4449,-3.4449,-3.3641,-3.2872,-3.2237,-3.1891,-3.1391,-3.0673,-3.05,-3.0404,-3.0404,-3.0404,-3.0404,-3.0404,-3.0404,-3.0404,-3.0404,-3.0404,-3.0404,-1.5362,-1.5548,-1.5861,-1.5921,0.0,0.0,0.0,0.0,0.0,0.0,0.0,0.0,0.0,0.0,0.0,0.0,0.0,0.0,0.0,0.0,0.0,0.0,0.0,0.0,0.0,0.0,-2.1042,-2.1664,-2.2172,-2.2665,-2.3176,-2.3591,-2.3986,-2.4393,-2.4721,-2.4897,-2.4904,-2.4628,-2.4572,-2.4752,-2.4778,-2.5129,-2.5722,-2.6327,-2.7294,-2.853,-2.8934,-2.9583,-3.0404,-3.0404,-3.0404,-3.0404,-3.0404,-3.0404,-3.0442,-3.0885,-3.1327,-3.1891,-3.3122,-3.384,-3.434,-3.5212,-3.55,-3.55,-3.55,-3.55,-3.55,-3.55,-3.55,-3.55,-3.55,-3.55,-3.55,-3.55,-3.55,-3.55,-3.55,-3.55,-3.55,-3.55,-3.55,-3.55,-3.55,-3.55,-3.55,-3.55,-3.55,-3.55,-3.55,-3.55,-3.5327,-3.4911,-3.4449,-3.4013,-3.3583,-3.2776,-3.2122,-3.1737,-3.1288,-3.0865,-3.0423,-3.0404,-3.0404,-3.0404,-3.0404,-3.0404,-3.0404,-3.0404,-3.0404,-3.0404,-3.0404,-3.0404,0.0,0.0,0.0,0.0,0.0,-1.5484,0.0,0.0,0.0,0.0,0.0,0.0,0.0,0.0,0.0,0.0,0.0,0.0,0.0,0.0,0.0,0.0,0.0,0.0,0.0,0.0,-1.9723,-2.074,-2.1299,-2.1745,-2.2098,-2.2862,-2.3457,-2.3787,-2.439,-2.474,-2.4804,-2.4591,-2.4445,-2.4321,-2.4639,-2.4799,-2.4867,-2.5893,-2.6832,-2.7698,-2.8511,-2.9352,-3.0154,-3.0327,-3.0404,-3.0404,-3.0404,-3.0404,-3.0404,-3.0404,-3.0846,-3.1564,-3.2391,-3.3237,-3.4083,-3.4968,-3.5365,-3.55,-3.55,-3.55,-3.55,-3.55,-3.5453,-3.5424,-3.5424,-3.5383,-3.5354,-3.5354,-3.5354,-3.5354,-3.5354,-3.5383,-3.5424,-3.5424,-3.546,-3.55,-3.55,-3.55,-3.55,-3.55,-3.55,-3.55,-3.55,-3.5346,-3.4988,-3.4282,-3.3917,-3.343,-3.2737,-3.1929,-3.1448,-3.1448,-3.0788,-3.0404,-3.0404,-3.0404,-3.0404,-3.0404,-3.0404,-3.0404,-3.0404,-3.0404,-3.0404,-3.0404,-3.0404,-3.0404,0.0,0.0,0.0,0.0,-1.7861,0.0,0.0,0.0,0.0,0.0,0.0,0.0,0.0,0.0,0.0,0.0,0.0,0.0,0.0,0.0,0.0,0.0,0.0,0.0,0.0,0.0,0.0,-1.9691,-1.9293,-1.9723,-2.1336,-2.1464,-2.2193,-2.3759,-2.372,-2.403,-2.4785,-2.4591,-2.4567,-2.4731,-2.4782,-2.4869,-2.4986,-2.5299,-2.5923,-2.6794,-2.7659,-2.8511,-2.9319,-3.0077,-3.0404,-3.0404,-3.0404,-3.0404,-3.0404,-3.0404,-3.0462,-3.0673,-3.1545,-3.2372,-3.3179,-3.4064,-3.4872,-3.55,-3.55,-3.55,-3.55,-3.55,-3.532,-3.5157,-3.5157,-3.4972,-3.4784,-3.4784,-3.4784,-3.4784,-3.4784,-3.4972,-3.5157,-3.5157,-3.5346,-3.55,-3.55,-3.55,-3.55,-3.55,-3.55,-3.55,-3.55,-3.4834,-3.4321,-3.4205,-3.2872,-3.1948,-3.1833,-3.1038,-3.0558,-3.0558,-3.0442,-3.0404,-3.0404,-3.0404,-3.0404,-3.0404,-3.0404,-3.0404,-3.0404,-3.0404,-3.0404,-3.0404,-3.0404,-3.0404,0.0,0.0,0.0,0.0,0.0,0.0,-1.5294,0.0,-1.4438,0.0,0.0,0.0,0.0,0.0,0.0,0.0,0.0,0.0,0.0,0.0,0.0,0.0,0.0,0.0,0.0,0.0,0.0,0.0,0.0,-1.8857,-2.0068,-2.0777,-2.1692,-2.2886,-2.3417,-2.4042,-2.4785,-2.4591,-2.4486,-2.4452,-2.4685,-2.4821,-2.4891,-2.5171,-2.5788,-2.6621,-2.6986,-2.789,-2.9127,-2.9486,-2.9948,-3.0373,-3.0241,-3.026,-3.0404,-3.0404,-3.0305,-3.0311,-3.1335,-3.1828,-3.2227,-3.3711,-3.4795,-3.55,-3.55,-3.55,-3.55,-3.55,-3.5304,-3.5105,-3.5105,-3.4908,-3.4694,-3.4694,-3.4694,-3.4694,-3.4694,-3.4784,-3.4917,-3.5079,-3.5198,-3.5312,-3.546,-3.55,-3.55,-3.55,-3.55,-3.55,-3.55,-3.4737,-3.4013,-3.3506,-3.2391,-3.1506,-3.0981,-3.0615,-3.0404,-3.0404,-3.0404,-3.0404,-3.0404,-3.0404,-3.0404,-3.0404,-3.0404,-3.0404,-3.0404,-3.0404,-3.0404,-3.0404,-3.0404,-3.0404,-1.8089,0.0,0.0,0.0,0.0,0.0,0.0,0.0,0.0,0.0,0.0,0.0,0.0,0.0,0.0,0.0,0.0,0.0,0.0,0.0,0.0,0.0,0.0,0.0,0.0,0.0,0.0,0.0,0.0,0.0,-1.9378,-2.0295,-2.1185,-2.2061,-2.3026,-2.3813,-2.4431,-2.4534,-2.4452,-2.4199,-2.4599,-2.4804,-2.4811,-2.5143,-2.5654,-2.625,-2.6505,-2.7428,-2.88,-2.9011,-2.9579,-3.0267,-3.0075,-3.0095,-3.0215,-3.026,-3.0129,-3.0049,-3.093,-3.1226,-3.1538,-3.3461,-3.4515,-3.5091,-3.5314,-3.5439,-3.5486,-3.5417,-3.5198,-3.4972,-3.4889,-3.4655,-3.4442,-3.4442,-3.4442,-3.4442,-3.4442,-3.4508,-3.4624,-3.4813,-3.4925,-3.5079,-3.5335,-3.5446,-3.55,-3.55,-3.55,-3.55,-3.55,-3.4526,-3.359,-3.289,-3.1924,-3.1059,-3.0362,-3.0361,-3.0404,-3.0404,-3.0404,-3.0404,-3.0404,-3.0404,-3.0404,-3.0404,-3.0404,-3.0404,-3.0404,-3.0404,-3.0404,-3.0404,-3.0404,-3.0404,0.0,0.0,0.0,-1.7532,0.0,0.0,0.0,0.0,-1.6615,0.0,0.0,0.0,0.0,0.0,-1.5074,-1.35,0.0,0.0,0.0,0.0,0.0,0.0,0.0,0.0,0.0,0.0,0.0,0.0,0.0,0.0,-1.9697,-1.9946,-2.0499,-2.1487,-2.2385,-2.3061,-2.3542,-2.4367,-2.4583,-2.4199,-2.4599,-2.4804,-2.4811,-2.5143,-2.5327,-2.5385,-2.6231,-2.7101,-2.8011,-2.878,-2.9449,-3.0013,-3.0006,-2.9885,-2.9756,-2.9939,-2.9885,-2.9748,-2.9966,-3.0462,-3.1322,-3.3206,-3.3832,-3.4001,-3.4854,-3.5297,-3.5446,-3.519,-3.4926,-3.4643,-3.4304,-3.4018,-3.3829,-3.3829,-3.3829,-3.3829,-3.3829,-3.4031,-3.4211,-3.4223,-3.4478,-3.4812,-3.507,-3.5339,-3.55,-3.55,-3.55,-3.55,-3.55,-3.4007,-3.2852,-3.2623,-3.1315,-3.0337,-3.0047,-3.0254,-3.0404,-3.0404,-3.0404,-3.0404,-3.0404,-3.0404,-3.0404,-3.0404,-3.0404,-3.0404,-3.0404,-3.0404,-3.0404,-3.0404,-3.0404,-3.0404,0.0,0.0,-2.0776,-1.8309,0.0,0.0,0.0,0.0,0.0,0.0,0.0,0.0,0.0,0.0,-1.5349,-1.4261,-1.3642,0.0,0.0,0.0,0.0,0.0,0.0,0.0,0.0,0.0,0.0,0.0,-1.7122,0.0,0.0,-1.9784,-2.0337,-2.1345,-2.2162,-2.29,-2.3486,-2.4242,-2.4461,-2.4199,-2.4599,-2.4804,-2.4811,-2.5143,-2.5308,-2.5327,-2.5615,-2.6563,-2.7904,-2.8006,-2.8822,-2.9977,-2.9713,-2.9551,-2.9532,-2.9731,-2.967,-2.9513,-2.9579,-3.0226,-3.1183,-3.2352,-3.3107,-3.3704,-3.4567,-3.4908,-3.4954,-3.487,-3.4614,-3.4345,-3.4223,-3.4012,-3.3807,-3.3807,-3.3807,-3.3807,-3.3807,-3.3863,-3.3999,-3.4171,-3.43,-3.4467,-3.4784,-3.4917,-3.5096,-3.5446,-3.55,-3.55,-3.55,-3.3987,-3.2813,-3.2615,-3.1128,-3.004,-2.9821,-3.0011,-3.0209,-3.0398,-3.0404,-3.0404,-3.0404,-3.0404,-3.0404,-3.0404,-3.0404,-3.0404,-3.0404,-3.0404,-3.0404,-3.0404,-3.0404,-3.0404,-1.8867,-1.9866,0.0,-1.8574,-1.8482,0.0,-1.6555,0.0,0.0,0.0,0.0,0.0,0.0,0.0,-1.6298,-1.5478,-1.4211,-1.2637,0.0,-1.0971,0.0,0.0,0.0,0.0,0.0,0.0,-1.5294,-1.6383,-1.6475,0.0,0.0,0.0,-2.0128,-2.0823,-2.1912,-2.2664,-2.3032,-2.4006,-2.4401,-2.4199,-2.4599,-2.4804,-2.4811,-2.5143,-2.5264,-2.5179,-2.5179,-2.6129,-2.7638,-2.7454,-2.8347,-2.9754,-2.9494,-2.9341,-2.9289,-2.9504,-2.9513,-2.9402,-2.9402,-2.979,-3.0478,-3.1663,-3.2398,-3.3038,-3.4172,-3.4612,-3.4674,-3.4551,-3.4368,-3.4183,-3.4074,-3.3923,-3.3807,-3.3807,-3.3807,-3.3807,-3.3807,-3.3807,-3.3855,-3.4018,-3.4068,-3.4165,-3.4475,-3.4529,-3.4685,-3.5138,-3.5297,-3.532,-3.5223,-3.3791,-3.2675,-3.2357,-3.0848,-2.9869,-2.9813,-2.9931,-3.0103,-3.0373,-3.0404,-3.0404,-3.0404,-3.0404,-3.0404,-3.0404,-3.0404,-3.0404,-3.0404,-3.0404,-3.0404,-3.0404,-3.0404,-3.0404]},{"header":{"parameterUnit":"m.s-1","parameterCategory":1,"la1":30.6,"la2":29.2853,"lo1":-89.7004,"lo2":-87.6739,"dy":0.0162,"dx":0.0183,"nx":112,"ny":82,"refTime":"2026-03-24T12:00:00:Z","depth":0,"parameterNumber":3,"parameterNumberName":"V-component_of_WINDS"},"data":[0.0,0.0,0.0,0.0,0.0,0.0,0.0,0.0,0.0,0.0,0.0,0.0,0.0,0.0,0.0,0.0,0.0,0.0,0.0,0.0,0.0,0.0,0.0,0.0,0.0,0.0,0.0,0.0,0.0,0.0,0.0,0.0,0.0,0.0,0.0,0.0,0.0,0.0,0.0,0.0,0.0,0.0,0.0,0.0,0.0,0.0,0.0,0.0,0.0,0.0,0.0,0.0,0.0,0.0,0.0,0.0,0.0,0.0,0.0,0.0,0.0,0.0,0.0,0.0,0.0,0.0,0.0,0.0,0.0,0.0,0.0,0.0,0.0,0.0,0.0,0.0,0.0,0.0,0.0,0.0,0.0,0.0,0.0,0.0,0.0,0.0,0.0,0.0,0.0,0.0,-0.2802,-0.3052,-0.3381,-0.37,-0.3971,-0.3727,-0.3331,-0.2768,0.0,0.0,0.0,0.0,0.0,0.0,0.0,0.0,0.0,0.0,0.0,0.0,0.0,0.0,0.0,0.0,0.0,0.0,0.0,0.0,0.0,0.0,0.0,0.0,0.0,0.0,0.0,0.0,0.0,0.0,0.0,0.0,0.0,0.0,0.0,0.0,0.0,0.0,0.0,0.0,0.0,0.0,0.0,0.0,0.0,0.0,0.0,0.0,0.0,0.0,0.0,0.0,0.0,0.0,0.0,0.0,0.0,0.0,0.0,0.0,0.0,0.0,0.0,0.0,0.0,0.0,0.0,0.0,0.0,0.0,0.0,0.0,0.0,0.0,0.0,0.0,0.0,0.0,0.0,0.0,0.0,0.0,0.0,0.0,0.0,0.0,0.0,0.0,0.0,0.0,0.0,0.0,0.0,0.0,0.0,0.0,0.0,0.0,0.0,0.0,0.0,0.0,0.0,0.0,-0.2981,-0.3745,-0.369,-0.37,-0.3971,-0.3655,-0.3259,-0.2896,0.0,0.0,0.0,0.0,0.0,0.0,0.0,0.0,0.0,0.0,0.0,0.0,0.0,0.0,0.0,0.0,0.0,0.0,0.0,0.0,0.0,0.0,0.0,0.0,0.0,0.0,0.0,0.0,0.0,0.0,0.0,0.0,0.0,0.0,0.0,0.0,0.0,0.0,0.0,0.0,0.0,0.0,0.0,0.0,0.0,0.0,0.0,0.0,0.0,0.0,0.0,0.0,0.0,0.0,0.0,0.0,0.0,0.0,0.0,0.0,0.0,0.0,0.0,0.0,0.0,0.0,0.0,0.0,0.0,0.0,0.0,0.0,0.0,0.0,0.0,0.0,0.0,0.0,0.0,0.0,0.0,0.0,0.0,0.0,0.0,0.0,0.0,0.0,0.0,0.0,0.0,0.0,0.0,0.0,0.0,0.0,0.0,0.0,0.0,0.0,0.0,0.0,0.0,-0.272,-0.3083,-0.3819,-0.3707,-0.3689,-0.3877,-0.3662,-0.33,-0.2815,-0.2737,0.0,0.0,0.0,0.0,0.0,0.0,0.0,0.0,0.0,0.0,0.0,0.0,0.0,0.0,0.0,0.0,0.0,0.0,0.0,0.0,0.0,0.0,0.0,0.0,0.0,0.0,0.0,0.0,0.0,0.0,0.0,0.0,0.0,0.0,0.0,0.0,0.0,0.0,0.0,0.0,0.0,0.0,0.0,0.0,0.0,0.0,0.0,0.0,0.0,0.0,0.0,0.0,0.0,0.0,0.0,0.0,0.0,0.0,0.0,0.0,0.0,0.0,0.0,0.0,0.0,0.0,0.0,0.0,0.0,0.0,0.0,0.0,0.0,0.0,0.0,0.0,0.0,0.0,0.0,0.0,0.0,0.0,0.0,0.0,0.0,0.0,0.0,0.0,0.0,0.0,0.0,0.0,0.0,0.0,0.0,0.0,0.0,0.0,0.0,0.0,0.0,0.0,-0.2947,-0.3212,-0.3734,-0.3686,-0.3662,-0.3778,-0.3595,-0.3266,-0.273,-0.2631,0.0,0.0,0.0,0.0,0.0,0.0,0.0,0.0,0.0,0.0,0.0,0.0,0.0,0.0,0.0,0.0,0.0,0.0,0.0,0.0,0.0,0.0,0.0,0.0,0.0,0.0,0.0,0.0,0.0,0.0,0.0,0.0,0.0,0.0,0.0,0.0,0.0,0.0,0.0,0.0,0.0,0.0,0.0,0.0,0.0,0.0,0.0,0.0,0.0,0.0,0.0,0.0,0.0,0.0,0.0,0.0,0.0,0.0,0.0,0.0,0.0,0.0,0.0,0.0,0.0,0.0,0.0,0.0,0.0,0.0,0.0,0.0,0.0,0.0,0.0,0.0,0.0,0.0,0.0,0.0,0.0,0.0,0.0,0.0,0.0,0.0,0.0,0.0,0.0,0.0,0.0,0.0,0.0,0.0,0.0,0.0,0.0,0.0,0.0,0.0,0.0,0.0,-0.31,-0.3485,-0.3758,-0.3686,-0.3662,-0.3778,-0.3398,-0.3018,-0.2716,-0.2407,0.0,0.0,0.0,0.0,0.0,0.0,0.0,0.0,0.0,0.0,0.0,0.0,0.0,0.0,0.0,0.0,0.0,0.0,0.0,0.0,0.0,0.0,0.0,0.0,0.0,0.0,0.0,0.0,0.0,0.0,0.0,0.0,0.0,0.0,0.0,0.0,0.0,0.0,0.0,0.0,0.0,0.0,0.0,0.0,0.0,0.0,0.0,0.0,0.0,0.0,0.0,0.0,0.0,0.0,0.0,0.0,0.0,0.0,0.0,0.0,0.0,0.0,0.0,0.0,0.0,0.0,0.0,0.0,0.0,0.0,0.0,0.0,0.0,0.0,0.0,0.0,0.0,0.0,0.0,0.0,0.0,0.0,0.0,0.0,0.0,0.0,0.0,0.0,0.0,0.0,0.0,0.0,0.0,0.0,0.0,0.0,0.0,0.0,0.0,0.0,0.0,0.0,-0.3006,-0.3324,0.0,-0.3634,-0.3624,-0.3679,-0.3394,-0.3077,-0.2723,0.0,0.0,0.0,0.0,0.0,0.0,0.0,0.0,0.0,0.0,0.0,0.0,0.0,0.0,0.0,0.0,0.0,0.0,0.0,0.0,0.0,0.0,0.0,0.0,0.0,0.0,0.0,0.0,0.0,0.0,0.0,0.0,0.0,0.0,0.0,0.0,0.0,0.0,0.0,0.0,0.0,0.0,0.0,0.0,0.0,0.0,0.0,0.0,0.0,0.0,0.0,0.0,0.0,0.0,0.0,0.0,0.0,0.0,0.0,0.0,0.0,0.0,0.0,0.0,0.0,0.0,0.0,0.0,0.0,0.0,0.0,0.0,0.0,0.0,0.0,0.0,0.0,0.0,0.0,0.0,0.0,0.0,0.0,0.0,0.0,0.0,0.0,0.0,0.0,0.0,0.0,0.0,0.0,0.0,0.0,0.0,0.0,0.0,0.0,0.0,0.0,0.0,-0.2672,-0.3025,-0.3331,0.0,-0.3507,-0.3487,-0.3439,-0.3232,-0.2966,-0.2661,0.0,0.0,0.0,0.0,0.0,0.0,0.0,0.0,0.0,0.0,0.0,0.0,0.0,0.0,0.0,0.0,0.0,0.0,0.0,0.0,0.0,0.0,0.0,0.0,0.0,0.0,0.0,0.0,0.0,0.0,0.0,0.0,0.0,0.0,0.0,0.0,0.0,0.0,0.0,0.0,0.0,0.0,0.0,0.0,0.0,0.0,0.0,0.0,0.0,0.0,0.0,0.0,0.0,0.0,0.0,0.0,0.0,0.0,0.0,0.0,0.0,0.0,0.0,0.0,0.0,0.0,0.0,0.0,0.0,0.0,0.0,0.0,0.0,0.0,0.0,0.0,0.0,0.0,0.0,0.0,0.0,0.0,0.0,0.0,0.0,0.0,0.0,0.0,0.0,0.0,0.0,0.0,0.0,0.0,0.0,0.0,0.0,0.0,0.0,0.0,0.0,0.0,-0.2696,-0.3221,-0.3517,-0.3323,-0.3306,-0.3246,-0.3114,-0.2852,-0.2651,0.0,0.0,0.0,0.0,0.0,0.0,0.0,0.0,0.0,0.0,0.0,0.0,0.0,0.0,0.0,0.0,0.0,0.0,0.0,0.0,0.0,0.0,0.0,0.0,0.0,0.0,0.0,0.0,0.0,0.0,0.0,0.0,0.0,0.0,0.0,0.0,0.0,0.0,0.0,0.0,0.0,0.0,0.0,0.0,0.0,0.0,0.0,0.0,0.0,0.0,0.0,0.0,0.0,0.0,0.0,0.0,0.0,0.0,0.0,0.0,0.0,0.0,0.0,0.0,0.0,0.0,0.0,0.0,0.0,0.0,0.0,0.0,0.0,0.0,0.0,0.0,0.0,0.0,0.0,0.0,0.0,0.0,0.0,0.0,0.0,0.0,0.0,0.0,0.0,0.0,0.0,0.0,0.0,0.0,0.0,0.0,0.0,0.0,0.0,0.0,0.0,0.0,0.0,-0.2567,-0.2969,-0.3219,-0.3172,-0.3168,-0.3151,-0.3104,-0.2951,-0.2747,-0.2515,0.0,0.0,0.0,0.0,0.0,0.0,0.0,0.0,0.0,0.0,0.0,0.0,0.0,0.0,0.0,0.0,0.0,0.0,0.0,0.0,0.0,0.0,0.0,0.0,0.0,0.0,0.0,0.0,0.0,0.0,0.0,0.0,0.0,0.0,0.0,0.0,0.0,0.0,0.0,0.0,0.0,0.0,0.0,0.0,0.0,0.0,0.0,0.0,0.0,0.0,0.0,0.0,0.0,0.0,0.0,0.0,0.0,0.0,0.0,0.0,0.0,0.0,0.0,0.0,0.0,0.0,0.0,0.0,0.0,0.0,0.0,0.0,0.0,0.0,0.0,0.0,0.0,0.0,0.0,0.0,0.0,0.0,0.0,0.0,0.0,0.0,0.0,0.0,0.0,0.0,0.0,0.0,0.0,0.0,0.0,0.0,0.0,0.0,0.0,0.0,0.0,0.0,-0.2498,-0.2842,-0.3081,-0.3023,-0.3017,-0.2993,-0.2951,-0.2866,-0.269,-0.2402,0.0,0.0,0.0,0.0,0.0,0.0,0.0,0.0,0.0,0.0,0.0,0.0,0.0,0.0,0.0,0.0,0.0,0.0,0.0,0.0,0.0,0.0,0.0,0.0,0.0,0.0,0.0,0.0,0.0,0.0,0.0,0.0,0.0,0.0,0.0,0.0,0.0,0.0,0.0,0.0,0.0,0.0,0.0,0.0,0.0,0.0,0.0,0.0,0.0,0.0,0.0,0.0,0.0,0.0,0.0,0.0,0.0,0.0,0.0,0.0,0.0,0.0,0.0,0.0,0.0,0.0,0.0,0.0,0.0,0.0,0.0,0.0,0.0,0.0,0.0,0.0,0.0,0.0,0.0,0.0,0.0,0.0,0.0,0.0,0.0,0.0,0.0,0.0,0.0,0.0,0.0,0.0,0.0,0.0,0.0,0.0,0.0,0.0,0.0,0.0,0.0,0.0,-0.2477,-0.2812,-0.3013,-0.2903,-0.289,-0.2832,-0.271,-0.2696,-0.2561,-0.2248,0.0,0.0,0.0,0.0,0.0,0.0,0.0,0.0,0.0,0.0,0.0,0.0,0.0,0.0,0.0,0.0,0.0,0.0,0.0,0.0,0.0,0.0,0.0,0.0,0.0,0.0,0.0,0.0,0.0,0.0,0.0,0.0,0.0,0.0,0.0,0.0,0.0,0.0,0.0,0.0,0.0,0.0,0.0,0.0,0.0,0.0,0.0,0.0,0.0,0.0,0.0,0.0,0.0,0.0,0.0,0.0,0.0,0.0,0.0,0.0,-0.2981,0.0,0.0,0.0,0.0,0.0,0.0,0.0,0.0,0.0,0.0,0.0,0.0,0.0,0.0,0.0,0.0,0.0,0.0,0.0,0.0,0.0,0.0,0.0,0.0,0.0,0.0,0.0,0.0,0.0,0.0,0.0,0.0,0.0,0.0,0.0,0.0,0.0,0.0,0.0,0.0,0.0,-0.2272,-0.2571,-0.2781,-0.2751,-0.2747,-0.2733,-0.2699,-0.2696,-0.2617,-0.2448,-0.2285,0.0,0.0,0.0,0.0,0.0,0.0,0.0,0.0,0.0,0.0,0.0,0.0,0.0,0.0,0.0,0.0,0.0,0.0,0.0,0.0,0.0,0.0,0.0,0.0,0.0,0.0,0.0,0.0,0.0,0.0,0.0,0.0,0.0,0.0,0.0,0.0,0.0,0.0,0.0,0.0,0.0,0.0,0.0,0.0,0.0,0.0,0.0,0.0,0.0,0.0,0.0,0.0,0.0,0.0,0.0,0.0,0.0,0.0,0.0,0.0,-0.331,0.0,0.0,0.0,0.0,0.0,0.0,0.0,0.0,0.0,0.0,0.0,0.0,0.0,0.0,0.0,0.0,0.0,0.0,0.0,0.0,0.0,0.0,0.0,0.0,0.0,0.0,0.0,0.0,0.0,0.0,0.0,0.0,0.0,0.0,0.0,0.0,0.0,0.0,0.0,0.0,-0.2333,-0.2556,-0.2696,-0.2696,-0.2696,-0.2696,-0.2696,-0.2696,-0.2647,-0.2508,-0.2399,0.0,0.0,0.0,0.0,0.0,0.0,0.0,0.0,0.0,0.0,0.0,0.0,0.0,0.0,0.0,0.0,0.0,0.0,0.0,0.0,0.0,0.0,0.0,0.0,0.0,0.0,0.0,0.0,0.0,0.0,0.0,0.0,0.0,0.0,0.0,0.0,0.0,0.0,0.0,0.0,0.0,0.0,0.0,0.0,0.0,0.0,0.0,0.0,0.0,0.0,0.0,0.0,0.0,-0.3603,-0.3725,-0.3815,-0.4027,-0.4085,-0.4061,-0.3571,-0.3473,-0.3656,0.0,0.0,0.0,0.0,0.0,0.0,0.0,0.0,0.0,0.0,0.0,0.0,0.0,0.0,0.0,0.0,0.0,0.0,0.0,0.0,0.0,0.0,0.0,0.0,0.0,-0.1354,-0.1682,0.0,0.0,0.0,0.0,0.0,0.0,0.0,0.0,0.0,0.0,0.0,0.0,-0.2541,-0.2658,-0.2737,-0.2737,-0.2737,-0.2727,-0.2699,-0.2696,-0.2658,-0.2546,-0.2511,-0.2427,0.0,0.0,0.0,0.0,0.0,0.0,0.0,0.0,0.0,0.0,0.0,0.0,0.0,0.0,0.0,0.0,0.0,0.0,0.0,0.0,0.0,0.0,0.0,0.0,0.0,0.0,0.0,0.0,0.0,0.0,0.0,0.0,-0.0419,-0.0491,0.0,0.0,0.0,0.0,0.0,0.0,0.0,0.0,0.0,0.0,0.0,0.0,0.0,0.0,-0.2752,-0.2366,-0.215,-0.2056,-0.2332,-0.2397,-0.2286,-0.2451,-0.2518,-0.2486,-0.2415,0.0,-0.3175,-0.3013,0.0,0.0,0.0,0.0,0.0,0.0,0.0,0.0,0.0,0.0,0.0,0.0,0.0,0.0,0.0,0.0,0.0,0.0,0.0,0.0,0.0,0.0,-0.0305,-0.0826,-0.0982,-0.1167,0.0,-0.2432,-0.2829,-0.2672,0.0,0.0,0.0,0.0,0.0,0.0,0.0,0.0,-0.2812,-0.2866,-0.2879,-0.2879,-0.2879,-0.2825,-0.271,-0.2696,-0.2689,-0.2669,-0.2558,-0.2487,-0.2455,-0.2266,0.0,0.0,0.0,0.0,0.0,0.0,0.0,0.0,0.0,0.0,0.0,0.0,0.0,0.0,0.0,0.0,0.0,0.0,0.0,0.0,0.0,0.0,0.0,0.0,0.0,0.0,0.0,0.0,0.0,-0.0546,-0.0827,-0.1496,-0.1722,-0.196,0.0,0.0,0.0,0.0,0.0,0.0,0.0,0.0,0.0,-0.2453,-0.2295,-0.2236,-0.2305,-0.2102,-0.2021,-0.2032,-0.2251,-0.2332,-0.2272,-0.2406,-0.2472,-0.2472,-0.2472,-0.2333,-0.2109,-0.2301,-0.2314,-0.2204,0.0,0.0,0.0,0.0,0.0,-0.1889,-0.1359,-0.1023,0.0,0.0,0.0,0.0,0.0,0.0,0.0,0.0,0.0,0.0,0.0,0.0,0.0,-0.0403,-0.0656,-0.0979,-0.1233,-0.1813,-0.2218,0.0,-0.2226,-0.2387,-0.2056,0.0,0.0,0.0,0.0,-0.2788,-0.2983,-0.301,-0.298,-0.2899,-0.2892,-0.2849,-0.271,-0.2696,-0.2696,-0.2696,-0.2651,-0.2613,-0.2613,-0.2454,-0.2255,0.0,0.0,0.0,0.0,0.0,0.0,0.0,0.0,0.0,0.0,0.0,0.0,0.0,0.0,0.0,0.0,0.0,0.0,0.0,0.0,0.0,0.0,0.0,0.0,0.0,0.0,0.0,0.0,-0.0687,-0.0966,-0.2169,-0.2092,-0.2175,0.0,0.0,0.0,0.0,0.0,0.0,-0.1656,-0.1686,-0.1751,-0.1851,-0.1691,-0.1665,-0.1762,-0.1578,-0.1528,-0.1629,-0.1799,-0.1868,-0.187,-0.198,-0.1998,-0.1998,-0.1998,-0.1617,-0.1016,-0.1575,-0.1768,-0.171,-0.1614,-0.1668,-0.1792,-0.175,-0.1664,-0.1507,-0.0992,-0.0742,-0.0647,-0.054,0.0,-0.0077,-0.0413,0.0,0.0,0.0,0.0,-0.1089,-0.0643,0.0,-0.0564,-0.0104,-0.0338,-0.0672,-0.0666,-0.1183,-0.1589,0.0,-0.189,-0.2134,-0.1679,0.0,0.0,0.0,0.0,-0.301,-0.3195,-0.3182,-0.3118,-0.3013,-0.2969,-0.2903,-0.2771,-0.2603,-0.2513,-0.2513,-0.2513,-0.2513,-0.2513,-0.2539,-0.2457,-0.2282,0.0,0.0,0.0,0.0,0.0,0.0,0.0,0.0,0.0,0.0,0.0,0.0,0.0,0.0,0.0,0.0,0.0,0.0,0.0,0.0,0.0,0.0,0.0,0.0,0.0,0.0,0.0,0.0,0.0,-0.1684,-0.181,0.0,0.0,0.0,0.0,-0.248,-0.1958,-0.1672,-0.1788,-0.1909,-0.1979,-0.1982,-0.1434,-0.1134,-0.1136,-0.0458,-0.0109,-0.0109,-0.0109,-0.0109,-0.0109,-0.0146,-0.0146,-0.0146,-0.0146,-0.0109,-0.0145,-0.0997,-0.1196,-0.0944,-0.0943,-0.1281,-0.1732,-0.1155,-0.0964,-0.0851,-0.0273,-0.006,-0.003,-0.003,-0.0029,0.0,-0.0028,-0.0027,0.0,0.0,-0.0077,-0.0077,-0.0055,-0.0027,-0.0027,0.0,-0.0028,-0.0055,-0.0053,-0.0626,-0.1266,0.0,-0.1711,-0.1642,-0.1607,0.0,-0.2263,-0.2473,-0.2838,-0.3199,-0.3539,-0.3408,-0.3293,-0.3286,-0.3155,-0.3034,-0.291,-0.2367,-0.2031,-0.2031,-0.2031,-0.2031,-0.2031,-0.2457,-0.263,-0.2491,-0.2279,0.0,0.0,0.0,0.0,0.0,0.0,0.0,0.0,0.0,0.0,0.0,0.0,0.0,0.0,0.0,0.0,0.0,0.0,0.0,0.0,0.0,0.0,0.0,0.0,0.0,0.0,0.0,0.0,-0.2316,-0.1748,0.0,-0.2649,-0.2327,-0.188,-0.1506,-0.126,-0.1008,-0.0653,-0.0677,-0.0707,-0.0707,-0.0514,-0.039,-0.039,-0.0147,0.0,0.0,0.0,0.0,0.0,0.0,0.0,0.0,0.0,0.0,-0.0038,-0.0328,-0.0419,-0.0335,-0.0328,-0.0451,-0.0601,-0.0407,-0.0316,-0.0288,-0.0062,0.0,0.0,0.0,0.0,0.0,0.0,0.0,0.0,0.0,0.0,0.0,0.0,0.0,0.0,0.0,0.0,0.0,0.0,-0.0194,-0.044,-0.0621,-0.0985,-0.1217,-0.1045,-0.1214,-0.1494,-0.1857,-0.2116,-0.2304,-0.2423,-0.2378,-0.244,-0.2751,-0.2393,-0.2221,-0.2428,-0.1891,-0.1554,-0.1554,-0.1554,-0.1684,-0.1988,-0.2168,-0.2333,-0.2501,-0.2431,-0.2215,0.0,0.0,0.0,0.0,0.0,0.0,0.0,0.0,0.0,0.0,0.0,0.0,0.0,0.0,0.0,0.0,0.0,0.0,0.0,0.0,0.0,0.0,0.0,0.0,0.0,0.0,-0.0637,-0.2334,-0.1597,-0.1376,-0.2427,-0.1933,-0.1393,-0.0937,-0.071,-0.0432,-0.0031,0.0,0.0,0.0,0.0,0.0,0.0,0.0,0.0,0.0,0.0,0.0,0.0,0.0,0.0,0.0,0.0,0.0,0.0,0.0,0.0,0.0,0.0,0.0,0.0,0.0,0.0,0.0,0.0,0.0,0.0,0.0,0.0,0.0,0.0,0.0,0.0,0.0,0.0,0.0,0.0,0.0,0.0,0.0,0.0,0.0,0.0,0.0,0.0,0.0,-0.0402,-0.0672,-0.0498,-0.0708,-0.108,-0.1645,-0.1765,-0.1884,-0.2137,-0.1958,-0.1921,-0.2233,-0.1863,-0.1709,-0.1967,-0.1451,-0.109,-0.1091,-0.109,-0.1228,-0.1559,-0.1842,-0.2097,-0.2326,-0.2368,-0.2273,-0.1995,0.0,0.0,0.0,0.0,0.0,0.0,0.0,0.0,0.0,0.0,0.0,0.0,0.0,0.0,0.0,0.0,0.0,0.0,0.0,0.0,0.0,0.0,0.0,-0.0781,-0.0364,-0.0444,-0.1641,-0.1357,-0.1249,-0.1745,-0.1338,-0.1004,-0.0887,-0.0321,0.0,0.0,0.0,0.0,0.0,0.0,0.0,0.0,0.0,0.0,0.0,0.0,0.0,0.0,0.0,0.0,0.0,0.0,0.0,0.0,0.0,0.0,0.0,0.0,0.0,0.0,0.0,0.0,0.0,0.0,0.0,0.0,0.0,0.0,0.0,0.0,0.0,0.0,0.0,0.0,0.0,0.0,0.0,0.0,0.0,0.0,0.0,0.0,0.0,0.0,0.0,0.0,0.0,0.0,-0.049,-0.1112,-0.1827,-0.1837,0.0,-0.2712,-0.2174,-0.1763,-0.1811,-0.1663,-0.1594,-0.1619,-0.106,-0.0693,-0.0679,-0.0686,-0.0689,-0.0697,-0.1526,-0.2,-0.2022,-0.2148,-0.215,-0.2012,0.0,0.0,0.0,0.0,0.0,0.0,0.0,0.0,0.0,0.0,0.0,0.0,0.0,0.0,0.0,0.0,0.0,0.0,0.0,0.0,0.0,0.0,-0.0068,-0.0215,-0.0103,-0.0331,-0.1176,-0.0692,-0.0576,-0.1231,-0.0685,-0.0288,-0.026,-0.0102,0.0,0.0,0.0,0.0,0.0,0.0,0.0,0.0,0.0,0.0,0.0,0.0,0.0,0.0,0.0,0.0,0.0,0.0,0.0,0.0,0.0,0.0,0.0,0.0,0.0,0.0,0.0,0.0,0.0,0.0,0.0,0.0,0.0,0.0,0.0,0.0,0.0,0.0,0.0,0.0,0.0,0.0,0.0,0.0,0.0,0.0,0.0,0.0,0.0,0.0,0.0,0.0,0.0,0.0,-0.013,-0.0308,-0.0531,-0.0509,0.0,-0.0761,-0.0621,-0.086,-0.1839,-0.1529,-0.1426,-0.1862,-0.1338,-0.0764,-0.0224,-0.0192,-0.0343,-0.0685,-0.1358,-0.2001,-0.2634,-0.259,-0.2498,0.0,0.0,0.0,0.0,0.0,0.0,0.0,0.0,0.0,0.0,0.0,0.0,0.0,0.0,0.0,0.0,0.0,0.0,0.0,0.0,0.0,0.0,0.0,0.0,0.0,0.0,-0.0147,-0.0593,-0.0254,-0.0161,-0.0586,-0.0265,0.0,0.0,0.0,0.0,0.0,0.0,0.0,0.0,0.0,0.0,0.0,0.0,0.0,0.0,0.0,0.0,0.0,0.0,0.0,0.0,0.0,0.0,0.0,0.0,0.0,0.0,0.0,0.0,0.0,0.0,0.0,0.0,0.0,0.0,0.0,0.0,0.0,0.0,0.0,0.0,0.0,0.0,0.0,0.0,0.0,0.0,0.0,0.0,0.0,0.0,0.0,0.0,0.0,0.0,0.0,0.0,0.0,0.0,-0.0106,-0.0423,-0.0202,-0.0122,0.0,-0.0189,-0.03,-0.1089,-0.0859,-0.0776,-0.1137,-0.0843,0.0,0.0,0.0,-0.0203,-0.0691,-0.127,0.0,0.0,0.0,0.0,0.0,0.0,0.0,0.0,-0.2187,-0.2208,0.0,0.0,0.0,0.0,0.0,0.0,0.0,0.0,0.0,0.0,0.0,0.0,0.0,0.0,0.0,0.0,0.0,0.0,0.0,0.0,0.0,0.0,0.0,0.0,0.0,0.0,0.0,0.0,0.0,0.0,0.0,0.0,0.0,0.0,0.0,0.0,0.0,0.0,0.0,0.0,0.0,0.0,0.0,0.0,0.0,0.0,0.0,0.0,0.0,0.0,0.0,0.0,0.0,0.0,0.0,0.0,0.0,0.0,0.0,0.0,0.0,0.0,0.0,0.0,0.0,0.0,0.0,0.0,0.0,0.0,0.0,0.0,0.0,0.0,0.0,0.0,0.0,0.0,0.0,0.0,0.0,0.0,0.0,0.0,-0.0216,-0.089,-0.0423,0.0,-0.0888,-0.0416,-0.0024,-0.0114,0.0,0.0,-0.0129,-0.0133,-0.0089,0.0,0.0,-0.022,-0.0709,-0.1247,-0.1726,-0.2188,-0.26,-0.2846,-0.2883,-0.2764,-0.2696,-0.2689,-0.2396,-0.2357,0.0,0.0,0.0,0.0,0.0,0.0,0.0,0.0,0.0,0.0,0.0,0.0,0.0,0.0,0.0,0.0,0.0,0.0,0.0,0.0,0.0,0.0,0.0,0.0,0.0,0.0,0.0,0.0,0.0,0.0,0.0,0.0,0.0,0.0,0.0,0.0,0.0,0.0,0.0,0.0,0.0,0.0,0.0,0.0,0.0,0.0,0.0,0.0,0.0,0.0,0.0,0.0,0.0,0.0,0.0,0.0,0.0,0.0,0.0,0.0,0.0,0.0,0.0,0.0,0.0,0.0,0.0,0.0,0.0,0.0,0.0,0.0,0.0,0.0,0.0,0.0,0.0,0.0,0.0,0.0,0.0,0.0,0.0,0.0,-0.0056,-0.0196,-0.0081,-0.0053,-0.0184,-0.01,-0.0217,-0.0813,-0.0888,-0.0892,-0.0885,-0.089,-0.0625,-0.0044,0.0,-0.026,-0.0835,-0.0978,-0.1398,-0.2189,-0.2293,-0.2466,-0.274,-0.2713,-0.2696,-0.2696,-0.2638,-0.2628,0.0,0.0,0.0,0.0,0.0,0.0,0.0,0.0,0.0,0.0,0.0,0.0,0.0,0.0,0.0,0.0,0.0,0.0,0.0,0.0,0.0,0.0,0.0,0.0,0.0,0.0,0.0,0.0,0.0,0.0,0.0,0.0,0.0,0.0,0.0,0.0,0.0,0.0,0.0,0.0,0.0,0.0,0.0,0.0,0.0,0.0,0.0,0.0,0.0,0.0,0.0,0.0,0.0,0.0,0.0,0.0,0.0,0.0,0.0,0.0,0.0,0.0,0.0,0.0,0.0,0.0,0.0,0.0,0.0,0.0,0.0,0.0,0.0,0.0,0.0,0.0,0.0,0.0,0.0,0.0,0.0,0.0,0.0,0.0,0.0,0.0,0.0,0.0,0.0,0.0,-0.015,-0.0517,-0.0555,-0.0544,-0.0556,-0.0555,-0.039,-0.0022,0.0,-0.0132,-0.0442,-0.075,-0.1103,-0.154,-0.2076,-0.2432,-0.2601,-0.281,-0.29,-0.29,-0.29,-0.2862,0.0,0.0,0.0,0.0,0.0,0.0,0.0,0.0,0.0,0.0,0.0,0.0,0.0,0.0,0.0,0.0,0.0,0.0,0.0,0.0,0.0,0.0,0.0,0.0,0.0,0.0,0.0,0.0,0.0,0.0,0.0,0.0,0.0,0.0,0.0,0.0,0.0,0.0,0.0,0.0,0.0,0.0,0.0,0.0,0.0,0.0,0.0,0.0,0.0,0.0,0.0,0.0,0.0,0.0,0.0,0.0,0.0,0.0,0.0,0.0,0.0,0.0,0.0,0.0,0.0,0.0,0.0,0.0,0.0,0.0,0.0,0.0,0.0,0.0,0.0,0.0,0.0,0.0,0.0,0.0,0.0,0.0,0.0,0.0,0.0,0.0,0.0,0.0,0.0,0.0,0.0,0.0,0.0,0.0,0.0,0.0,0.0,0.0,0.0,0.0,0.0,-0.0465,-0.0815,-0.1026,-0.1874,-0.2419,-0.2624,-0.2942,-0.3101,-0.3101,-0.3101,-0.304,0.0,0.0,0.0,0.0,0.0,0.0,0.0,0.0,0.0,0.0,0.0,0.0,0.0,0.0,0.0,0.0,0.0,0.0,0.0,0.0,0.0,0.0,0.0,0.0,0.0,0.0,0.0,0.0,0.0,0.0,0.0,0.0,0.0,0.0,0.0,0.0,0.0,0.0,0.0,0.0,0.0,0.0,0.0,0.0,0.0,0.0,0.0,0.0,0.0,0.0,0.0,0.0,0.0,0.0,0.0,0.0,0.0,0.0,0.0,0.0,0.0,0.0,0.0,0.0,0.0,0.0,0.0,0.0,0.0,0.0,0.0,0.0,0.0,0.0,0.0,0.0,0.0,0.0,0.0,0.0,0.0,0.0,0.0,0.0,0.0,0.0,0.0,0.0,0.0,0.0,0.0,0.0,0.0,0.0,0.0,0.0,0.0,0.0,0.0,0.0,0.0,-0.0064,-0.054,-0.1494,-0.1642,-0.2148,-0.303,-0.3069,-0.3101,-0.3101,-0.3101,-0.3091,0.0,0.0,0.0,0.0,0.0,0.0,0.0,0.0,0.0,0.0,0.0,0.0,0.0,0.0,0.0,0.0,0.0,0.0,0.0,0.0,0.0,0.0,0.0,0.0,0.0,0.0,0.0,0.0,0.0,0.0,0.0,0.0,0.0,0.0,0.0,0.0,0.0,0.0,0.0,0.0,0.0,0.0,0.0,0.0,0.0,0.0,0.0,0.0,0.0,0.0,0.0,0.0,0.0,0.0,0.0,0.0,0.0,0.0,0.0,0.0,0.0,0.0,0.0,0.0,0.0,0.0,0.0,0.0,0.0,0.0,0.0,0.0,0.0,0.0,0.0,0.0,0.0,0.0,0.0,0.0,0.0,0.0,0.0,0.0,0.0,0.0,0.0,0.0,0.0,0.0,0.0,0.0,0.0,0.0,0.0,0.0,0.0,0.0,0.0,0.0,0.0,0.0,-0.0368,-0.1166,-0.1546,-0.2092,-0.287,-0.3214,-0.3388,-0.3388,-0.3388,-0.3388,0.0,0.0,0.0,0.0,0.0,0.0,0.0,0.0,0.0,0.0,0.0,0.0,0.0,0.0,0.0,0.0,0.0,0.0,0.0,0.0,0.0,0.0,0.0,0.0,0.0,0.0,0.0,0.0,0.0,0.0,0.0,0.0,0.0,0.0,0.0,0.0,0.0,0.0,0.0,0.0,0.0,0.0,0.0,0.0,0.0,0.0,0.0,0.0,0.0,0.0,0.0,0.0,0.0,0.0,0.0,0.0,0.0,0.0,0.0,0.0,0.0,0.0,0.0,0.0,0.0,0.0,0.0,0.0,0.0,0.0,0.0,0.0,0.0,0.0,0.0,0.0,0.0,0.0,0.0,0.0,0.0,0.0,0.0,0.0,0.0,0.0,0.0,0.0,0.0,0.0,0.0,0.0,0.0,0.0,0.0,0.0,0.0,0.0,0.0,0.0,0.0,0.0,-0.0292,-0.0895,-0.1496,-0.2095,-0.2696,-0.3306,-0.3604,-0.3604,-0.3604,-0.3604,0.0,0.0,0.0,0.0,0.0,0.0,0.0,0.0,0.0,0.0,0.0,0.0,0.0,0.0,0.0,0.0,0.0,0.0,0.0,0.0,0.0,0.0,0.0,0.0,0.0,0.0,0.0,0.0,0.0,0.0,0.0,0.0,0.0,0.0,0.0,0.0,0.0,0.0,0.0,0.0,0.0,0.0,0.0,0.0,0.0,0.0,0.0,0.0,0.0,0.0,0.0,0.0,0.0,0.0,0.0,0.0,0.0,0.0,0.0,0.0,0.0,0.0,0.0,0.0,0.0,0.0,0.0,0.0,0.0,0.0,0.0,0.0,0.0,0.0,0.0,0.0,0.0,0.0,0.0,0.0,0.0,0.0,0.0,0.0,0.0,0.0,0.0,0.0,0.0,0.0,0.0,0.0,0.0,0.0,0.0,0.0,0.0,0.0,0.0,0.0,0.0,0.0,-0.0292,-0.0895,-0.1496,-0.2095,-0.2696,-0.3306,-0.3604,-0.3604,-0.3604,-0.3604,0.0,0.0,0.0,0.0,0.0,0.0,0.0,0.0,0.0,0.0,0.0,0.0,0.0,0.0,0.0,0.0,0.0,0.0,0.0,0.0,0.0,0.0,0.0,0.0,0.0,0.0,0.0,0.0,0.0,0.0,0.0,0.0,0.0,0.0,0.0,0.0,0.0,0.0,0.0,0.0,0.0,0.0,0.0,0.0,0.0,0.0,0.0,0.0,0.0,0.0,0.0,0.0,0.0,0.0,0.0,0.0,0.0,0.0,0.0,0.0,0.0,0.0,0.0,0.0,0.0,0.0,0.0,0.0,0.0,0.0,0.0,0.0,0.0,0.0,0.0,0.0,0.0,0.0,0.0,0.0,0.0,0.0,0.0,0.0,0.0,0.0,0.0,0.0,0.0,0.0,0.0,0.0,0.0,0.0,0.0,0.0,0.0,0.0,0.0,0.0,0.0,0.0,-0.0292,-0.0895,-0.1496,-0.2095,-0.2696,-0.3306,-0.3604,-0.3604,-0.3604,-0.3604,0.0,0.0,0.0,0.0,0.0,0.0,0.0,0.0,0.0,0.0,0.0,0.0,0.0,0.0,0.0,0.0,0.0,0.0,0.0,0.0,0.0,0.0,0.0,0.0,0.0,0.0,0.0,0.0,0.0,0.0,0.0,0.0,0.0,0.0,0.0,0.0,0.0,0.0,0.0,0.0,0.0,0.0,0.0,0.0,0.0,0.0,0.0,0.0,0.0,0.0,0.0,0.0,0.0,0.0,0.0,0.0,0.0,0.0,0.0,0.0,0.0,0.0,0.0,0.0,0.0,0.0,0.0,0.0,0.0,0.0,0.0,0.0,0.0,0.0,0.0,0.0,0.0,0.0,0.0,0.0,0.0,0.0,0.0,0.0,0.0,0.0,0.0,0.0,0.0,0.0,0.0,0.0,0.0,0.0,0.0,0.0,0.0,0.0,0.0,0.0,0.0,0.0,-0.0187,-0.0562,-0.1174,-0.1678,-0.2052,-0.2921,-0.3361,-0.3361,-0.3566,-0.3709,0.0,0.0,0.0,0.0,0.0,0.0,0.0,0.0,0.0,0.0,0.0,0.0,0.0,0.0,0.0,0.0,0.0,0.0,0.0,0.0,0.0,0.0,0.0,0.0,0.0,0.0,0.0,0.0,0.0,0.0,0.0,0.0,0.0,0.0,0.0,0.0,0.0,0.0,0.0,0.0,0.0,0.0,0.0,0.0,0.0,0.0,0.0,0.0,0.0,0.0,0.0,0.0,0.0,0.0,0.0,0.0,0.0,0.0,0.0,0.0,0.0,0.0,0.0,0.0,0.0,0.0,0.0,0.0,0.0,0.0,0.0,0.0,0.0,0.0,0.0,0.0,0.0,0.0,0.0,0.0,0.0,0.0,0.0,0.0,0.0,0.0,0.0,0.0,0.0,0.0,0.0,0.0,0.0,0.0,0.0,0.0,0.0,0.0,0.0,0.0,0.0,0.0,0.0,0.0,-0.0584,-0.0899,-0.0908,-0.2253,-0.2909,-0.2911,-0.3531,-0.388,0.0,0.0,0.0,0.0,0.0,0.0,0.0,0.0,0.0,0.0,0.0,0.0,0.0,0.0,0.0,0.0,0.0,0.0,0.0,0.0,0.0,0.0,0.0,0.0,0.0,0.0,0.0,0.0,0.0,0.0,0.0,0.0,0.0,0.0,0.0,0.0,0.0,0.0,0.0,0.0,0.0,0.0,0.0,0.0,0.0,0.0,0.0,0.0,0.0,0.0,0.0,0.0,0.0,0.0,0.0,0.0,0.0,0.0,0.0,0.0,0.0,0.0,0.0,0.0,0.0,0.0,0.0,0.0,0.0,0.0,0.0,0.0,0.0,0.0,0.0,0.0,0.0,0.0,0.0,0.0,0.0,0.0,0.0,0.0,0.0,0.0,0.0,0.0,0.0,0.0,0.0,0.0,0.0,0.0,0.0,0.0,0.0,0.0,0.0,0.0,0.0,0.0,0.0,0.0,-0.0599,-0.0899,-0.0908,-0.224,-0.2911,-0.2911,-0.363,-0.3957,0.0,0.0,0.0,0.0,0.0,0.0,0.0,0.0,0.0,0.0,0.0,0.0,0.0,0.0,0.0,0.0,0.0,0.0,0.0,0.0,0.0,0.0,0.0,0.0,0.0,0.0,0.0,0.0,0.0,0.0,0.0,0.0,0.0,0.0,0.0,0.0,0.0,0.0,0.0,0.0,0.0,0.0,0.0,0.0,0.0,0.0,0.0,0.0,0.0,0.0,0.0,0.0,0.0,0.0,0.0,0.0,0.0,0.0,0.0,0.0,0.0,0.0,0.0,0.0,0.0,0.0,0.0,0.0,0.0,0.0,0.0,0.0,0.0,0.0,0.0,0.0,0.0,0.0,0.0,0.0,0.0,0.0,0.0,0.0,0.0,0.0,0.0,0.0,0.0,0.0,0.0,0.0,0.0,0.0,0.0,0.0,0.0,0.0,0.0,0.0,0.0,0.0,0.0,0.0,-0.0338,-0.0495,-0.0502,-0.1583,-0.2101,-0.2132,-0.3136,-0.3634,0.0,0.0,0.0,0.0,0.0,0.0,0.0,0.0,0.0,0.0,0.0,0.0,0.0,0.0,0.0,0.0,0.0,0.0,0.0,0.0,0.0,0.0,0.0,0.0,0.0,0.0,0.0,0.0,0.0,0.0,0.0,0.0,0.0,0.0,0.0,0.0,0.0,0.0,0.0,0.0,0.0,0.0,0.0,0.0,0.0,0.0,0.0,0.0,0.0,0.0,0.0,0.0,0.0,0.0,0.0,0.0,0.0,0.0,0.0,0.0,0.0,0.0,0.0,0.0,0.0,0.0,0.0,0.0,0.0,0.0,0.0,0.0,0.0,0.0,0.0,0.0,0.0,0.0,0.0,0.0,0.0,0.0,0.0,0.0,0.0,0.0,0.0,0.0,0.0,0.0,0.0,0.0,0.0,0.0,0.0,0.0,0.0,0.0,0.0,0.0,0.0,0.0,0.0,0.0,0.0,0.0,0.0,-0.0733,-0.1112,-0.1145,-0.2493,-0.3202,0.0,0.0,0.0,0.0,0.0,0.0,0.0,0.0,0.0,0.0,0.0,0.0,0.0,0.0,0.0,0.0,0.0,0.0,0.0,0.0,0.0,0.0,0.0,0.0,0.0,0.0,0.0,0.0,0.0,0.0,0.0,0.0,0.0,0.0,0.0,0.0,0.0,0.0,0.0,0.0,0.0,0.0,0.0,0.0,0.0,0.0,0.0,0.0,0.0,0.0,0.0,0.0,0.0,0.0,0.0,0.0,0.0,0.0,0.0,0.0,0.0,0.0,0.0,0.0,0.0,0.0,0.0,0.0,0.0,0.0,0.0,0.0,0.0,0.0,0.0,0.0,0.0,0.0,0.0,0.0,0.0,0.0,0.0,0.0,0.0,0.0,0.0,0.0,0.0,0.0,0.0,0.0,0.0,0.0,0.0,0.0,0.0,0.0,0.0,0.0,0.0,0.0,0.0,0.0,0.0,0.0,0.0,-0.0751,-0.1111,-0.1145,-0.2577,-0.3272,0.0,0.0,0.0,0.0,0.0,0.0,0.0,0.0,0.0,0.0,0.0,0.0,0.0,0.0,0.0,0.0,0.0,0.0,0.0,0.0,0.0,0.0,0.0,0.0,0.0,0.0,0.0,0.0,0.0,0.0,0.0,0.0,0.0,0.0,0.0,0.0,0.0,0.0,0.0,0.0,0.0,0.0,0.0,0.0,0.0,0.0,0.0,0.0,0.0,0.0,0.0,0.0045,0.0673,0.0539,0.009,0.0718,0.0535,0.0,0.0,0.0,0.0,0.0,0.0,0.0,0.0,0.0,0.0,0.0,0.0,0.0,0.0,0.0,0.0,0.0,0.0,0.0,0.0,0.0,0.0,0.0,0.0,0.0,0.0,0.0,0.0,0.0,0.0,0.0,0.0,0.0,0.0,0.0,0.0,0.0,0.0,0.0,0.0,0.0,0.0,0.0,0.0,0.0,0.0,0.0,0.0,0.0,0.0,-0.0364,-0.0532,-0.056,-0.1647,-0.2371,0.0,0.0,0.0,0.0,0.0,0.0,0.0,0.0,0.0,0.0,0.0,0.0,0.0,0.0,0.0,0.0,0.0,0.0,0.0,0.0,0.0,0.0,0.0,0.0,0.0,0.0,0.0,0.0,0.0,0.0,0.0,0.0,0.0,0.0,0.0,0.0,0.0,0.0,0.0,0.0,0.0,0.0,0.0,0.0222,0.0351,0.0345,0.0345,0.0,0.0,0.0432,0.048,0.0753,0.1722,0.1506,0.0802,0.1779,0.1513,0.071,0.0729,0.0681,0.068,0.0684,0.0356,0.0,0.0,0.0,0.0,0.0,0.0,0.0,0.0,0.0,0.0,0.0,0.0,0.0,0.0,0.0,0.0,0.0,0.0,0.0,0.0,0.0,0.0,0.0,0.0,0.0,0.0,0.0,0.0,0.0,0.0,0.0,0.0,0.0,0.0,0.0,0.0,0.0,0.0,0.0,0.0,0.0,0.0,0.0,0.0,0.0,0.0,-0.0028,-0.0755,-0.1507,0.0,0.0,0.0,0.0,0.0,0.0,0.0,0.0,0.0,0.0,0.0,0.0,0.0,0.0,0.0,0.0,0.0,0.0,0.0,0.0,0.0,0.0,0.0,0.0,0.0,0.0,0.0,0.0,0.0,0.0,0.0,0.0,0.0,0.0,0.0,0.0,0.0,0.0,0.0,0.0,0.0,0.0,0.0044,0.1023,0.1432,0.1472,0.0,0.0,0.0,0.185,0.1978,0.2824,0.2949,0.2987,0.2998,0.3171,0.3128,0.2995,0.3071,0.2947,0.2808,0.2829,0.1536,0.0,0.0,0.0,0.0,0.0,0.0,0.0,0.0,0.0,0.0,0.0,0.0,0.0,0.0,0.0,0.0,0.0,0.0,0.0,0.0,0.0,0.0,0.0,0.0,0.0,0.0,0.0,0.0,0.0,0.0,0.0,0.0,0.0,0.0,0.0,0.0,0.0,0.0,0.0,0.0,0.0,0.0,0.0,0.0,0.0,0.0,-0.0028,-0.0755,-0.1507,0.1191,0.0928,0.0736,0.1122,0.0872,0.0635,0.1012,0.1029,0.0962,0.0963,0.0868,0.0789,0.0776,0.0582,0.0414,0.0428,0.0186,0.0,0.0,0.0,0.0,0.0,0.0,0.0,0.0,0.0,0.0,0.0,0.0,0.0,0.0,0.0,0.0,0.0,0.0,0.0,0.0,0.0,0.0338,0.0949,0.0983,0.1276,0.1869,0.2314,0.2493,0.2503,0.0,0.0,0.0,0.2666,0.273,0.3183,0.3895,0.379,0.3267,0.4033,0.3819,0.3176,0.3218,0.3151,0.3133,0.3251,0.2632,0.1856,0.1852,0.1449,0.098,0.098,0.098,0.0824,0.0157,0.0,0.0,0.0,0.0,0.0,0.0,0.0,0.0,0.0,0.0,0.0,0.0,0.0,0.0,0.0,0.0,0.0,0.0,0.0,0.0,0.0,0.0,0.0,0.0,0.0,0.0,0.0,0.0,0.0,0.0,0.0,0.0,0.0,0.0,0.0,0.0,0.0,0.0,0.0,-0.0308,-0.1062,0.1936,0.1623,0.1398,0.1844,0.1553,0.1264,0.1652,0.167,0.1587,0.1523,0.1393,0.1294,0.1293,0.0964,0.0705,0.0689,0.0311,0.0,0.0,0.0,0.0,0.0,0.0,0.0,0.0,0.0,0.0,0.0,0.0,0.0,0.0,0.0471,0.0314,0.0,0.0,0.0159,0.0488,0.0488,0.0986,0.2052,0.2039,0.2404,0.3109,0.3417,0.3579,0.3563,0.0,0.0,0.0,0.3723,0.376,0.4145,0.4969,0.4823,0.4225,0.5056,0.485,0.4092,0.4106,0.4087,0.4127,0.4237,0.3983,0.3666,0.3973,0.3125,0.2035,0.2035,0.2035,0.1801,0.0745,0.0471,0.0392,0.0079,0.0,0.0,0.0,0.0,0.0,0.0,0.0,0.0,0.0,0.0,0.0,0.0,0.0,0.0,0.0,0.0,0.0,0.0,0.0,0.0,0.0,0.0,0.0,0.0,0.0,0.0,0.0,0.0,0.0,0.0,0.0,0.0,0.0,0.0,0.0,0.0,0.0,-0.0783,0.1811,0.1786,0.1796,0.1799,0.1785,0.1758,0.1623,0.1596,0.1554,0.1336,0.1304,0.1294,0.1293,0.0964,0.0697,0.0702,0.0305,0.0,0.0,0.0,0.0,0.0,0.0,0.0,0.0,0.0,0.0,0.0,0.0,0.0,0.0,0.1568,0.1097,0.0039,0.0,0.0516,0.1583,0.1583,0.2093,0.3098,0.3069,0.3076,0.3154,0.4187,0.4688,0.0,0.0,0.0,0.0,0.5121,0.5318,0.6264,0.6264,0.6352,0.6474,0.6474,0.6474,0.6474,0.6471,0.6471,0.6451,0.6308,0.5644,0.5039,0.5989,0.4766,0.3085,0.3085,0.3085,0.2851,0.1841,0.1568,0.1333,0.0235,0.0,0.0,0.0,0.0,0.0,0.0,0.0,0.0,0.0,0.0,0.0,0.0,0.0,0.0,0.0,0.0,0.0,0.0,0.0,0.0,0.0,0.0,0.0,0.0,0.0,0.0,0.0,0.0,0.0,0.0,0.0,0.0,0.0,0.0,0.0,0.0,0.0,-0.0783,0.302,0.2722,0.2496,0.2818,0.259,0.2334,0.2577,0.2634,0.259,0.243,0.2315,0.2256,0.2262,0.1894,0.148,0.1171,0.0764,0.0,0.0,0.0,0.0,0.0876,0.1537,0.1989,0.0,0.0,0.0,0.0,0.0,0.0,0.0,0.2618,0.2462,0.2111,0.2111,0.2276,0.2609,0.2609,0.3133,0.4194,0.4202,0.4582,0.5294,0.5649,0.0,0.0,0.0,0.0,0.0,0.5944,0.5983,0.63,0.63,0.6327,0.6368,0.6368,0.6368,0.6368,0.6368,0.6368,0.6375,0.6426,0.6172,0.5943,0.6307,0.5381,0.4178,0.4178,0.3669,0.3046,0.2696,0.2113,0.1528,0.1176,0.0549,0.0,0.0,0.0,0.0,0.0,0.0,0.0,0.0,0.0,0.0,0.0,0.0,0.0,0.0,0.0,0.0,0.0,0.0,0.0,0.0,0.0,0.0,0.0,0.0,0.0,0.0,0.0,0.0,0.0,0.0,0.0,0.0,0.0,0.0,0.0,-0.0504,-0.1006,0.3392,0.3144,0.2924,0.3208,0.3,0.2778,0.2978,0.3023,0.298,0.2852,0.2764,0.2696,0.2696,0.2315,0.1922,0.1685,0.1306,0.0966,0.0,0.0,0.0,0.1806,0.0,0.0,0.0,0.0,0.0,0.0,0.0,0.0,0.0,0.3709,0.3904,0.4295,0.3513,0.3279,0.3709,0.3709,0.4256,0.5315,0.5315,0.567,0.63,0.63,0.0,0.0,0.0,0.0,0.0,0.63,0.63,0.63,0.63,0.63,0.63,0.63,0.63,0.63,0.63,0.6334,0.6385,0.6419,0.6371,0.6317,0.6405,0.5891,0.5315,0.5315,0.4805,0.4217,0.3826,0.3242,0.266,0.227,0.1644,0.1058,0.0667,0.0588,0.0469,0.0077,0.0,0.0,0.0,0.0,0.0,0.0,0.0,0.0,0.0,0.0,0.0,0.0,0.0,0.0,0.0,0.0,0.0,0.0,0.0,0.0,0.0,0.0,0.0,0.0,0.0,0.0,0.0,0.0,0.0,-0.0028,-0.0755,-0.109,0.0,0.3077,0.3084,0.3074,0.3077,0.3047,0.2924,0.2885,0.0,0.273,0.2696,0.2703,0.2727,0.2373,0.2105,0.2216,0.1915,0.0,0.0,0.2169,0.0,0.0,0.2891,0.0,0.0,0.0,0.0,0.0,0.0,0.0,0.0,0.0,0.5276,0.6261,0.4373,0.3787,0.4805,0.4805,0.5315,0.63,0.63,0.63,0.63,0.63,0.0,0.0,0.0,0.0,0.0,0.63,0.63,0.63,0.63,0.63,0.63,0.63,0.63,0.63,0.63,0.6385,0.6474,0.634,0.63,0.63,0.63,0.63,0.63,0.63,0.63,0.606,0.5079,0.4766,0.4453,0.3435,0.3163,0.2851,0.1919,0.1724,0.1411,0.0432,0.0154,0.0113,0.011,0.0036,0.0,0.0,0.0,0.0,0.0,0.0,0.0,0.0,0.0,0.0,0.0,0.0,0.0,0.0,0.0,0.0,0.0,0.0,0.0,0.0,0.0,0.0,0.0,0.0,0.0,-0.0028,-0.0699,-0.1034,0.2791,0.0,0.293,0.2812,0.2873,0.292,0.0,0.2825,0.2866,0.273,0.2696,0.2768,0.2978,0.2826,0.2661,0.2598,0.2495,0.2332,0.2049,0.2824,0.0,0.4661,0.4843,0.0,0.0,0.0,0.0,0.0,0.0,0.0,0.0,0.0,0.6025,0.63,0.5825,0.567,0.5906,0.5906,0.6064,0.63,0.63,0.63,0.63,0.63,0.0,0.0,0.0,0.0,0.63,0.63,0.63,0.63,0.63,0.63,0.63,0.63,0.63,0.63,0.63,0.632,0.6344,0.631,0.63,0.63,0.63,0.63,0.63,0.63,0.63,0.6257,0.5983,0.5315,0.4647,0.4375,0.3709,0.3046,0.2812,0.2735,0.2657,0.2423,0.1754,0.1234,0.1241,0.0551,0.0,0.0,0.0,0.0,0.0,0.0,0.0,0.0,0.0,0.0,0.0,0.0,0.0,0.0,0.0,0.0,0.0,0.0,0.0,0.0,0.0,0.0,0.0,0.0,0.0,0.0,-0.0168,-0.0252,0.2606,0.2757,0.289,0.2805,0.2849,0.289,0.2805,0.2795,0.2781,0.2716,0.2696,0.2768,0.2963,0.2996,0.3017,0.3097,0.3161,0.0,0.0,0.0,0.4587,0.5325,0.547,0.0,0.0,0.0,0.0,0.0,0.0,0.0,0.0,0.0,0.6156,0.6156,0.6262,0.63,0.63,0.63,0.63,0.63,0.63,0.63,0.63,0.63,0.0,0.0,0.0,0.0,0.63,0.63,0.63,0.63,0.63,0.63,0.63,0.63,0.63,0.63,0.63,0.63,0.63,0.63,0.63,0.63,0.63,0.63,0.63,0.63,0.63,0.63,0.63,0.5867,0.5431,0.5431,0.5002,0.4453,0.3943,0.3826,0.3671,0.3202,0.2657,0.2135,0.1669,0.1121,0.0551,0.0072,0.0,0.0,0.0,0.0,0.0,0.0,0.0,0.0,0.0,0.0,0.0,0.0,0.0,0.0,0.0,0.0,0.0,0.0,0.0,0.0,0.0,0.0,0.0,0.0,0.0,0.0,0.2522,0.271,0.2903,0.2879,0.2893,0.2903,0.2879,0.2774,0.2696,0.2696,0.2716,0.2785,0.2926,0.3074,0.329,0.3598,0.0,0.0,0.4646,0.4857,0.5053,0.5361,0.0,0.0,0.0,0.0,0.0,0.0,0.0,0.0,0.0,0.0,0.0,0.5956,0.6146,0.6265,0.6265,0.6286,0.63,0.63,0.63,0.63,0.63,0.63,0.63,0.0,0.0,0.0,0.63,0.63,0.63,0.63,0.63,0.63,0.63,0.63,0.63,0.63,0.63,0.63,0.63,0.63,0.63,0.63,0.63,0.63,0.63,0.63,0.63,0.63,0.63,0.63,0.63,0.63,0.63,0.6064,0.5157,0.496,0.4686,0.3748,0.3474,0.3066,0.2208,0.193,0.1537,0.0624,0.0357,0.0246,0.0246,0.0103,0.0,0.0,0.0,0.0,0.0,0.0,0.0,0.0,0.0,0.0,0.0,0.0,0.0,0.0,0.0,0.0,0.0,0.0,0.0,0.0,0.0,0.0,0.2594,0.2774,0.2876,0.2764,0.2812,0.2876,0.2764,0.2716,0.2696,0.2696,0.2784,0.2939,0.3192,0.3384,0.3605,0.3904,0.0,0.4511,0.0,0.0,0.5165,0.0,0.0,0.0,0.0,0.0,0.0,0.0,0.0,0.0,0.0,0.0,0.0,0.5837,0.5986,0.6027,0.6027,0.6235,0.63,0.63,0.63,0.63,0.63,0.63,0.63,0.0,0.0,0.63,0.63,0.63,0.63,0.63,0.63,0.63,0.63,0.63,0.63,0.63,0.63,0.63,0.63,0.63,0.63,0.63,0.63,0.63,0.63,0.63,0.63,0.63,0.63,0.63,0.63,0.63,0.63,0.6261,0.6103,0.6064,0.6022,0.5828,0.5079,0.4409,0.4237,0.3478,0.2827,0.2666,0.1911,0.1363,0.1363,0.0547,0.0,0.0,0.0,0.0,0.0,0.0,0.0,0.0,0.0,0.0,0.0,0.0,0.0,0.0,0.0,0.0,0.0,0.0,0.0,0.0,0.0,0.0,0.239,0.2608,0.2788,0.2801,0.2956,0.3111,0.3037,0.3023,0.3023,0.3023,0.3164,0.3337,0.3526,0.3714,0.3941,0.4321,0.0,0.4691,0.4961,0.5059,0.0,0.0,0.0,0.0,0.0,0.0,0.0,0.0,0.0,0.0,0.0,0.0,0.0,0.0,0.583,0.5908,0.5908,0.5976,0.6136,0.63,0.63,0.63,0.63,0.63,0.63,0.63,0.0,0.63,0.63,0.63,0.63,0.63,0.63,0.63,0.63,0.63,0.63,0.63,0.63,0.63,0.63,0.63,0.63,0.63,0.63,0.63,0.63,0.63,0.63,0.63,0.63,0.63,0.63,0.63,0.63,0.63,0.63,0.63,0.63,0.63,0.5906,0.5392,0.4805,0.4298,0.3768,0.3191,0.2722,0.2223,0.1677,0.1163,0.0653,0.0069,0.0,0.0,0.0,0.0,0.0,0.0,0.0,0.0,0.0,0.0,0.0,0.0,0.0,0.0,0.0,0.0,0.0,0.0,0.0,0.0,0.2255,0.2455,0.2689,0.2862,0.306,0.3212,0.3246,0.3229,0.3226,0.3293,0.3451,0.3648,0.3765,0.3944,0.0,0.4623,0.4721,0.4836,0.5063,0.0,0.0,0.0,0.0,0.0,0.0,0.0,0.0,0.0,0.0,0.0,0.0,0.0,0.0,0.0,0.5677,0.5752,0.5752,0.5786,0.5939,0.6245,0.6245,0.6265,0.63,0.63,0.63,0.63,0.63,0.63,0.63,0.63,0.63,0.63,0.63,0.63,0.63,0.63,0.63,0.63,0.63,0.63,0.63,0.63,0.63,0.63,0.63,0.63,0.63,0.63,0.63,0.63,0.63,0.63,0.63,0.63,0.63,0.63,0.63,0.63,0.63,0.63,0.63,0.6025,0.5198,0.5079,0.4805,0.3984,0.3637,0.3199,0.2394,0.2049,0.1499,0.0417,0.0307,0.0236,0.0034,0.0,0.0,0.0,0.0,0.0,0.0,0.0,0.0,0.0,0.0,0.0,0.0,0.0,0.0,0.0,0.0,0.0,0.239,0.2498,0.2572,0.2835,0.2905,0.2956,0.3087,0.3017,0.3,0.3252,0.3451,0.3648,0.3765,0.4008,0.4308,0.464,0.4809,0.4924,0.0,0.0,0.0,0.0,0.0,0.0,0.0,0.0,0.0,0.0,0.0,0.0,0.0,0.0,0.0,0.0,0.0,0.5606,0.5606,0.5735,0.5884,0.601,0.601,0.6122,0.63,0.63,0.63,0.63,0.63,0.63,0.63,0.63,0.63,0.63,0.63,0.63,0.63,0.63,0.63,0.63,0.63,0.63,0.63,0.63,0.63,0.63,0.63,0.63,0.63,0.63,0.63,0.63,0.63,0.63,0.63,0.63,0.63,0.63,0.63,0.63,0.63,0.63,0.63,0.6261,0.6183,0.618,0.6141,0.6064,0.5205,0.4516,0.43,0.3407,0.2385,0.1315,0.1208,0.0873,0.0067,0.0,0.0,0.0,0.0,0.0,0.0,0.0,0.0,0.0,0.0,0.0,0.0,0.0,0.0,0.0,0.0,0.0,0.2275,0.2399,0.2558,0.2832,0.2956,0.306,0.3189,0.3418,0.361,0.3718,0.3958,0.417,0.4225,0.4331,0.445,0.4657,0.4819,0.0,0.0,0.0,0.0,0.0,0.0,0.0,0.0,0.0,0.0,0.0,0.0,0.0,0.0,0.0,0.0,0.0,0.0,0.5481,0.5481,0.5535,0.5603,0.5755,0.5844,0.5918,0.5979,0.6074,0.6115,0.6122,0.6255,0.63,0.63,0.63,0.63,0.63,0.63,0.63,0.63,0.63,0.63,0.63,0.63,0.63,0.63,0.63,0.63,0.63,0.63,0.63,0.63,0.63,0.63,0.63,0.63,0.63,0.63,0.63,0.63,0.63,0.63,0.63,0.63,0.63,0.63,0.63,0.63,0.63,0.63,0.63,0.5938,0.5416,0.4715,0.4179,0.3489,0.2398,0.171,0.1173,0.0839,0.0303,0.0,0.0,0.0,0.0,0.0,0.0,0.0,0.0,0.0,0.0,0.0,0.0,0.0,0.0,0.0,0.0,0.2224,0.2344,0.256,0.2771,0.2963,0.3155,0.3354,0.3637,0.3907,0.3974,0.4219,0.4436,0.4481,0.4453,0.0,0.0,0.0,0.0,0.0,0.0,0.0,0.0,0.0,0.0,0.0,0.0,0.0,0.0,0.0,0.0,0.0,0.0,0.0,0.0,0.0,0.5395,0.5395,0.5395,0.5446,0.5552,0.5616,0.5711,0.5803,0.5911,0.5922,0.5929,0.6122,0.6186,0.6193,0.6279,0.63,0.63,0.63,0.63,0.63,0.63,0.63,0.63,0.63,0.63,0.63,0.63,0.63,0.63,0.63,0.63,0.63,0.63,0.63,0.63,0.63,0.63,0.63,0.63,0.63,0.63,0.63,0.63,0.63,0.63,0.63,0.63,0.63,0.63,0.63,0.63,0.63,0.6005,0.5219,0.5024,0.4558,0.3448,0.2375,0.1608,0.134,0.0739,0.0303,0.0034,0.0269,0.0303,0.0,0.0,0.0,0.0,0.0,0.0,0.0,0.0,0.0,0.0,0.0,0.0,0.2251,0.2344,0.2536,0.2662,0.2907,0.3185,0.3535,0.3607,0.3689,0.394,0.4119,0.4267,0.4464,0.4345,0.0,0.464,0.0,0.0,0.0,0.0,0.0,0.0,0.0,0.0,0.0,0.0,0.0,0.0,0.0,0.0,0.0,0.0,0.0,0.0,0.0,0.0,0.5395,0.5395,0.5395,0.5395,0.5395,0.5549,0.5796,0.5796,0.58,0.581,0.5925,0.599,0.6003,0.6196,0.6296,0.63,0.63,0.63,0.63,0.63,0.63,0.63,0.63,0.63,0.63,0.63,0.63,0.63,0.63,0.63,0.63,0.63,0.63,0.63,0.63,0.63,0.63,0.63,0.63,0.63,0.63,0.63,0.63,0.63,0.63,0.63,0.63,0.63,0.63,0.63,0.63,0.6245,0.6013,0.599,0.5542,0.4351,0.33,0.2344,0.1407,0.1307,0.094,0.0067,0.0839,0.0906,0.0034,0.0,0.0,0.0,0.0,0.0,0.0,0.0,0.0,0.0,0.0,0.0,0.2304,0.2422,0.2665,0.2805,0.3147,0.3493,0.3709,0.3812,0.3972,0.4296,0.4392,0.444,0.4484,0.4453,0.0,0.0,0.0,0.0,0.0,0.0,0.0,0.0,0.0,0.0,0.0,0.0,0.0,0.0,0.0,0.0,0.0,0.0,0.0,0.0,0.0,0.0,0.5395,0.5395,0.5395,0.5395,0.5395,0.544,0.5528,0.5603,0.5654,0.5661,0.5806,0.5871,0.5881,0.6037,0.6162,0.63,0.63,0.63,0.63,0.63,0.63,0.63,0.63,0.63,0.63,0.63,0.63,0.63,0.63,0.63,0.63,0.63,0.63,0.63,0.63,0.63,0.63,0.63,0.63,0.63,0.63,0.63,0.63,0.63,0.63,0.63,0.63,0.63,0.63,0.63,0.63,0.6245,0.6013,0.5935,0.5689,0.5221,0.4256,0.3513,0.3211,0.2644,0.1909,0.0973,0.1775,0.1876,0.094,0.0906,0.0906,0.0906,0.0303,0.0,0.0,0.0,0.0,0.0,0.0,0.0,0.2457,0.2588,0.2822,0.3013,0.3266,0.3558,0.3822,0.3974,0.4149,0.4443,0.4447,0.4395,0.4481,0.4443,0.0,0.0,0.0,0.0,0.0,0.0,0.0,0.0,0.0,0.0,0.0,0.0,0.0,0.0,0.0,0.0,0.0,0.0,0.0,0.0,0.0,0.0,0.5395,0.5395,0.5395,0.5395,0.5395,0.5395,0.5399,0.5491,0.5532,0.5542,0.5654,0.5783,0.5898,0.5952,0.6122,0.63,0.63,0.63,0.63,0.63,0.63,0.63,0.63,0.63,0.63,0.63,0.63,0.63,0.63,0.63,0.63,0.63,0.63,0.63,0.63,0.63,0.63,0.63,0.63,0.63,0.63,0.63,0.63,0.63,0.63,0.63,0.63,0.63,0.63,0.63,0.63,0.6265,0.6132,0.5986,0.5837,0.5691,0.5052,0.4473,0.402,0.3513,0.2811,0.1909,0.2711,0.2978,0.241,0.2043,0.1675,0.1307,0.0772,0.0334,0.0,0.0,0.0,0.0,0.0,0.0,0.2651,0.2781,0.2959,0.3236,0.3326,0.3457,0.39,0.4112,0.4264,0.446,0.4358,0.4281,0.4467,0.4355,0.0,0.0,0.0,0.0,0.0,0.0,0.0,0.0,0.0,0.0,0.0,0.0,0.0,0.0,0.0,0.0,0.0,0.0,0.0,0.0,0.0,0.0,0.5395,0.5395,0.5395,0.0,0.5395,0.5395,0.5395,0.5395,0.5395,0.5402,0.5542,0.5728,0.5952,0.5966,0.6101,0.6279,0.6293,0.63,0.63,0.63,0.63,0.63,0.63,0.63,0.63,0.63,0.63,0.63,0.63,0.63,0.63,0.63,0.63,0.63,0.63,0.63,0.63,0.63,0.63,0.63,0.63,0.63,0.63,0.63,0.63,0.63,0.63,0.63,0.63,0.63,0.63,0.63,0.63,0.6125,0.5939,0.5837,0.5684,0.522,0.4241,0.4123,0.3747,0.2878,0.3647,0.4082,0.4015,0.3245,0.241,0.1574,0.1474,0.1006,0.0135,0.0135,0.0067,0.0,0.0,0.0,0.2596,0.272,0.2959,0.3236,0.3502,0.3754,0.3947,0.4112,0.4264,0.446,0.4464,0.4453,0.4484,0.0,0.0,0.0,0.0,0.0,0.0,0.0,0.0,0.0,0.0,0.0,0.0,0.0,0.0,0.0,0.0,0.0,0.0,0.0,0.0,0.0,0.0,0.5395,0.5395,0.5395,0.5395,0.0,0.5395,0.5395,0.5395,0.5395,0.5395,0.5395,0.5429,0.5549,0.5694,0.5803,0.5939,0.6091,0.6252,0.63,0.63,0.63,0.63,0.63,0.63,0.63,0.63,0.63,0.63,0.63,0.63,0.63,0.63,0.63,0.63,0.63,0.63,0.63,0.63,0.63,0.63,0.63,0.63,0.63,0.63,0.63,0.63,0.63,0.63,0.63,0.63,0.63,0.63,0.63,0.63,0.6125,0.5979,0.5946,0.5745,0.5507,0.5264,0.5155,0.4722,0.3782,0.4586,0.4755,0.4015,0.3813,0.3613,0.3411,0.2744,0.1942,0.1006,0.1006,0.0672,0.0,0.0,0.0,0.2747,0.2884,0.3064,0.3364,0.3626,0.3812,0.389,0.4058,0.4244,0.4345,0.444,0.4491,0.4491,0.0,0.0,0.0,0.0,0.0,0.0,0.0,0.0,0.0,0.0,0.0,0.0,0.0,0.0,0.0,0.0,0.0,0.0,0.0,0.0,0.0,0.525,0.5287,0.5395,0.5395,0.5395,0.5395,0.5395,0.5395,0.5395,0.5395,0.5395,0.5395,0.5395,0.5481,0.5599,0.5742,0.5891,0.6006,0.6238,0.63,0.63,0.63,0.63,0.63,0.63,0.63,0.63,0.63,0.63,0.63,0.63,0.63,0.63,0.63,0.63,0.63,0.63,0.63,0.63,0.63,0.63,0.63,0.63,0.63,0.63,0.63,0.63,0.63,0.63,0.63,0.63,0.63,0.63,0.63,0.63,0.619,0.6112,0.6,0.5827,0.5664,0.5596,0.5484,0.5193,0.4688,0.5123,0.5193,0.4686,0.4686,0.4453,0.4015,0.3547,0.2644,0.1307,0.1307,0.0839,0.0,0.0,0.0,0.2882,0.3064,0.3175,0.3525,0.3692,0.3761,0.3785,0.3964,0.4133,0.4184,0.4362,0.4491,0.0,0.0,0.0,0.0,0.0,0.0,0.0,0.0,0.0,0.0,0.0,0.0,0.0,0.0,0.0,0.0,0.0,0.0,0.0,0.0,0.4914,0.5059,0.5086,0.5192,0.5354,0.5382,0.5395,0.5395,0.5395,0.5395,0.5395,0.5395,0.5395,0.5395,0.5395,0.5467,0.5562,0.5705,0.584,0.5936,0.6152,0.6259,0.6262,0.6289,0.63,0.63,0.63,0.63,0.63,0.63,0.63,0.63,0.63,0.63,0.63,0.63,0.63,0.63,0.63,0.63,0.63,0.63,0.63,0.63,0.63,0.63,0.63,0.63,0.63,0.63,0.63,0.63,0.63,0.63,0.63,0.63,0.63,0.63,0.6248,0.6084,0.5932,0.5783,0.564,0.5521,0.5423,0.5395,0.5395,0.5395,0.5395,0.5395,0.5024,0.4251,0.4251,0.3411,0.1775,0.1608,0.1074,0.0236,0.0067,0.0,0.268,0.2926,0.3175,0.3525,0.3617,0.3662,0.3765,0.3822,0.3927,0.0,0.4362,0.0,0.0,0.0,0.0,0.0,0.0,0.0,0.0,0.0,0.0,0.0,0.0,0.0,0.0,0.0,0.0,0.0,0.0,0.0,0.0,0.4711,0.4792,0.4911,0.5036,0.511,0.513,0.5327,0.5395,0.5395,0.5395,0.5395,0.5395,0.5395,0.5395,0.5395,0.5395,0.5405,0.5436,0.5555,0.563,0.5677,0.5952,0.6023,0.6078,0.6248,0.63,0.63,0.63,0.63,0.63,0.63,0.63,0.63,0.63,0.63,0.63,0.63,0.63,0.63,0.63,0.63,0.63,0.63,0.63,0.63,0.63,0.63,0.63,0.63,0.63,0.63,0.63,0.63,0.63,0.63,0.63,0.63,0.63,0.63,0.6293,0.6272,0.6091,0.5902,0.5786,0.564,0.5535,0.5402,0.5395,0.5395,0.5395,0.5395,0.5326,0.5226,0.5226,0.4686,0.3647,0.2878,0.2043,0.1106,0.0337,0.0,0.3149,0.3406,0.3629,0.4198,0.4195,0.4023,0.3934,0.3851,0.3829,0.394,0.0,0.0,0.0,0.0,0.0,0.0,0.0,0.0,0.0,0.0,0.0,0.0,0.0,0.0,0.0,0.0,0.0,0.0,0.0,0.0,0.4586,0.459,0.4662,0.4785,0.485,0.4925,0.4978,0.5159,0.5277,0.5395,0.5395,0.5395,0.5395,0.5395,0.5395,0.5395,0.5395,0.5395,0.5405,0.5562,0.5589,0.562,0.5878,0.5993,0.6013,0.6242,0.63,0.63,0.63,0.63,0.63,0.63,0.63,0.63,0.63,0.63,0.63,0.63,0.63,0.63,0.63,0.63,0.63,0.63,0.63,0.63,0.63,0.63,0.63,0.63,0.63,0.63,0.63,0.63,0.63,0.63,0.63,0.63,0.63,0.63,0.63,0.63,0.6122,0.5966,0.5935,0.5793,0.5647,0.5532,0.5525,0.5484,0.5399,0.5395,0.5395,0.5395,0.5395,0.4921,0.4015,0.3613,0.2711,0.1307,0.0906,0.0471,0.3201,0.3428,0.3638,0.439,0.4338,0.4094,0.4024,0.0,0.3771,0.0,0.0,0.0,0.0,0.0,0.0,0.0,0.0,0.0,0.0,0.0,0.0,0.0,0.0,0.0,0.0,0.0,0.0,0.0,0.0,0.0,0.4491,0.4491,0.4542,0.4658,0.467,0.4745,0.486,0.5009,0.5209,0.5395,0.5395,0.5395,0.5395,0.5395,0.5395,0.5395,0.5395,0.5395,0.5402,0.5518,0.5532,0.5559,0.5817,0.5902,0.5952,0.6146,0.6265,0.63,0.63,0.63,0.63,0.63,0.63,0.63,0.63,0.63,0.63,0.63,0.63,0.63,0.63,0.63,0.63,0.63,0.63,0.63,0.63,0.63,0.63,0.63,0.63,0.63,0.63,0.63,0.63,0.63,0.63,0.63,0.63,0.63,0.63,0.63,0.6159,0.6071,0.5996,0.5925,0.5796,0.5654,0.5644,0.5576,0.546,0.5453,0.5436,0.5395,0.5395,0.5057,0.435,0.4115,0.3311,0.1976,0.1775,0.1174,0.2265,0.2415,0.2752,0.3477,0.3509,0.3479,0.3897,0.0,0.3651,0.0,0.0,0.0,0.0,0.0,0.0,0.0,0.0,0.0,0.0,0.0,0.0,0.0,0.0,0.0,0.0,0.0,0.0,0.0,0.0,0.0,0.4491,0.4491,0.4494,0.4501,0.4644,0.4694,0.4704,0.4958,0.5209,0.5395,0.5395,0.5395,0.5395,0.5395,0.5395,0.5395,0.5395,0.5395,0.5395,0.5402,0.5405,0.5423,0.5549,0.5694,0.583,0.5949,0.6135,0.63,0.63,0.63,0.63,0.63,0.63,0.63,0.63,0.63,0.63,0.63,0.63,0.63,0.63,0.63,0.63,0.63,0.63,0.63,0.63,0.63,0.63,0.63,0.63,0.63,0.63,0.63,0.63,0.63,0.63,0.63,0.63,0.63,0.63,0.63,0.6293,0.619,0.6003,0.5986,0.5915,0.58,0.5789,0.5728,0.5586,0.5579,0.5542,0.5399,0.5395,0.5362,0.5329,0.4417,0.3949,0.3846,0.3011,0.2143,0.2692,0.2894,0.3234,0.4149,0.4343,0.4319,0.4276,0.4114,0.3919,0.0,0.0,0.0,0.0,0.0,0.0,0.0,0.0,0.0,0.0,0.0,0.0,0.0,0.0,0.0,0.0,0.0,0.0,0.0,0.0,0.0,0.4491,0.4491,0.4491,0.4491,0.4542,0.4621,0.4691,0.4796,0.4972,0.5213,0.5213,0.5267,0.5395,0.5395,0.5395,0.5395,0.5395,0.5395,0.5395,0.5395,0.5395,0.5409,0.5566,0.5623,0.5694,0.5902,0.6027,0.6129,0.6265,0.63,0.63,0.63,0.63,0.63,0.63,0.63,0.63,0.63,0.63,0.63,0.63,0.63,0.63,0.63,0.63,0.63,0.63,0.63,0.63,0.63,0.63,0.63,0.63,0.63,0.63,0.63,0.63,0.63,0.63,0.63,0.63,0.63,0.63,0.6276,0.6183,0.6176,0.6112,0.5959,0.5857,0.5739,0.5596,0.5528,0.545,0.5395,0.5395,0.5395,0.5395,0.5057,0.4586,0.3982,0.368,0.3045,0.2591,0.2796,0.3193,0.426,0.4372,0.4339,0.4748,0.4404,0.3984,0.0,0.0,0.0,0.0,0.0,0.0,0.0,0.0,0.0,0.0,0.0,0.0,0.0,0.0,0.0,0.0,0.0,0.0,0.0,0.0,0.0,0.4491,0.4491,0.4598,0.4842,0.4625,0.4811,0.5427,0.4948,0.4932,0.5397,0.5199,0.5182,0.5317,0.5371,0.5395,0.5395,0.5395,0.5395,0.5395,0.5395,0.5395,0.5405,0.5508,0.5545,0.562,0.5864,0.5949,0.6013,0.6245,0.63,0.63,0.63,0.63,0.63,0.63,0.63,0.63,0.63,0.63,0.63,0.63,0.63,0.63,0.63,0.63,0.63,0.63,0.63,0.63,0.63,0.63,0.63,0.63,0.63,0.63,0.63,0.63,0.63,0.63,0.63,0.63,0.63,0.63,0.63,0.63,0.63,0.6255,0.6112,0.5962,0.5813,0.5667,0.5552,0.5446,0.5395,0.5395,0.5395,0.5395,0.5395,0.509,0.4486,0.4486,0.3982,0.0,0.0,0.0,0.3666,0.0,0.0,0.5234,0.0,0.3754,0.0,0.0,0.0,0.0,0.0,0.0,0.0,0.0,0.0,0.0,0.0,0.0,0.0,0.0,0.0,0.0,0.0,0.0,0.0,0.0,0.4491,0.4491,0.4491,0.4787,0.546,0.4842,0.525,0.6809,0.5423,0.5137,0.5958,0.539,0.5121,0.5103,0.5287,0.5392,0.5395,0.5395,0.5395,0.5395,0.5395,0.5395,0.5395,0.5395,0.5487,0.5599,0.5745,0.5895,0.601,0.6245,0.63,0.63,0.63,0.63,0.63,0.63,0.63,0.63,0.63,0.63,0.63,0.63,0.63,0.63,0.63,0.63,0.63,0.63,0.63,0.63,0.63,0.63,0.63,0.63,0.63,0.63,0.63,0.63,0.63,0.63,0.63,0.63,0.63,0.63,0.63,0.63,0.63,0.6296,0.6293,0.6108,0.5919,0.58,0.5657,0.5545,0.5399,0.5395,0.5395,0.5395,0.5395,0.5395,0.5395,0.5395,0.4891,0.1975,0.0,0.0,0.0,0.0,0.0,0.0,0.0,0.0,0.0,0.0,0.0,0.0,0.0,0.0,0.0,0.0,0.0,0.0,0.0,0.0,0.0,0.0,0.0,0.0,0.0,0.0,0.0,0.4491,0.4491,0.4491,0.4491,0.4598,0.4759,0.4598,0.4702,0.5159,0.5238,0.5216,0.5071,0.5435,0.5434,0.51,0.5143,0.5254,0.5395,0.5395,0.5395,0.5395,0.5395,0.5395,0.5395,0.5395,0.5423,0.5487,0.5708,0.5827,0.5901,0.6207,0.63,0.63,0.63,0.63,0.63,0.63,0.63,0.63,0.63,0.63,0.63,0.63,0.63,0.63,0.63,0.63,0.63,0.63,0.63,0.63,0.63,0.63,0.63,0.63,0.63,0.63,0.63,0.63,0.63,0.63,0.63,0.63,0.63,0.63,0.63,0.63,0.63,0.6252,0.6101,0.5949,0.58,0.5654,0.5539,0.544,0.5395,0.5395,0.5395,0.5395,0.5395,0.5395,0.5395,0.5395,0.4891,0.2676,0.2738,0.296,0.3341,0.0,0.0,0.0,0.4252,0.0,0.0,0.0,0.0,0.0,0.0,0.0,0.0,0.0,0.0,0.0,0.0,0.0,0.0,0.0,0.0,0.0,0.0,0.0,0.0,0.4503,0.4399,0.4487,0.4491,0.4625,0.4893,0.4653,0.4924,0.5823,0.5624,0.5652,0.594,0.5848,0.5651,0.5373,0.5196,0.5179,0.527,0.5365,0.5395,0.5395,0.5395,0.5395,0.5395,0.5395,0.5395,0.5423,0.5627,0.5749,0.5837,0.6081,0.6245,0.63,0.63,0.63,0.63,0.63,0.63,0.63,0.63,0.63,0.63,0.63,0.63,0.63,0.63,0.63,0.63,0.63,0.63,0.63,0.63,0.63,0.63,0.63,0.63,0.63,0.63,0.63,0.63,0.63,0.63,0.63,0.63,0.63,0.63,0.63,0.6242,0.6125,0.5996,0.583,0.5677,0.5593,0.5477,0.5395,0.5395,0.5395,0.5395,0.5395,0.5395,0.5395,0.5395,0.5395,0.509,0.363,0.3727,0.394,0.4146,0.3734,0.0,0.5015,0.4427,0.3899,0.0,0.0,0.0,0.0,0.0,0.0,0.0,0.0,0.0,0.0,0.0,0.0,0.0,0.0,0.0,0.0,0.0,0.5143,0.5174,0.4629,0.4337,0.4457,0.4549,0.4878,0.5483,0.5003,0.5605,0.745,0.633,0.6276,0.7343,0.636,0.5808,0.567,0.5234,0.5066,0.5106,0.5277,0.5378,0.5395,0.5395,0.5395,0.5395,0.5395,0.5395,0.5416,0.5569,0.5671,0.58,0.5936,0.6122,0.6276,0.6293,0.63,0.63,0.63,0.63,0.63,0.63,0.63,0.63,0.63,0.63,0.63,0.63,0.63,0.63,0.63,0.63,0.63,0.63,0.63,0.63,0.63,0.63,0.63,0.63,0.63,0.63,0.63,0.63,0.63,0.63,0.6282,0.6276,0.6276,0.6095,0.5959,0.5946,0.5735,0.5583,0.5566,0.5467,0.5395,0.5395,0.5395,0.5395,0.5395,0.5395,0.5395,0.5395,0.5395,0.5395,0.413,0.4258,0.4403,0.4242,0.0,0.0,0.433,0.4256,0.423,0.0,0.0,0.0,0.0,0.0,0.0,0.0,0.0,0.0,0.0,0.0,0.0,0.0,0.0,0.0,0.0,0.0,0.6223,0.5706,0.5101,0.4612,0.428,0.4809,0.5261,0.5483,0.5955,0.6095,0.5923,0.6821,0.6551,0.5144,0.6028,0.5909,0.4919,0.4807,0.4904,0.51,0.513,0.5247,0.5395,0.5395,0.5395,0.5395,0.5395,0.5395,0.5416,0.5569,0.5606,0.5671,0.5899,0.6013,0.6095,0.6259,0.63,0.63,0.63,0.63,0.63,0.63,0.63,0.63,0.63,0.63,0.63,0.63,0.63,0.63,0.63,0.63,0.63,0.63,0.63,0.63,0.63,0.63,0.63,0.63,0.63,0.63,0.63,0.63,0.63,0.63,0.6149,0.6074,0.6074,0.5932,0.5796,0.5684,0.5623,0.5535,0.5443,0.5412,0.5395,0.5395,0.5395,0.5395,0.5395,0.5395,0.5395,0.5395,0.5395,0.5395,0.4991,0.5052,0.5096,0.4906,0.0,0.0,0.0,0.0,0.0,0.0,0.0,0.0,0.0,0.0,0.0,0.0,0.0,0.0,0.0,0.0,0.0,0.0,0.0,0.0,0.0,0.0,0.6258,0.5704,0.5451,0.5233,0.5006,0.5122,0.5235,0.5296,0.5793,0.6064,0.6036,0.7149,0.7337,0.6632,0.661,0.6265,0.5614,0.4998,0.4813,0.4999,0.5069,0.5216,0.5395,0.5395,0.5395,0.5395,0.5395,0.5395,0.5402,0.5481,0.5559,0.5623,0.584,0.5929,0.6016,0.6248,0.63,0.63,0.63,0.63,0.63,0.63,0.63,0.63,0.63,0.63,0.63,0.63,0.63,0.63,0.63,0.63,0.63,0.63,0.63,0.63,0.63,0.63,0.63,0.63,0.63,0.63,0.63,0.63,0.6269,0.6156,0.6074,0.5959,0.5922,0.5779,0.5664,0.5596,0.5552,0.5477,0.5399,0.5395,0.5395,0.5395,0.5395,0.5395,0.5395,0.5395,0.5395,0.5395,0.5395,0.5395,0.0,0.0,0.0,0.0,0.0,0.5181,0.0,0.0,0.0,0.0,0.0,0.0,0.0,0.0,0.0,0.0,0.0,0.0,0.0,0.0,0.0,0.0,0.0,0.0,0.0,0.0,0.61,0.5679,0.5632,0.5624,0.5586,0.5252,0.5093,0.5138,0.5491,0.5968,0.6588,0.7343,0.7943,0.8374,0.7182,0.6529,0.6344,0.518,0.4731,0.4884,0.4995,0.5176,0.5351,0.5382,0.5395,0.5395,0.5395,0.5395,0.5395,0.5395,0.5474,0.5566,0.5711,0.5861,0.601,0.6166,0.6276,0.63,0.63,0.63,0.63,0.63,0.6451,0.6606,0.6606,0.6718,0.6872,0.6872,0.6872,0.6872,0.6872,0.6718,0.6606,0.6606,0.6412,0.63,0.63,0.63,0.63,0.63,0.63,0.63,0.63,0.6272,0.6169,0.6006,0.5942,0.5895,0.5772,0.563,0.5545,0.5545,0.5463,0.5395,0.5395,0.5395,0.5395,0.5395,0.5395,0.5395,0.5395,0.5395,0.5395,0.5395,0.5395,0.5395,0.0,0.0,0.0,0.0,0.6435,0.0,0.0,0.0,0.0,0.0,0.0,0.0,0.0,0.0,0.0,0.0,0.0,0.0,0.0,0.0,0.0,0.0,0.0,0.0,0.0,0.0,0.0,0.6138,0.5418,0.494,0.4828,0.4881,0.5022,0.5267,0.5942,0.6383,0.6583,0.7343,0.7423,0.6858,0.6669,0.6258,0.5597,0.486,0.46,0.4724,0.4877,0.4995,0.5137,0.5337,0.5395,0.5395,0.5395,0.5395,0.5395,0.5395,0.5405,0.5443,0.5562,0.5708,0.585,0.6006,0.6149,0.63,0.63,0.63,0.63,0.63,0.6945,0.7633,0.7633,0.8275,0.8955,0.8955,0.8955,0.8955,0.8955,0.8275,0.7633,0.7633,0.6911,0.63,0.63,0.63,0.63,0.63,0.63,0.63,0.63,0.6142,0.6013,0.5993,0.5796,0.5633,0.5613,0.5508,0.5423,0.5423,0.5402,0.5395,0.5395,0.5395,0.5395,0.5395,0.5395,0.5395,0.5395,0.5395,0.5395,0.5395,0.5395,0.5395,0.0,0.0,0.0,0.0,0.0,0.0,0.5548,0.0,0.5273,0.0,0.0,0.0,0.0,0.0,0.0,0.0,0.0,0.0,0.0,0.0,0.0,0.0,0.0,0.0,0.0,0.0,0.0,0.0,0.0,0.5923,0.604,0.5543,0.5358,0.5574,0.5703,0.6022,0.6583,0.7343,0.775,0.7857,0.702,0.6448,0.6091,0.5007,0.4576,0.4694,0.4758,0.4918,0.5103,0.5199,0.5281,0.5458,0.5947,0.5848,0.5395,0.5395,0.5719,0.6098,0.5737,0.5971,0.6374,0.6096,0.6135,0.63,0.63,0.63,0.63,0.63,0.7022,0.7783,0.7783,0.8542,0.9296,0.9296,0.9296,0.9296,0.9296,0.8955,0.8504,0.7897,0.7442,0.6984,0.6412,0.63,0.63,0.63,0.63,0.63,0.63,0.6125,0.5959,0.5908,0.5711,0.5555,0.5498,0.5433,0.5395,0.5395,0.5395,0.5395,0.5395,0.5395,0.5395,0.5395,0.5395,0.5395,0.5395,0.5395,0.5395,0.5395,0.5395,0.5395,0.6606,0.0,0.0,0.0,0.0,0.0,0.0,0.0,0.0,0.0,0.0,0.0,0.0,0.0,0.0,0.0,0.0,0.0,0.0,0.0,0.0,0.0,0.0,0.0,0.0,0.0,0.0,0.0,0.0,0.0,0.6531,0.5676,0.5209,0.5245,0.5052,0.547,0.6546,0.7122,0.7857,0.8778,0.7316,0.6588,0.6561,0.5144,0.4552,0.4658,0.4674,0.4836,0.5046,0.5083,0.5349,0.5815,0.6461,0.6465,0.6079,0.5848,0.6301,0.6937,0.6187,0.6495,0.7173,0.658,0.6475,0.6583,0.6665,0.6528,0.6377,0.6644,0.7442,0.8275,0.8537,0.9367,1.0121,1.0121,1.0121,1.0121,1.0121,0.9895,0.948,0.8761,0.8385,0.7897,0.6868,0.649,0.63,0.63,0.63,0.63,0.63,0.6088,0.5998,0.6133,0.5773,0.5616,0.573,0.5524,0.5395,0.5395,0.5395,0.5395,0.5395,0.5395,0.5395,0.5395,0.5395,0.5395,0.5395,0.5395,0.5395,0.5395,0.5395,0.5395,0.0,0.0,0.0,0.6424,0.0,0.0,0.0,0.0,0.6088,0.0,0.0,0.0,0.0,0.0,0.5468,0.488,0.0,0.0,0.0,0.0,0.0,0.0,0.0,0.0,0.0,0.0,0.0,0.0,0.0,0.0,0.5347,0.4766,0.4264,0.3886,0.3972,0.4797,0.6391,0.6558,0.7369,0.8778,0.7316,0.6588,0.6561,0.5144,0.4494,0.4505,0.4655,0.4779,0.4908,0.5042,0.5724,0.6654,0.6687,0.7209,0.78,0.6981,0.7209,0.7832,0.6953,0.7313,0.8064,0.759,0.7384,0.7344,0.7647,0.7061,0.649,0.748,0.8466,0.9485,1.0447,1.1465,1.2187,1.2187,1.2187,1.2187,1.2187,1.1428,1.0746,1.0708,0.9927,0.8922,0.7936,0.6949,0.63,0.63,0.63,0.63,0.63,0.5996,0.6126,0.6971,0.6052,0.576,0.6593,0.5881,0.5395,0.5395,0.5395,0.5395,0.5395,0.5395,0.5395,0.5395,0.5395,0.5395,0.5395,0.5395,0.5395,0.5395,0.5395,0.5395,0.0,0.0,0.7562,0.6687,0.0,0.0,0.0,0.0,0.0,0.0,0.0,0.0,0.0,0.0,0.5568,0.519,0.4948,0.0,0.0,0.0,0.0,0.0,0.0,0.0,0.0,0.0,0.0,0.0,0.6063,0.0,0.0,0.5324,0.4812,0.4415,0.461,0.526,0.6375,0.7008,0.783,0.8778,0.7316,0.6588,0.6561,0.5144,0.4491,0.4494,0.4545,0.4684,0.4952,0.5571,0.6159,0.6817,0.7962,0.8613,0.8748,0.7897,0.8124,0.8812,0.8517,0.8311,0.821,0.8216,0.8255,0.8364,0.8699,0.8542,0.8351,0.8694,0.9518,1.0378,1.0708,1.1545,1.2305,1.2305,1.2305,1.2305,1.2305,1.2033,1.1583,1.0938,1.0527,0.9965,0.8955,0.8504,0.7821,0.649,0.63,0.63,0.63,0.5993,0.6119,0.7007,0.6581,0.6625,0.747,0.6756,0.6009,0.5428,0.5395,0.5395,0.5395,0.5395,0.5395,0.5395,0.5395,0.5395,0.5395,0.5395,0.5395,0.5395,0.5395,0.5395,0.6867,0.7206,0.0,0.676,0.6727,0.0,0.6025,0.0,0.0,0.0,0.0,0.0,0.0,0.0,0.5932,0.5672,0.5155,0.4568,0.0,0.4007,0.0,0.0,0.0,0.0,0.0,0.0,0.5548,0.5983,0.6017,0.0,0.0,0.0,0.5089,0.4616,0.4933,0.5493,0.6333,0.7254,0.8076,0.8778,0.7316,0.6588,0.6561,0.5144,0.4625,0.4866,0.4866,0.5197,0.5812,0.637,0.7002,0.773,0.8877,0.9498,0.9658,0.8775,0.8812,0.9306,0.9306,0.9179,0.9064,0.9117,0.9175,0.9279,0.9718,0.9599,0.9372,0.9744,1.0303,1.0901,1.1236,1.1805,1.2305,1.2305,1.2305,1.2305,1.2305,1.2305,1.2114,1.1465,1.1316,1.1019,1.0008,0.982,0.9253,0.7629,0.7061,0.6945,0.7326,0.6721,0.6722,0.7955,0.7548,0.7274,0.7502,0.7013,0.633,0.5458,0.5395,0.5395,0.5395,0.5395,0.5395,0.5395,0.5395,0.5395,0.5395,0.5395,0.5395,0.5395,0.5395,0.5395]}]]